Wetterdaten: Freitag, 16.06.2017
Datum Zeit Temp. A. Pool Temp. Feuchte A. Luftdruck Regen Wind Richtung Richtung Sonnenschein ET UV Solar Taupunkt Windchill Windben Empfang
16.06.2017 00:00 19,5 C 25,6 C 66 % 1012,6 hPa 0,0 l/m 4,6 km/h (1 Bft) S-SW 197 0 min 0,000 mm 0,0 UV-I 0 W/m 13,0 C 19,5 C 9,7 km/h (2 Bft) 100,00 %
16.06.2017 00:02 19,5 C 25,6 C 66 % 1012,5 hPa 0,0 l/m 4,5 km/h (1 Bft) S-SW 197 0 min 0,000 mm 0,0 UV-I 0 W/m 13,0 C 19,5 C 6,4 km/h (2 Bft) 94,87 %
16.06.2017 00:04 19,4 C 25,6 C 66 % 1012,5 hPa 0,0 l/m 4,7 km/h (1 Bft) S-SW 196 0 min 0,000 mm 0,0 UV-I 0 W/m 12,9 C 19,4 C 8,0 km/h (2 Bft) 98,11 %
16.06.2017 00:06 19,4 C 25,6 C 67 % 1012,5 hPa 0,0 l/m 4,1 km/h (1 Bft) S-SW 196 0 min 0,000 mm 0,0 UV-I 0 W/m 13,1 C 19,4 C 6,4 km/h (2 Bft) 100,00 %
16.06.2017 00:08 19,4 C 25,6 C 67 % 1012,5 hPa 0,0 l/m 3,8 km/h (1 Bft) S-SW 197 0 min 0,000 mm 0,0 UV-I 0 W/m 13,1 C 19,4 C 6,4 km/h (2 Bft) 97,87 %
16.06.2017 00:10 19,3 C 25,6 C 67 % 1012,5 hPa 0,0 l/m 3,4 km/h (1 Bft) S-SW 197 0 min 0,000 mm 0,0 UV-I 0 W/m 13,0 C 19,3 C 4,8 km/h (1 Bft) 100,00 %
16.06.2017 00:12 19,3 C 25,6 C 67 % 1012,5 hPa 0,0 l/m 2,7 km/h (1 Bft) S-SW 197 0 min 0,000 mm 0,0 UV-I 0 W/m 13,0 C 19,3 C 4,8 km/h (1 Bft) 100,00 %
16.06.2017 00:14 19,2 C 25,6 C 67 % 1012,5 hPa 0,0 l/m 3,4 km/h (1 Bft) S 188 0 min 0,000 mm 0,0 UV-I 0 W/m 12,9 C 19,2 C 6,4 km/h (2 Bft) 100,00 %
16.06.2017 00:16 19,2 C 25,6 C 67 % 1012,5 hPa 0,0 l/m 4,6 km/h (1 Bft) S-SW 194 0 min 0,000 mm 0,0 UV-I 0 W/m 12,9 C 19,2 C 6,4 km/h (2 Bft) 100,00 %
16.06.2017 00:18 19,2 C 25,6 C 67 % 1012,5 hPa 0,0 l/m 4,4 km/h (1 Bft) S-SW 192 0 min 0,000 mm 0,0 UV-I 0 W/m 12,9 C 19,2 C 6,4 km/h (2 Bft) 98,00 %
16.06.2017 00:20 19,3 C 25,6 C 67 % 1012,4 hPa 0,0 l/m 4,2 km/h (1 Bft) S-SW 192 0 min 0,000 mm 0,0 UV-I 0 W/m 13,0 C 19,3 C 4,8 km/h (1 Bft) 95,74 %
16.06.2017 00:22 19,3 C 25,6 C 67 % 1012,4 hPa 0,0 l/m 4,1 km/h (1 Bft) S-SW 192 0 min 0,000 mm 0,0 UV-I 0 W/m 13,0 C 19,3 C 6,4 km/h (2 Bft) 96,00 %
16.06.2017 00:24 19,3 C 25,6 C 66 % 1012,4 hPa 0,0 l/m 4,3 km/h (1 Bft) S-SW 194 0 min 0,000 mm 0,0 UV-I 0 W/m 12,8 C 19,3 C 6,4 km/h (2 Bft) 95,74 %
16.06.2017 00:26 19,3 C 25,6 C 67 % 1012,4 hPa 0,0 l/m 5,1 km/h (1 Bft) S-SW 202 0 min 0,000 mm 0,0 UV-I 0 W/m 13,0 C 19,3 C 6,4 km/h (2 Bft) 97,56 %
16.06.2017 00:28 19,3 C 25,6 C 66 % 1012,4 hPa 0,0 l/m 6,2 km/h (2 Bft) S-SW 211 0 min 0,000 mm 0,0 UV-I 0 W/m 12,8 C 19,3 C 9,7 km/h (2 Bft) 92,45 %
16.06.2017 00:30 19,3 C 25,6 C 66 % 1012,4 hPa 0,0 l/m 5,3 km/h (1 Bft) S-SW 211 0 min 0,000 mm 0,0 UV-I 0 W/m 12,8 C 19,3 C 8,0 km/h (2 Bft) 94,74 %
16.06.2017 00:32 19,3 C 25,6 C 66 % 1012,3 hPa 0,0 l/m 4,4 km/h (1 Bft) S-SW 211 0 min 0,000 mm 0,0 UV-I 0 W/m 12,8 C 19,3 C 6,4 km/h (2 Bft) 96,43 %
16.06.2017 00:34 19,3 C 25,6 C 67 % 1012,3 hPa 0,0 l/m 4,2 km/h (1 Bft) S-SW 211 0 min 0,000 mm 0,0 UV-I 0 W/m 13,0 C 19,3 C 6,4 km/h (2 Bft) 97,56 %
16.06.2017 00:36 19,3 C 25,6 C 67 % 1012,3 hPa 0,0 l/m 5,0 km/h (1 Bft) S-SW 210 0 min 0,000 mm 0,0 UV-I 0 W/m 13,0 C 19,3 C 8,0 km/h (2 Bft) 96,00 %
16.06.2017 00:38 19,3 C 25,6 C 67 % 1012,4 hPa 0,0 l/m 4,2 km/h (1 Bft) S-SW 210 0 min 0,000 mm 0,0 UV-I 0 W/m 13,0 C 19,3 C 6,4 km/h (2 Bft) 96,00 %
16.06.2017 00:40 19,3 C 25,6 C 67 % 1012,4 hPa 0,0 l/m 5,2 km/h (1 Bft) S-SW 210 0 min 0,000 mm 0,0 UV-I 0 W/m 13,0 C 19,3 C 6,4 km/h (2 Bft) 93,62 %
16.06.2017 00:42 19,3 C 25,6 C 67 % 1012,4 hPa 0,0 l/m 3,5 km/h (1 Bft) S-SW 210 0 min 0,000 mm 0,0 UV-I 0 W/m 13,0 C 19,3 C 4,8 km/h (1 Bft) 95,65 %
16.06.2017 00:44 19,3 C 25,6 C 66 % 1012,4 hPa 0,0 l/m 4,1 km/h (1 Bft) S-SW 210 0 min 0,000 mm 0,0 UV-I 0 W/m 12,8 C 19,3 C 6,4 km/h (2 Bft) 95,59 %
16.06.2017 00:46 19,3 C 25,6 C 67 % 1012,4 hPa 0,0 l/m 3,3 km/h (1 Bft) S-SW 210 0 min 0,000 mm 0,0 UV-I 0 W/m 13,0 C 19,3 C 4,8 km/h (1 Bft) 97,37 %
16.06.2017 00:48 19,3 C 25,6 C 66 % 1012,3 hPa 0,0 l/m 4,7 km/h (1 Bft) S-SW 210 0 min 0,000 mm 0,0 UV-I 0 W/m 12,8 C 19,3 C 6,4 km/h (2 Bft) 94,00 %
16.06.2017 00:50 19,3 C 25,6 C 66 % 1012,3 hPa 0,0 l/m 4,4 km/h (1 Bft) S-SW 210 0 min 0,000 mm 0,0 UV-I 0 W/m 12,8 C 19,3 C 6,4 km/h (2 Bft) 95,74 %
16.06.2017 00:52 19,2 C 25,6 C 67 % 1012,4 hPa 0,0 l/m 4,0 km/h (1 Bft) S-SW 210 0 min 0,000 mm 0,0 UV-I 0 W/m 12,9 C 19,2 C 4,8 km/h (1 Bft) 98,04 %
16.06.2017 00:54 19,2 C 25,6 C 67 % 1012,4 hPa 0,0 l/m 4,6 km/h (1 Bft) S-SW 210 0 min 0,000 mm 0,0 UV-I 0 W/m 12,9 C 19,2 C 8,0 km/h (2 Bft) 94,00 %
16.06.2017 00:56 19,2 C 25,6 C 67 % 1012,4 hPa 0,0 l/m 4,7 km/h (1 Bft) S-SW 210 0 min 0,000 mm 0,0 UV-I 0 W/m 12,9 C 19,2 C 6,4 km/h (2 Bft) 100,00 %
16.06.2017 00:58 19,1 C 25,6 C 67 % 1012,3 hPa 0,0 l/m 5,0 km/h (1 Bft) S-SW 209 0 min 0,000 mm 0,0 UV-I 0 W/m 12,8 C 19,1 C 8,0 km/h (2 Bft) 96,23 %
16.06.2017 01:00 19,1 C 25,6 C 68 % 1012,3 hPa 0,0 l/m 6,3 km/h (2 Bft) S-SW 209 0 min 0,025 mm 0,0 UV-I 0 W/m 13,1 C 19,1 C 8,0 km/h (2 Bft) 97,96 %
16.06.2017 01:02 19,1 C 25,6 C 68 % 1012,3 hPa 0,0 l/m 7,9 km/h (2 Bft) S-SW 213 0 min 0,000 mm 0,0 UV-I 0 W/m 13,1 C 18,4 C 9,7 km/h (2 Bft) 97,30 %
16.06.2017 01:04 19,1 C 25,6 C 68 % 1012,3 hPa 0,0 l/m 5,6 km/h (1 Bft) S-SW 208 0 min 0,000 mm 0,0 UV-I 0 W/m 13,1 C 19,1 C 11,3 km/h (2 Bft) 98,11 %
16.06.2017 01:06 19,0 C 25,6 C 68 % 1012,2 hPa 0,0 l/m 4,1 km/h (1 Bft) S-SW 207 0 min 0,000 mm 0,0 UV-I 0 W/m 13,0 C 19,0 C 8,0 km/h (2 Bft) 98,00 %
16.06.2017 01:08 19,0 C 25,0 C 67 % 1012,3 hPa 0,0 l/m 3,7 km/h (1 Bft) S 178 0 min 0,000 mm 0,0 UV-I 0 W/m 12,7 C 19,0 C 6,4 km/h (2 Bft) 100,00 %
16.06.2017 01:10 19,1 C 25,6 C 67 % 1012,3 hPa 0,0 l/m 4,4 km/h (1 Bft) S 184 0 min 0,000 mm 0,0 UV-I 0 W/m 12,8 C 19,1 C 9,7 km/h (2 Bft) 98,11 %
16.06.2017 01:12 19,2 C 25,0 C 66 % 1012,2 hPa 0,0 l/m 5,5 km/h (1 Bft) S-SW 198 0 min 0,000 mm 0,0 UV-I 0 W/m 12,7 C 19,2 C 9,7 km/h (2 Bft) 100,00 %
16.06.2017 01:14 19,3 C 25,6 C 66 % 1012,3 hPa 0,0 l/m 4,7 km/h (1 Bft) S-SW 199 0 min 0,000 mm 0,0 UV-I 0 W/m 12,8 C 19,3 C 6,4 km/h (2 Bft) 94,74 %
16.06.2017 01:16 19,3 C 25,0 C 66 % 1012,3 hPa 0,0 l/m 4,9 km/h (1 Bft) S-SW 203 0 min 0,000 mm 0,0 UV-I 0 W/m 12,8 C 19,3 C 6,4 km/h (2 Bft) 98,11 %
16.06.2017 01:18 19,4 C 25,0 C 66 % 1012,3 hPa 0,0 l/m 3,6 km/h (1 Bft) S-SW 203 0 min 0,000 mm 0,0 UV-I 0 W/m 12,9 C 19,4 C 6,4 km/h (2 Bft) 100,00 %
16.06.2017 01:20 19,3 C 25,0 C 66 % 1012,2 hPa 0,0 l/m 3,0 km/h (1 Bft) S-SW 203 0 min 0,000 mm 0,0 UV-I 0 W/m 12,8 C 19,3 C 4,8 km/h (1 Bft) 97,92 %
16.06.2017 01:22 19,3 C 25,0 C 66 % 1012,2 hPa 0,0 l/m 0,3 km/h (0 Bft) S-SW 203 0 min 0,000 mm 0,0 UV-I 0 W/m 12,8 C 19,3 C 1,6 km/h (1 Bft) 97,87 %
16.06.2017 01:24 19,3 C 25,6 C 66 % 1012,1 hPa 0,0 l/m 0,4 km/h (0 Bft) S-SW 203 0 min 0,000 mm 0,0 UV-I 0 W/m 12,8 C 19,3 C 1,6 km/h (1 Bft) 100,00 %
16.06.2017 01:26 19,3 C 25,0 C 67 % 1012,1 hPa 0,0 l/m 1,7 km/h (1 Bft) S-SW 203 0 min 0,000 mm 0,0 UV-I 0 W/m 13,0 C 19,3 C 4,8 km/h (1 Bft) 98,11 %
16.06.2017 01:28 19,3 C 25,0 C 66 % 1012,1 hPa 0,0 l/m 3,5 km/h (1 Bft) S-SW 203 0 min 0,000 mm 0,0 UV-I 0 W/m 12,8 C 19,3 C 4,8 km/h (1 Bft) 98,00 %
16.06.2017 01:30 19,3 C 25,0 C 66 % 1012,0 hPa 0,0 l/m 3,7 km/h (1 Bft) S-SW 203 0 min 0,000 mm 0,0 UV-I 0 W/m 12,8 C 19,3 C 6,4 km/h (2 Bft) 100,00 %
16.06.2017 01:32 19,3 C 25,0 C 66 % 1012,0 hPa 0,0 l/m 0,9 km/h (0 Bft) S-SW 203 0 min 0,000 mm 0,0 UV-I 0 W/m 12,8 C 19,3 C 3,2 km/h (1 Bft) 98,08 %
16.06.2017 01:34 19,3 C 25,0 C 66 % 1011,9 hPa 0,0 l/m 1,8 km/h (1 Bft) S-SW 203 0 min 0,000 mm 0,0 UV-I 0 W/m 12,8 C 19,3 C 3,2 km/h (1 Bft) 98,11 %
16.06.2017 01:36 19,4 C 25,0 C 66 % 1011,8 hPa 0,0 l/m 2,6 km/h (1 Bft) S-SW 203 0 min 0,000 mm 0,0 UV-I 0 W/m 12,9 C 19,4 C 6,4 km/h (2 Bft) 97,44 %
16.06.2017 01:38 19,3 C 25,0 C 66 % 1011,9 hPa 0,0 l/m 2,7 km/h (1 Bft) S-SW 203 0 min 0,000 mm 0,0 UV-I 0 W/m 12,8 C 19,3 C 4,8 km/h (1 Bft) 97,37 %
16.06.2017 01:40 19,3 C 25,0 C 66 % 1011,8 hPa 0,0 l/m 1,6 km/h (1 Bft) S-SW 203 0 min 0,000 mm 0,0 UV-I 0 W/m 12,8 C 19,3 C 4,8 km/h (1 Bft) 95,83 %
16.06.2017 01:42 19,4 C 25,0 C 65 % 1011,7 hPa 0,0 l/m 1,8 km/h (1 Bft) S-SW 203 0 min 0,000 mm 0,0 UV-I 0 W/m 12,6 C 19,4 C 3,2 km/h (1 Bft) 100,00 %
16.06.2017 01:44 19,4 C 25,0 C 65 % 1011,7 hPa 0,0 l/m 0,4 km/h (0 Bft) S-SW 203 0 min 0,000 mm 0,0 UV-I 0 W/m 12,6 C 19,4 C 1,6 km/h (1 Bft) 98,53 %
16.06.2017 01:46 19,4 C 25,0 C 65 % 1011,7 hPa 0,0 l/m 1,0 km/h (0 Bft) S-SW 203 0 min 0,000 mm 0,0 UV-I 0 W/m 12,6 C 19,4 C 3,2 km/h (1 Bft) 100,00 %
16.06.2017 01:48 19,4 C 25,0 C 65 % 1011,8 hPa 0,0 l/m 2,2 km/h (1 Bft) S-SW 203 0 min 0,000 mm 0,0 UV-I 0 W/m 12,6 C 19,4 C 4,8 km/h (1 Bft) 100,00 %
16.06.2017 01:50 19,5 C 25,0 C 65 % 1011,8 hPa 0,0 l/m 3,6 km/h (1 Bft) S-SW 203 0 min 0,000 mm 0,0 UV-I 0 W/m 12,7 C 19,5 C 4,8 km/h (1 Bft) 97,87 %
16.06.2017 01:52 19,5 C 25,0 C 65 % 1011,7 hPa 0,0 l/m 1,2 km/h (1 Bft) S-SW 203 0 min 0,000 mm 0,0 UV-I 0 W/m 12,7 C 19,5 C 3,2 km/h (1 Bft) 98,00 %
16.06.2017 01:54 19,5 C 25,0 C 65 % 1011,6 hPa 0,0 l/m 1,3 km/h (1 Bft) S-SW 203 0 min 0,000 mm 0,0 UV-I 0 W/m 12,7 C 19,5 C 3,2 km/h (1 Bft) 97,87 %
16.06.2017 01:56 19,6 C 25,0 C 66 % 1011,9 hPa 0,0 l/m 5,6 km/h (1 Bft) SW 216 0 min 0,000 mm 0,0 UV-I 0 W/m 13,1 C 19,6 C 9,7 km/h (2 Bft) 97,56 %
16.06.2017 01:58 19,6 C 25,0 C 66 % 1011,6 hPa 0,0 l/m 2,5 km/h (1 Bft) S-SW 208 0 min 0,000 mm 0,0 UV-I 0 W/m 13,1 C 19,6 C 4,8 km/h (1 Bft) 96,00 %
16.06.2017 02:00 19,5 C 25,0 C 66 % 1011,5 hPa 0,0 l/m 4,5 km/h (1 Bft) S-SO 158 0 min 0,026 mm 0,0 UV-I 0 W/m 13,0 C 19,5 C 8,0 km/h (2 Bft) 100,00 %
16.06.2017 02:02 19,4 C 25,0 C 65 % 1011,6 hPa 0,0 l/m 1,9 km/h (1 Bft) S-SO 157 0 min 0,000 mm 0,0 UV-I 0 W/m 12,6 C 19,4 C 4,8 km/h (1 Bft) 94,00 %
16.06.2017 02:04 19,5 C 25,0 C 65 % 1011,6 hPa 0,0 l/m 0,6 km/h (0 Bft) S-SO 157 0 min 0,000 mm 0,0 UV-I 0 W/m 12,7 C 19,5 C 3,2 km/h (1 Bft) 95,74 %
16.06.2017 02:06 19,4 C 25,0 C 68 % 1011,6 hPa 0,0 l/m 2,9 km/h (1 Bft) O-SO 111 0 min 0,000 mm 0,0 UV-I 0 W/m 13,3 C 19,4 C 6,4 km/h (2 Bft) 94,00 %
16.06.2017 02:08 19,2 C 25,0 C 70 % 1011,8 hPa 0,0 l/m 2,6 km/h (1 Bft) O 101 0 min 0,000 mm 0,0 UV-I 0 W/m 13,6 C 19,2 C 4,8 km/h (1 Bft) 95,74 %
16.06.2017 02:10 19,1 C 25,0 C 70 % 1011,8 hPa 0,0 l/m 0,0 km/h (0 Bft) O 101 0 min 0,000 mm 0,0 UV-I 0 W/m 13,5 C 19,1 C 1,6 km/h (1 Bft) 96,00 %
16.06.2017 02:12 18,9 C 25,0 C 72 % 1011,7 hPa 0,0 l/m 3,9 km/h (1 Bft) O 98 0 min 0,000 mm 0,0 UV-I 0 W/m 13,7 C 18,9 C 6,4 km/h (2 Bft) 97,44 %
16.06.2017 02:14 18,7 C 25,0 C 73 % 1011,6 hPa 0,0 l/m 3,1 km/h (1 Bft) O 98 0 min 0,000 mm 0,0 UV-I 0 W/m 13,8 C 18,7 C 4,8 km/h (1 Bft) 98,00 %
16.06.2017 02:16 18,6 C 25,0 C 72 % 1011,6 hPa 0,0 l/m 2,1 km/h (1 Bft) O 98 0 min 0,000 mm 0,0 UV-I 0 W/m 13,4 C 18,6 C 4,8 km/h (1 Bft) 96,55 %
16.06.2017 02:18 18,7 C 25,0 C 71 % 1011,6 hPa 0,0 l/m 2,1 km/h (1 Bft) O 98 0 min 0,000 mm 0,0 UV-I 0 W/m 13,3 C 18,7 C 3,2 km/h (1 Bft) 94,37 %
16.06.2017 02:20 18,7 C 25,0 C 71 % 1011,5 hPa 0,0 l/m 0,6 km/h (0 Bft) O 98 0 min 0,000 mm 0,0 UV-I 0 W/m 13,3 C 18,7 C 3,2 km/h (1 Bft) 94,74 %
16.06.2017 02:22 18,7 C 25,0 C 71 % 1011,6 hPa 0,0 l/m 0,1 km/h (0 Bft) O 98 0 min 0,000 mm 0,0 UV-I 0 W/m 13,3 C 18,7 C 1,6 km/h (1 Bft) 94,00 %
16.06.2017 02:24 18,8 C 25,0 C 71 % 1011,8 hPa 0,0 l/m 1,8 km/h (1 Bft) O 98 0 min 0,000 mm 0,0 UV-I 0 W/m 13,4 C 18,8 C 3,2 km/h (1 Bft) 94,00 %
16.06.2017 02:26 18,8 C 25,0 C 72 % 1011,9 hPa 0,0 l/m 1,9 km/h (1 Bft) O 98 0 min 0,000 mm 0,0 UV-I 0 W/m 13,6 C 18,8 C 4,8 km/h (1 Bft) 95,74 %
16.06.2017 02:28 18,8 C 25,0 C 71 % 1012,0 hPa 0,0 l/m 1,6 km/h (1 Bft) O 98 0 min 0,000 mm 0,0 UV-I 0 W/m 13,4 C 18,8 C 3,2 km/h (1 Bft) 92,00 %
16.06.2017 02:30 18,8 C 25,0 C 72 % 1012,1 hPa 0,0 l/m 2,1 km/h (1 Bft) O 98 0 min 0,000 mm 0,0 UV-I 0 W/m 13,6 C 18,8 C 3,2 km/h (1 Bft) 94,74 %
16.06.2017 02:32 18,8 C 25,0 C 72 % 1012,1 hPa 0,0 l/m 1,1 km/h (1 Bft) O 98 0 min 0,000 mm 0,0 UV-I 0 W/m 13,6 C 18,8 C 3,2 km/h (1 Bft) 94,00 %
16.06.2017 02:34 18,6 C 25,0 C 74 % 1012,2 hPa 0,0 l/m 1,3 km/h (1 Bft) O 98 0 min 0,000 mm 0,0 UV-I 0 W/m 13,9 C 18,6 C 4,8 km/h (1 Bft) 95,74 %
16.06.2017 02:36 18,4 C 25,0 C 76 % 1012,3 hPa 0,0 l/m 1,5 km/h (1 Bft) O 98 0 min 0,000 mm 0,0 UV-I 0 W/m 14,1 C 18,4 C 3,2 km/h (1 Bft) 93,62 %
16.06.2017 02:38 18,2 C 25,0 C 77 % 1012,6 hPa 0,0 l/m 0,1 km/h (0 Bft) O 98 0 min 0,000 mm 0,0 UV-I 0 W/m 14,1 C 18,2 C 1,6 km/h (1 Bft) 96,00 %
16.06.2017 02:40 18,1 C 25,0 C 77 % 1012,7 hPa 0,0 l/m 0,9 km/h (0 Bft) O 98 0 min 0,000 mm 0,0 UV-I 0 W/m 14,0 C 18,1 C 3,2 km/h (1 Bft) 92,00 %
16.06.2017 02:42 18,1 C 25,0 C 78 % 1012,8 hPa 0,0 l/m 1,4 km/h (1 Bft) O 98 0 min 0,000 mm 0,0 UV-I 0 W/m 14,2 C 18,1 C 4,8 km/h (1 Bft) 94,74 %
16.06.2017 02:44 18,1 C 25,0 C 77 % 1012,9 hPa 0,0 l/m 3,5 km/h (1 Bft) O-SO 105 0 min 0,000 mm 0,0 UV-I 0 W/m 14,0 C 18,1 C 6,4 km/h (2 Bft) 95,45 %
16.06.2017 02:46 18,3 C 25,0 C 76 % 1013,0 hPa 0,0 l/m 19,2 km/h (3 Bft) NW 325 0 min 0,000 mm 0,0 UV-I 0 W/m 14,0 C 14,2 C 38,6 km/h (5 Bft) 91,07 %
16.06.2017 02:48 18,7 C 25,0 C 73 % 1013,0 hPa 0,0 l/m 5,6 km/h (1 Bft) SW 229 0 min 0,000 mm 0,0 UV-I 0 W/m 13,8 C 18,7 C 14,5 km/h (3 Bft) 93,62 %
16.06.2017 02:50 19,1 C 25,0 C 73 % 1013,1 hPa 0,0 l/m 8,7 km/h (2 Bft) S-SW 212 0 min 0,000 mm 0,0 UV-I 0 W/m 14,1 C 18,1 C 16,1 km/h (3 Bft) 97,56 %
16.06.2017 02:52 19,3 C 25,0 C 72 % 1013,1 hPa 0,0 l/m 7,9 km/h (2 Bft) W 269 0 min 0,000 mm 0,0 UV-I 0 W/m 14,1 C 18,7 C 14,5 km/h (3 Bft) 96,23 %
16.06.2017 02:54 19,6 C 25,0 C 71 % 1013,1 hPa 0,0 l/m 9,3 km/h (2 Bft) NW 321 0 min 0,000 mm 0,0 UV-I 0 W/m 14,2 C 18,4 C 19,3 km/h (3 Bft) 92,86 %
16.06.2017 02:56 19,7 C 25,0 C 71 % 1013,1 hPa 0,0 l/m 3,7 km/h (1 Bft) S-SW 209 0 min 0,000 mm 0,0 UV-I 0 W/m 14,3 C 19,7 C 9,7 km/h (2 Bft) 94,34 %
16.06.2017 02:58 19,7 C 25,0 C 72 % 1013,1 hPa 0,0 l/m 8,9 km/h (2 Bft) SW 236 0 min 0,000 mm 0,0 UV-I 0 W/m 14,5 C 18,7 C 16,1 km/h (3 Bft) 90,24 %
16.06.2017 03:00 19,8 C 25,0 C 73 % 1012,9 hPa 0,0 l/m 8,9 km/h (2 Bft) W-SW 239 0 min 0,025 mm 0,0 UV-I 0 W/m 14,8 C 18,8 C 16,1 km/h (3 Bft) 96,00 %
16.06.2017 03:02 19,7 C 25,0 C 74 % 1012,9 hPa 0,0 l/m 2,5 km/h (1 Bft) NW 321 0 min 0,000 mm 0,0 UV-I 0 W/m 14,9 C 19,7 C 4,8 km/h (1 Bft) 96,00 %
16.06.2017 03:04 19,7 C 25,0 C 74 % 1012,8 hPa 0,0 l/m 5,0 km/h (1 Bft) NW 321 0 min 0,000 mm 0,0 UV-I 0 W/m 14,9 C 19,7 C 9,7 km/h (2 Bft) 97,37 %
16.06.2017 03:06 19,6 C 25,0 C 76 % 1012,8 hPa 0,0 l/m 1,8 km/h (1 Bft) W 263 0 min 0,000 mm 0,0 UV-I 0 W/m 15,2 C 19,6 C 4,8 km/h (1 Bft) 98,00 %
16.06.2017 03:08 19,5 C 25,0 C 78 % 1012,9 hPa 0,0 l/m 1,6 km/h (1 Bft) NW 305 0 min 0,000 mm 0,0 UV-I 0 W/m 15,6 C 19,5 C 3,2 km/h (1 Bft) 98,11 %
16.06.2017 03:10 19,3 C 25,0 C 79 % 1012,9 hPa 0,0 l/m 0,1 km/h (0 Bft) NW 305 0 min 0,000 mm 0,0 UV-I 0 W/m 15,6 C 19,3 C 1,6 km/h (1 Bft) 100,00 %
16.06.2017 03:12 19,2 C 25,0 C 79 % 1013,0 hPa 0,0 l/m 0,8 km/h (0 Bft) NW 313 0 min 0,000 mm 0,0 UV-I 0 W/m 15,5 C 19,2 C 3,2 km/h (1 Bft) 98,11 %
16.06.2017 03:14 19,1 C 25,0 C 79 % 1013,0 hPa 0,0 l/m 1,2 km/h (1 Bft) NW 313 0 min 0,000 mm 0,0 UV-I 0 W/m 15,4 C 19,1 C 4,8 km/h (1 Bft) 94,74 %
16.06.2017 03:16 18,9 C 25,0 C 80 % 1013,0 hPa 0,0 l/m 0,7 km/h (0 Bft) NW 313 0 min 0,000 mm 0,0 UV-I 0 W/m 15,4 C 18,9 C 3,2 km/h (1 Bft) 96,00 %
16.06.2017 03:18 18,8 C 25,0 C 80 % 1013,0 hPa 0,0 l/m 1,1 km/h (1 Bft) W-NW 296 0 min 0,000 mm 0,0 UV-I 0 W/m 15,3 C 18,8 C 3,2 km/h (1 Bft) 97,87 %
16.06.2017 03:20 18,7 C 25,0 C 81 % 1013,0 hPa 0,0 l/m 0,4 km/h (0 Bft) NW 306 0 min 0,000 mm 0,0 UV-I 0 W/m 15,4 C 18,7 C 1,6 km/h (1 Bft) 98,11 %
16.06.2017 03:22 18,7 C 25,0 C 81 % 1013,0 hPa 0,0 l/m 0,0 km/h (0 Bft) NW 306 0 min 0,000 mm 0,0 UV-I 0 W/m 15,4 C 18,7 C 0,0 km/h (0 Bft) 95,74 %
16.06.2017 03:24 18,6 C 25,0 C 83 % 1013,0 hPa 0,2 l/m 6,2 km/h (2 Bft) W-SW 254 0 min 0,000 mm 0,0 UV-I 0 W/m 15,7 C 18,6 C 12,9 km/h (3 Bft) 97,56 %
16.06.2017 03:26 18,7 C 25,0 C 83 % 1013,1 hPa 0,0 l/m 5,4 km/h (1 Bft) W 267 0 min 0,000 mm 0,0 UV-I 0 W/m 15,8 C 18,7 C 11,3 km/h (2 Bft) 96,23 %
16.06.2017 03:28 18,8 C 25,0 C 83 % 1013,1 hPa 0,0 l/m 9,3 km/h (2 Bft) W-SW 244 0 min 0,000 mm 0,0 UV-I 0 W/m 15,8 C 17,6 C 17,7 km/h (3 Bft) 100,00 %
16.06.2017 03:30 18,8 C 25,0 C 83 % 1013,1 hPa 0,0 l/m 6,4 km/h (2 Bft) W-NW 284 0 min 0,000 mm 0,0 UV-I 0 W/m 15,8 C 18,8 C 11,3 km/h (2 Bft) 96,00 %
16.06.2017 03:32 18,9 C 25,0 C 84 % 1013,1 hPa 0,0 l/m 8,0 km/h (2 Bft) W 260 0 min 0,000 mm 0,0 UV-I 0 W/m 16,1 C 18,2 C 14,5 km/h (3 Bft) 97,87 %
16.06.2017 03:34 18,9 C 25,0 C 84 % 1013,1 hPa 0,0 l/m 10,3 km/h (2 Bft) W-SW 246 0 min 0,000 mm 0,0 UV-I 0 W/m 16,1 C 17,3 C 17,7 km/h (3 Bft) 98,00 %
16.06.2017 03:36 18,9 C 25,0 C 85 % 1013,2 hPa 0,0 l/m 8,5 km/h (2 Bft) W-SW 250 0 min 0,000 mm 0,0 UV-I 0 W/m 16,3 C 18,0 C 14,5 km/h (3 Bft) 97,44 %
16.06.2017 03:38 18,9 C 25,0 C 85 % 1013,1 hPa 0,0 l/m 4,9 km/h (1 Bft) W 279 0 min 0,000 mm 0,0 UV-I 0 W/m 16,3 C 18,9 C 11,3 km/h (2 Bft) 96,23 %
16.06.2017 03:40 18,9 C 25,0 C 85 % 1013,1 hPa 0,0 l/m 4,0 km/h (1 Bft) W 264 0 min 0,000 mm 0,0 UV-I 0 W/m 16,3 C 18,9 C 9,7 km/h (2 Bft) 100,00 %
16.06.2017 03:42 18,8 C 25,0 C 85 % 1013,0 hPa 0,2 l/m 5,5 km/h (1 Bft) W 261 0 min 0,000 mm 0,0 UV-I 0 W/m 16,2 C 18,8 C 16,1 km/h (3 Bft) 96,15 %
16.06.2017 03:44 18,8 C 25,0 C 85 % 1013,0 hPa 0,0 l/m 1,4 km/h (1 Bft) W-SW 258 0 min 0,000 mm 0,0 UV-I 0 W/m 16,2 C 18,8 C 4,8 km/h (1 Bft) 100,00 %
16.06.2017 03:46 18,8 C 25,0 C 85 % 1013,1 hPa 0,0 l/m 2,3 km/h (1 Bft) SW 234 0 min 0,000 mm 0,0 UV-I 0 W/m 16,2 C 18,8 C 4,8 km/h (1 Bft) 100,00 %
16.06.2017 03:48 18,9 C 25,0 C 85 % 1013,1 hPa 0,0 l/m 4,1 km/h (1 Bft) W 273 0 min 0,000 mm 0,0 UV-I 0 W/m 16,3 C 18,9 C 6,4 km/h (2 Bft) 100,00 %
16.06.2017 03:50 18,9 C 25,0 C 85 % 1013,1 hPa 0,0 l/m 2,4 km/h (1 Bft) W 279 0 min 0,000 mm 0,0 UV-I 0 W/m 16,3 C 18,9 C 4,8 km/h (1 Bft) 98,00 %
16.06.2017 03:52 18,9 C 25,0 C 85 % 1013,1 hPa 0,0 l/m 1,1 km/h (1 Bft) W 279 0 min 0,000 mm 0,0 UV-I 0 W/m 16,3 C 18,9 C 3,2 km/h (1 Bft) 98,00 %
16.06.2017 03:54 18,9 C 25,0 C 85 % 1013,3 hPa 0,0 l/m 1,8 km/h (1 Bft) W 273 0 min 0,000 mm 0,0 UV-I 0 W/m 16,3 C 18,9 C 4,8 km/h (1 Bft) 97,37 %
16.06.2017 03:56 18,9 C 25,0 C 85 % 1013,3 hPa 0,0 l/m 2,1 km/h (1 Bft) W 273 0 min 0,000 mm 0,0 UV-I 0 W/m 16,3 C 18,9 C 3,2 km/h (1 Bft) 100,00 %
16.06.2017 03:58 18,9 C 25,0 C 85 % 1013,4 hPa 0,0 l/m 2,5 km/h (1 Bft) W 273 0 min 0,000 mm 0,0 UV-I 0 W/m 16,3 C 18,9 C 4,8 km/h (1 Bft) 97,56 %
16.06.2017 04:00 18,8 C 25,0 C 86 % 1013,3 hPa 0,0 l/m 2,0 km/h (1 Bft) W 273 0 min 0,026 mm 0,0 UV-I 0 W/m 16,4 C 18,8 C 3,2 km/h (1 Bft) 100,00 %
16.06.2017 04:02 18,8 C 25,0 C 86 % 1013,4 hPa 0,0 l/m 0,7 km/h (0 Bft) W 273 0 min 0,000 mm 0,0 UV-I 0 W/m 16,4 C 18,8 C 3,2 km/h (1 Bft) 98,11 %
16.06.2017 04:04 18,8 C 25,0 C 86 % 1013,4 hPa 0,0 l/m 0,0 km/h (0 Bft) W 273 0 min 0,000 mm 0,0 UV-I 0 W/m 16,4 C 18,8 C 0,0 km/h (0 Bft) 93,33 %
16.06.2017 04:06 18,8 C 25,0 C 86 % 1013,4 hPa 0,0 l/m 0,0 km/h (0 Bft) W 273 0 min 0,000 mm 0,0 UV-I 0 W/m 16,4 C 18,8 C 0,0 km/h (0 Bft) 97,87 %
16.06.2017 04:08 18,8 C 25,0 C 86 % 1013,4 hPa 0,0 l/m 0,1 km/h (0 Bft) W 274 0 min 0,000 mm 0,0 UV-I 0 W/m 16,4 C 18,8 C 1,6 km/h (1 Bft) 100,00 %
16.06.2017 04:10 18,8 C 25,0 C 86 % 1013,4 hPa 0,0 l/m 0,3 km/h (0 Bft) S 188 0 min 0,000 mm 0,0 UV-I 0 W/m 16,4 C 18,8 C 3,2 km/h (1 Bft) 97,22 %
16.06.2017 04:12 18,7 C 25,0 C 87 % 1013,5 hPa 0,0 l/m 4,4 km/h (1 Bft) SO 126 0 min 0,000 mm 0,0 UV-I 0 W/m 16,5 C 18,7 C 6,4 km/h (2 Bft) 100,00 %
16.06.2017 04:14 18,6 C 25,0 C 87 % 1013,5 hPa 0,0 l/m 2,9 km/h (1 Bft) SO 126 0 min 0,000 mm 0,0 UV-I 0 W/m 16,4 C 18,6 C 4,8 km/h (1 Bft) 97,87 %
16.06.2017 04:16 18,5 C 25,0 C 88 % 1013,5 hPa 0,0 l/m 2,4 km/h (1 Bft) SO 126 0 min 0,000 mm 0,0 UV-I 0 W/m 16,5 C 18,5 C 3,2 km/h (1 Bft) 94,34 %
16.06.2017 04:18 18,4 C 25,0 C 89 % 1013,5 hPa 0,0 l/m 3,7 km/h (1 Bft) O-SO 117 0 min 0,000 mm 0,0 UV-I 0 W/m 16,6 C 18,4 C 6,4 km/h (2 Bft) 97,37 %
16.06.2017 04:20 18,3 C 25,0 C 89 % 1013,5 hPa 0,0 l/m 4,7 km/h (1 Bft) O-SO 120 0 min 0,000 mm 0,0 UV-I 0 W/m 16,5 C 18,3 C 9,7 km/h (2 Bft) 96,43 %
16.06.2017 04:22 18,3 C 25,0 C 89 % 1013,5 hPa 0,0 l/m 7,2 km/h (2 Bft) O-SO 113 0 min 0,000 mm 0,0 UV-I 0 W/m 16,5 C 17,9 C 11,3 km/h (2 Bft) 93,18 %
16.06.2017 04:24 18,2 C 25,0 C 89 % 1013,5 hPa 0,0 l/m 4,1 km/h (1 Bft) SO 142 0 min 0,000 mm 0,0 UV-I 0 W/m 16,4 C 18,2 C 8,0 km/h (2 Bft) 97,56 %
16.06.2017 04:26 18,2 C 25,0 C 89 % 1013,5 hPa 0,0 l/m 3,5 km/h (1 Bft) SO 138 0 min 0,000 mm 0,0 UV-I 0 W/m 16,4 C 18,2 C 6,4 km/h (2 Bft) 96,00 %
16.06.2017 04:28 18,1 C 25,0 C 90 % 1013,4 hPa 0,0 l/m 4,1 km/h (1 Bft) SO 131 0 min 0,000 mm 0,0 UV-I 0 W/m 16,4 C 18,1 C 6,4 km/h (2 Bft) 96,23 %
16.06.2017 04:30 18,1 C 25,0 C 90 % 1013,4 hPa 0,0 l/m 5,2 km/h (1 Bft) O-SO 122 0 min 0,000 mm 0,0 UV-I 0 W/m 16,4 C 18,1 C 9,7 km/h (2 Bft) 97,14 %
16.06.2017 04:32 18,1 C 25,0 C 90 % 1013,4 hPa 0,0 l/m 3,1 km/h (1 Bft) SO 132 0 min 0,000 mm 0,0 UV-I 0 W/m 16,4 C 18,1 C 6,4 km/h (2 Bft) 96,00 %
16.06.2017 04:34 18,1 C 25,0 C 90 % 1013,4 hPa 0,0 l/m 3,2 km/h (1 Bft) SO 131 0 min 0,000 mm 0,0 UV-I 0 W/m 16,4 C 18,1 C 4,8 km/h (1 Bft) 95,74 %
16.06.2017 04:36 18,1 C 25,0 C 90 % 1013,4 hPa 0,0 l/m 3,0 km/h (1 Bft) SO 131 0 min 0,000 mm 0,0 UV-I 0 W/m 16,4 C 18,1 C 4,8 km/h (1 Bft) 97,87 %
16.06.2017 04:38 18,0 C 25,0 C 90 % 1013,4 hPa 0,0 l/m 4,7 km/h (1 Bft) SO 129 0 min 0,000 mm 0,0 UV-I 0 W/m 16,3 C 18,0 C 6,4 km/h (2 Bft) 96,00 %
16.06.2017 04:40 18,0 C 25,0 C 90 % 1013,4 hPa 0,0 l/m 3,7 km/h (1 Bft) SO 126 0 min 0,000 mm 0,0 UV-I 0 W/m 16,3 C 18,0 C 6,4 km/h (2 Bft) 96,00 %
16.06.2017 04:42 17,9 C 25,0 C 90 % 1013,4 hPa 0,0 l/m 4,3 km/h (1 Bft) SO 126 0 min 0,000 mm 0,0 UV-I 0 W/m 16,2 C 17,9 C 6,4 km/h (2 Bft) 97,37 %
16.06.2017 04:44 17,9 C 25,0 C 89 % 1013,4 hPa 0,0 l/m 4,3 km/h (1 Bft) SO 126 0 min 0,000 mm 0,0 UV-I 0 W/m 16,1 C 17,9 C 6,4 km/h (2 Bft) 98,00 %
16.06.2017 04:46 17,9 C 25,0 C 90 % 1013,4 hPa 0,0 l/m 2,1 km/h (1 Bft) SO 130 0 min 0,000 mm 0,0 UV-I 0 W/m 16,2 C 17,9 C 6,4 km/h (2 Bft) 94,44 %
16.06.2017 04:48 17,9 C 25,0 C 90 % 1013,4 hPa 0,0 l/m 2,9 km/h (1 Bft) SO 142 0 min 0,000 mm 0,0 UV-I 0 W/m 16,2 C 17,9 C 4,8 km/h (1 Bft) 95,31 %
16.06.2017 04:50 17,9 C 25,0 C 90 % 1013,3 hPa 0,0 l/m 3,4 km/h (1 Bft) SO 144 0 min 0,000 mm 0,0 UV-I 0 W/m 16,2 C 17,9 C 6,4 km/h (2 Bft) 100,00 %
16.06.2017 04:52 17,9 C 25,0 C 90 % 1013,3 hPa 0,0 l/m 2,3 km/h (1 Bft) SO 144 0 min 0,000 mm 0,0 UV-I 0 W/m 16,2 C 17,9 C 4,8 km/h (1 Bft) 96,23 %
16.06.2017 04:54 17,9 C 25,0 C 90 % 1013,3 hPa 0,0 l/m 0,4 km/h (0 Bft) SO 144 0 min 0,000 mm 0,0 UV-I 0 W/m 16,2 C 17,9 C 3,2 km/h (1 Bft) 100,00 %
16.06.2017 04:56 17,9 C 25,0 C 90 % 1013,3 hPa 0,0 l/m 2,7 km/h (1 Bft) SO 144 0 min 0,000 mm 0,0 UV-I 3 W/m 16,2 C 17,9 C 4,8 km/h (1 Bft) 100,00 %
16.06.2017 04:58 17,9 C 25,0 C 90 % 1013,2 hPa 0,0 l/m 1,5 km/h (1 Bft) SO 144 0 min 0,000 mm 0,0 UV-I 5 W/m 16,2 C 17,9 C 3,2 km/h (1 Bft) 100,00 %
16.06.2017 05:00 17,9 C 25,0 C 90 % 1013,3 hPa 0,0 l/m 2,1 km/h (1 Bft) SO 144 0 min 0,000 mm 0,0 UV-I 5 W/m 16,2 C 17,9 C 4,8 km/h (1 Bft) 97,87 %
16.06.2017 05:02 17,9 C 25,0 C 90 % 1013,3 hPa 0,0 l/m 0,7 km/h (0 Bft) SO 144 0 min 0,000 mm 0,0 UV-I 5 W/m 16,2 C 17,9 C 3,2 km/h (1 Bft) 97,56 %
16.06.2017 05:04 17,9 C 25,0 C 90 % 1013,3 hPa 0,0 l/m 1,1 km/h (1 Bft) SO 144 0 min 0,000 mm 0,0 UV-I 5 W/m 16,2 C 17,9 C 3,2 km/h (1 Bft) 100,00 %
16.06.2017 05:06 17,9 C 25,0 C 91 % 1013,4 hPa 0,0 l/m 1,2 km/h (1 Bft) SO 144 0 min 0,000 mm 0,0 UV-I 5 W/m 16,4 C 17,9 C 4,8 km/h (1 Bft) 98,46 %
16.06.2017 05:08 17,9 C 25,0 C 90 % 1013,3 hPa 0,0 l/m 1,2 km/h (1 Bft) SO 144 0 min 0,000 mm 0,0 UV-I 5 W/m 16,2 C 17,9 C 3,2 km/h (1 Bft) 94,34 %
16.06.2017 05:10 18,0 C 25,0 C 91 % 1013,4 hPa 0,0 l/m 0,4 km/h (0 Bft) SO 144 0 min 0,000 mm 0,0 UV-I 5 W/m 16,5 C 18,0 C 1,6 km/h (1 Bft) 100,00 %
16.06.2017 05:12 17,9 C 25,0 C 90 % 1013,4 hPa 0,0 l/m 1,8 km/h (1 Bft) SO 146 0 min 0,000 mm 0,0 UV-I 5 W/m 16,2 C 17,9 C 3,2 km/h (1 Bft) 96,00 %
16.06.2017 05:14 17,9 C 25,0 C 90 % 1013,5 hPa 0,0 l/m 0,0 km/h (0 Bft) SO 146 0 min 0,000 mm 0,0 UV-I 6 W/m 16,2 C 17,9 C 0,0 km/h (0 Bft) 97,96 %
16.06.2017 05:16 17,9 C 25,0 C 91 % 1013,4 hPa 0,0 l/m 0,0 km/h (0 Bft) SO 146 0 min 0,000 mm 0,0 UV-I 7 W/m 16,4 C 17,9 C 0,0 km/h (0 Bft) 100,00 %
16.06.2017 05:18 17,9 C 25,0 C 91 % 1013,5 hPa 0,0 l/m 0,0 km/h (0 Bft) SO 146 0 min 0,000 mm 0,0 UV-I 9 W/m 16,4 C 17,9 C 0,0 km/h (0 Bft) 92,00 %
16.06.2017 05:20 17,9 C 25,0 C 91 % 1013,4 hPa 0,0 l/m 0,0 km/h (0 Bft) SO 146 0 min 0,000 mm 0,0 UV-I 10 W/m 16,4 C 17,9 C 1,6 km/h (1 Bft) 97,56 %
16.06.2017 05:22 17,9 C 25,0 C 91 % 1013,4 hPa 0,0 l/m 0,3 km/h (0 Bft) SO 146 0 min 0,000 mm 0,0 UV-I 12 W/m 16,4 C 17,9 C 3,2 km/h (1 Bft) 95,74 %
16.06.2017 05:24 17,9 C 25,0 C 92 % 1013,4 hPa 0,0 l/m 0,3 km/h (0 Bft) SO 146 0 min 0,000 mm 0,0 UV-I 12 W/m 16,6 C 17,9 C 1,6 km/h (1 Bft) 95,45 %
16.06.2017 05:26 17,9 C 25,0 C 91 % 1013,3 hPa 0,0 l/m 0,0 km/h (0 Bft) SO 146 0 min 0,000 mm 0,0 UV-I 12 W/m 16,4 C 17,9 C 0,0 km/h (0 Bft) 100,00 %
16.06.2017 05:28 17,8 C 25,0 C 92 % 1013,3 hPa 0,0 l/m 0,0 km/h (0 Bft) SO 146 0 min 0,000 mm 0,0 UV-I 12 W/m 16,5 C 17,8 C 1,6 km/h (1 Bft) 97,92 %
16.06.2017 05:30 17,8 C 25,0 C 92 % 1013,3 hPa 0,0 l/m 0,4 km/h (0 Bft) SO 146 0 min 0,000 mm 0,0 UV-I 12 W/m 16,5 C 17,8 C 1,6 km/h (1 Bft) 100,00 %
16.06.2017 05:32 17,8 C 25,0 C 92 % 1013,4 hPa 0,0 l/m 0,0 km/h (0 Bft) SO 146 0 min 0,000 mm 0,0 UV-I 12 W/m 16,5 C 17,8 C 0,0 km/h (0 Bft) 100,00 %
16.06.2017 05:34 17,8 C 25,0 C 92 % 1013,4 hPa 0,0 l/m 0,0 km/h (0 Bft) SO 146 0 min 0,000 mm 0,0 UV-I 12 W/m 16,5 C 17,8 C 0,0 km/h (0 Bft) 100,00 %
16.06.2017 05:36 17,7 C 25,0 C 92 % 1013,3 hPa 0,0 l/m 0,0 km/h (0 Bft) SO 146 0 min 0,000 mm 0,0 UV-I 12 W/m 16,4 C 17,7 C 0,0 km/h (0 Bft) 97,87 %
16.06.2017 05:38 17,7 C 25,0 C 92 % 1013,3 hPa 0,0 l/m 0,5 km/h (0 Bft) SO 146 0 min 0,000 mm 0,0 UV-I 13 W/m 16,4 C 17,7 C 1,6 km/h (1 Bft) 97,37 %
16.06.2017 05:40 17,7 C 25,0 C 92 % 1013,3 hPa 0,0 l/m 0,0 km/h (0 Bft) SO 146 0 min 0,000 mm 0,0 UV-I 14 W/m 16,4 C 17,7 C 0,0 km/h (0 Bft) 97,87 %
16.06.2017 05:42 17,7 C 25,0 C 92 % 1013,4 hPa 0,0 l/m 0,0 km/h (0 Bft) SO 146 0 min 0,000 mm 0,0 UV-I 18 W/m 16,4 C 17,7 C 1,6 km/h (1 Bft) 95,74 %
16.06.2017 05:44 17,7 C 25,0 C 92 % 1013,4 hPa 0,0 l/m 0,2 km/h (0 Bft) SO 146 0 min 0,000 mm 0,0 UV-I 23 W/m 16,4 C 17,7 C 1,6 km/h (1 Bft) 97,87 %
16.06.2017 05:46 17,7 C 25,0 C 92 % 1013,4 hPa 0,0 l/m 0,0 km/h (0 Bft) SO 146 0 min 0,000 mm 0,0 UV-I 27 W/m 16,4 C 17,7 C 0,0 km/h (0 Bft) 97,87 %
16.06.2017 05:48 17,7 C 25,0 C 92 % 1013,3 hPa 0,0 l/m 0,0 km/h (0 Bft) SO 146 0 min 0,000 mm 0,0 UV-I 30 W/m 16,4 C 17,7 C 0,0 km/h (0 Bft) 100,00 %
16.06.2017 05:50 17,8 C 25,0 C 93 % 1013,3 hPa 0,0 l/m 0,0 km/h (0 Bft) SO 146 0 min 0,000 mm 0,0 UV-I 38 W/m 16,7 C 17,8 C 1,6 km/h (1 Bft) 94,00 %
16.06.2017 05:52 17,8 C 25,0 C 93 % 1013,3 hPa 0,0 l/m 1,3 km/h (1 Bft) SO 146 0 min 0,000 mm 0,0 UV-I 42 W/m 16,7 C 17,8 C 3,2 km/h (1 Bft) 95,74 %
16.06.2017 05:54 17,9 C 25,0 C 92 % 1013,3 hPa 0,0 l/m 0,4 km/h (0 Bft) SO 146 0 min 0,000 mm 0,0 UV-I 48 W/m 16,6 C 17,9 C 1,6 km/h (1 Bft) 97,73 %
16.06.2017 05:56 17,9 C 25,0 C 92 % 1013,3 hPa 0,0 l/m 1,5 km/h (1 Bft) S-SO 163 2 min 0,000 mm 0,0 UV-I 66 W/m 16,6 C 17,9 C 8,0 km/h (2 Bft) 98,00 %
16.06.2017 05:58 17,9 C 25,0 C 92 % 1013,3 hPa 0,0 l/m 1,4 km/h (1 Bft) S-SO 163 2 min 0,000 mm 0,0 UV-I 84 W/m 16,6 C 17,9 C 3,2 km/h (1 Bft) 94,74 %
16.06.2017 06:00 17,9 C 25,0 C 92 % 1013,3 hPa 0,0 l/m 1,4 km/h (1 Bft) S-SO 163 2 min 0,025 mm 0,0 UV-I 81 W/m 16,6 C 17,9 C 3,2 km/h (1 Bft) 98,00 %
16.06.2017 06:02 18,1 C 25,0 C 92 % 1013,3 hPa 0,0 l/m 0,1 km/h (0 Bft) S-SO 163 2 min 0,000 mm 0,0 UV-I 96 W/m 16,8 C 18,1 C 1,6 km/h (1 Bft) 96,23 %
16.06.2017 06:04 18,2 C 25,0 C 92 % 1013,3 hPa 0,0 l/m 1,0 km/h (0 Bft) S-SO 163 2 min 0,000 mm 0,0 UV-I 109 W/m 16,9 C 18,2 C 3,2 km/h (1 Bft) 97,37 %
16.06.2017 06:06 18,3 C 25,0 C 92 % 1013,4 hPa 0,0 l/m 3,7 km/h (1 Bft) S-SO 164 2 min 0,000 mm 0,0 UV-I 98 W/m 17,0 C 18,3 C 6,4 km/h (2 Bft) 94,00 %
16.06.2017 06:08 18,3 C 25,0 C 91 % 1013,4 hPa 0,0 l/m 4,1 km/h (1 Bft) S 171 2 min 0,000 mm 0,0 UV-I 83 W/m 16,8 C 18,3 C 6,4 km/h (2 Bft) 97,44 %
16.06.2017 06:10 18,3 C 25,0 C 91 % 1013,3 hPa 0,0 l/m 1,5 km/h (1 Bft) S 171 0 min 0,000 mm 0,0 UV-I 72 W/m 16,8 C 18,3 C 3,2 km/h (1 Bft) 98,21 %
16.06.2017 06:12 18,3 C 25,0 C 91 % 1013,4 hPa 0,0 l/m 0,9 km/h (0 Bft) S 171 0 min 0,000 mm 0,0 UV-I 59 W/m 16,8 C 18,3 C 1,6 km/h (1 Bft) 96,00 %
16.06.2017 06:14 18,4 C 25,0 C 91 % 1013,4 hPa 0,0 l/m 1,4 km/h (1 Bft) S 171 0 min 0,000 mm 0,0 UV-I 68 W/m 16,9 C 18,4 C 3,2 km/h (1 Bft) 93,62 %
16.06.2017 06:16 18,4 C 25,0 C 91 % 1013,4 hPa 0,0 l/m 0,3 km/h (0 Bft) S 171 0 min 0,000 mm 0,0 UV-I 62 W/m 16,9 C 18,4 C 1,6 km/h (1 Bft) 97,87 %
16.06.2017 06:18 18,6 C 25,0 C 91 % 1013,5 hPa 0,0 l/m 0,4 km/h (0 Bft) S 171 0 min 0,000 mm 0,0 UV-I 55 W/m 17,1 C 18,6 C 3,2 km/h (1 Bft) 95,74 %
16.06.2017 06:20 18,7 C 25,0 C 90 % 1013,5 hPa 0,0 l/m 2,0 km/h (1 Bft) S 171 0 min 0,000 mm 0,0 UV-I 46 W/m 17,0 C 18,7 C 3,2 km/h (1 Bft) 92,68 %
16.06.2017 06:22 18,7 C 25,0 C 90 % 1013,5 hPa 0,0 l/m 1,9 km/h (1 Bft) S 171 0 min 0,000 mm 0,0 UV-I 36 W/m 17,0 C 18,7 C 3,2 km/h (1 Bft) 96,23 %
16.06.2017 06:24 18,8 C 25,0 C 90 % 1013,6 hPa 0,0 l/m 1,8 km/h (1 Bft) S 171 0 min 0,000 mm 0,0 UV-I 35 W/m 17,1 C 18,8 C 3,2 km/h (1 Bft) 91,30 %
16.06.2017 06:26 18,8 C 25,0 C 90 % 1013,5 hPa 0,0 l/m 1,0 km/h (0 Bft) S 171 0 min 0,000 mm 0,0 UV-I 46 W/m 17,1 C 18,8 C 3,2 km/h (1 Bft) 95,16 %
16.06.2017 06:28 18,7 C 25,0 C 89 % 1013,5 hPa 0,0 l/m 2,6 km/h (1 Bft) S 171 0 min 0,000 mm 0,0 UV-I 43 W/m 16,8 C 18,7 C 6,4 km/h (2 Bft) 93,62 %
16.06.2017 06:30 18,7 C 25,0 C 90 % 1013,5 hPa 0,0 l/m 1,9 km/h (1 Bft) S 171 0 min 0,000 mm 0,0 UV-I 32 W/m 17,0 C 18,7 C 6,4 km/h (2 Bft) 96,00 %
16.06.2017 06:32 18,7 C 25,0 C 90 % 1013,5 hPa 0,0 l/m 0,7 km/h (0 Bft) S 171 0 min 0,000 mm 0,0 UV-I 40 W/m 17,0 C 18,7 C 3,2 km/h (1 Bft) 92,00 %
16.06.2017 06:34 18,7 C 25,0 C 90 % 1013,5 hPa 0,0 l/m 0,4 km/h (0 Bft) S 171 0 min 0,000 mm 0,0 UV-I 61 W/m 17,0 C 18,7 C 3,2 km/h (1 Bft) 92,68 %
16.06.2017 06:36 18,8 C 25,0 C 90 % 1013,4 hPa 0,0 l/m 0,4 km/h (0 Bft) S 171 0 min 0,000 mm 0,0 UV-I 71 W/m 17,1 C 18,8 C 1,6 km/h (1 Bft) 93,62 %
16.06.2017 06:38 18,8 C 25,0 C 90 % 1013,4 hPa 0,0 l/m 0,0 km/h (0 Bft) S 171 0 min 0,000 mm 0,0 UV-I 71 W/m 17,1 C 18,8 C 0,0 km/h (0 Bft) 95,74 %
16.06.2017 06:40 18,9 C 25,0 C 90 % 1013,3 hPa 0,0 l/m 0,0 km/h (0 Bft) S 171 0 min 0,000 mm 0,0 UV-I 54 W/m 17,2 C 18,9 C 0,0 km/h (0 Bft) 93,62 %
16.06.2017 06:42 18,9 C 25,0 C 90 % 1013,3 hPa 0,0 l/m 0,0 km/h (0 Bft) S 171 0 min 0,000 mm 0,0 UV-I 61 W/m 17,2 C 18,9 C 0,0 km/h (0 Bft) 96,00 %
16.06.2017 06:44 19,1 C 25,0 C 89 % 1013,3 hPa 0,0 l/m 1,0 km/h (0 Bft) S 171 0 min 0,000 mm 0,0 UV-I 75 W/m 17,2 C 19,1 C 3,2 km/h (1 Bft) 95,74 %
16.06.2017 06:46 19,2 C 25,0 C 88 % 1013,4 hPa 0,0 l/m 2,7 km/h (1 Bft) S 171 0 min 0,000 mm 0,0 UV-I 90 W/m 17,2 C 19,2 C 6,4 km/h (2 Bft) 95,74 %
16.06.2017 06:48 19,3 C 25,0 C 88 % 1013,4 hPa 0,0 l/m 2,7 km/h (1 Bft) S 171 0 min 0,000 mm 0,0 UV-I 98 W/m 17,3 C 19,3 C 6,4 km/h (2 Bft) 91,49 %
16.06.2017 06:50 19,4 C 25,0 C 88 % 1013,4 hPa 0,0 l/m 3,2 km/h (1 Bft) S 171 0 min 0,000 mm 0,0 UV-I 92 W/m 17,4 C 19,4 C 6,4 km/h (2 Bft) 95,83 %
16.06.2017 06:52 19,4 C 25,0 C 88 % 1013,4 hPa 0,0 l/m 4,3 km/h (1 Bft) S 173 0 min 0,000 mm 0,0 UV-I 70 W/m 17,4 C 19,4 C 6,4 km/h (2 Bft) 98,00 %
16.06.2017 06:54 19,4 C 25,0 C 88 % 1013,6 hPa 0,0 l/m 4,4 km/h (1 Bft) SW 232 0 min 0,000 mm 0,0 UV-I 50 W/m 17,4 C 19,4 C 6,4 km/h (2 Bft) 100,00 %
16.06.2017 06:56 19,5 C 25,0 C 88 % 1013,6 hPa 0,0 l/m 3,3 km/h (1 Bft) SW 232 0 min 0,000 mm 0,0 UV-I 67 W/m 17,5 C 19,5 C 4,8 km/h (1 Bft) 100,00 %
16.06.2017 06:58 19,4 C 25,0 C 88 % 1013,7 hPa 0,0 l/m 3,1 km/h (1 Bft) SW 230 0 min 0,000 mm 0,0 UV-I 51 W/m 17,4 C 19,4 C 4,8 km/h (1 Bft) 96,00 %
16.06.2017 07:00 19,4 C 25,0 C 88 % 1013,7 hPa 0,0 l/m 3,7 km/h (1 Bft) SW 232 0 min 0,051 mm 0,0 UV-I 51 W/m 17,4 C 19,4 C 6,4 km/h (2 Bft) 100,00 %
16.06.2017 07:02 19,3 C 25,0 C 89 % 1013,8 hPa 0,0 l/m 7,4 km/h (2 Bft) W-SW 257 0 min 0,000 mm 0,0 UV-I 52 W/m 17,4 C 18,9 C 14,5 km/h (3 Bft) 100,00 %
16.06.2017 07:04 19,3 C 25,0 C 89 % 1013,7 hPa 0,0 l/m 12,0 km/h (2 Bft) SW 224 0 min 0,000 mm 0,0 UV-I 61 W/m 17,4 C 17,2 C 20,9 km/h (4 Bft) 100,00 %
16.06.2017 07:06 19,3 C 25,0 C 88 % 1013,9 hPa 0,0 l/m 16,6 km/h (3 Bft) W-SW 238 0 min 0,000 mm 0,0 UV-I 50 W/m 17,3 C 16,0 C 24,1 km/h (4 Bft) 100,00 %
16.06.2017 07:08 19,3 C 25,0 C 87 % 1014,0 hPa 0,0 l/m 13,5 km/h (3 Bft) W-SW 257 0 min 0,000 mm 0,0 UV-I 41 W/m 17,1 C 16,8 C 20,9 km/h (4 Bft) 100,00 %
16.06.2017 07:10 19,3 C 25,0 C 87 % 1013,9 hPa 0,0 l/m 10,7 km/h (2 Bft) W-SW 242 0 min 0,000 mm 0,0 UV-I 37 W/m 17,1 C 17,6 C 14,5 km/h (3 Bft) 100,00 %
16.06.2017 07:12 19,3 C 25,0 C 87 % 1014,0 hPa 0,0 l/m 8,9 km/h (2 Bft) S-SW 213 0 min 0,000 mm 0,0 UV-I 38 W/m 17,1 C 18,3 C 14,5 km/h (3 Bft) 100,00 %
16.06.2017 07:14 19,3 C 24,4 C 87 % 1014,0 hPa 0,0 l/m 9,9 km/h (2 Bft) SW 236 0 min 0,000 mm 0,0 UV-I 52 W/m 17,1 C 17,9 C 16,1 km/h (3 Bft) 97,56 %
16.06.2017 07:16 19,3 C 24,4 C 87 % 1014,1 hPa 0,0 l/m 10,4 km/h (2 Bft) SW 217 0 min 0,000 mm 0,0 UV-I 37 W/m 17,1 C 17,7 C 16,1 km/h (3 Bft) 98,21 %
16.06.2017 07:18 19,3 C 24,4 C 87 % 1014,1 hPa 0,0 l/m 9,0 km/h (2 Bft) W-SW 240 0 min 0,000 mm 0,0 UV-I 46 W/m 17,1 C 18,2 C 14,5 km/h (3 Bft) 100,00 %
16.06.2017 07:20 19,3 C 25,0 C 87 % 1014,0 hPa 0,0 l/m 10,8 km/h (2 Bft) SW 220 0 min 0,000 mm 0,0 UV-I 60 W/m 17,1 C 17,6 C 16,1 km/h (3 Bft) 100,00 %
16.06.2017 07:22 19,3 C 25,0 C 88 % 1014,1 hPa 0,0 l/m 8,2 km/h (2 Bft) W-SW 240 0 min 0,000 mm 0,0 UV-I 74 W/m 17,3 C 18,5 C 12,9 km/h (3 Bft) 100,00 %
16.06.2017 07:24 19,3 C 24,4 C 88 % 1014,1 hPa 0,0 l/m 7,8 km/h (2 Bft) W-SW 242 0 min 0,000 mm 0,0 UV-I 83 W/m 17,3 C 18,7 C 11,3 km/h (2 Bft) 100,00 %
16.06.2017 07:26 19,3 C 24,4 C 87 % 1014,1 hPa 0,0 l/m 8,1 km/h (2 Bft) SW 224 0 min 0,000 mm 0,0 UV-I 88 W/m 17,1 C 18,6 C 12,9 km/h (3 Bft) 100,00 %
16.06.2017 07:28 19,3 C 25,0 C 88 % 1014,1 hPa 0,0 l/m 8,5 km/h (2 Bft) W-SW 250 0 min 0,000 mm 0,0 UV-I 105 W/m 17,3 C 18,4 C 14,5 km/h (3 Bft) 100,00 %
16.06.2017 07:30 19,4 C 24,4 C 88 % 1014,2 hPa 0,0 l/m 9,1 km/h (2 Bft) W-SW 257 0 min 0,000 mm 0,0 UV-I 106 W/m 17,4 C 18,3 C 14,5 km/h (3 Bft) 100,00 %
16.06.2017 07:32 19,4 C 25,0 C 87 % 1014,2 hPa 0,0 l/m 11,1 km/h (2 Bft) W-SW 248 0 min 0,000 mm 0,0 UV-I 100 W/m 17,2 C 17,6 C 14,5 km/h (3 Bft) 100,00 %
16.06.2017 07:34 19,5 C 24,4 C 87 % 1014,2 hPa 0,0 l/m 11,2 km/h (2 Bft) W 263 0 min 0,000 mm 0,0 UV-I 87 W/m 17,3 C 17,7 C 20,9 km/h (4 Bft) 100,00 %
16.06.2017 07:36 19,5 C 24,4 C 87 % 1014,2 hPa 0,0 l/m 12,3 km/h (3 Bft) W-SW 248 0 min 0,000 mm 0,0 UV-I 76 W/m 17,3 C 17,4 C 17,7 km/h (3 Bft) 98,00 %
16.06.2017 07:38 19,6 C 24,4 C 86 % 1014,2 hPa 0,0 l/m 8,1 km/h (2 Bft) SW 232 0 min 0,000 mm 0,0 UV-I 64 W/m 17,2 C 18,9 C 12,9 km/h (3 Bft) 100,00 %
16.06.2017 07:40 19,6 C 24,4 C 87 % 1014,4 hPa 0,0 l/m 12,6 km/h (3 Bft) W-SW 248 0 min 0,000 mm 0,0 UV-I 73 W/m 17,4 C 17,4 C 19,3 km/h (3 Bft) 100,00 %
16.06.2017 07:42 19,6 C 24,4 C 86 % 1014,4 hPa 0,0 l/m 8,9 km/h (2 Bft) SW 236 0 min 0,000 mm 0,0 UV-I 84 W/m 17,2 C 18,6 C 17,7 km/h (3 Bft) 100,00 %
16.06.2017 07:44 19,7 C 24,4 C 86 % 1014,4 hPa 0,0 l/m 10,0 km/h (2 Bft) SW 229 0 min 0,000 mm 0,0 UV-I 77 W/m 17,3 C 18,3 C 16,1 km/h (3 Bft) 97,87 %
16.06.2017 07:46 19,7 C 24,4 C 86 % 1014,4 hPa 0,0 l/m 11,0 km/h (2 Bft) W-SW 251 0 min 0,000 mm 0,0 UV-I 75 W/m 17,3 C 18,0 C 16,1 km/h (3 Bft) 100,00 %
16.06.2017 07:48 19,7 C 24,4 C 85 % 1014,4 hPa 0,0 l/m 13,2 km/h (3 Bft) SW 227 0 min 0,000 mm 0,0 UV-I 77 W/m 17,1 C 17,3 C 20,9 km/h (4 Bft) 97,56 %
16.06.2017 07:50 19,7 C 24,4 C 85 % 1014,4 hPa 0,0 l/m 9,4 km/h (2 Bft) SW 221 0 min 0,000 mm 0,0 UV-I 72 W/m 17,1 C 18,5 C 12,9 km/h (3 Bft) 100,00 %
16.06.2017 07:52 19,7 C 24,4 C 86 % 1014,4 hPa 0,0 l/m 9,8 km/h (2 Bft) SW 222 0 min 0,000 mm 0,5 UV-I 91 W/m 17,3 C 18,4 C 16,1 km/h (3 Bft) 100,00 %
16.06.2017 07:54 19,8 C 24,4 C 86 % 1014,4 hPa 0,0 l/m 13,6 km/h (3 Bft) SW 223 0 min 0,000 mm 0,6 UV-I 125 W/m 17,4 C 17,4 C 17,7 km/h (3 Bft) 100,00 %
16.06.2017 07:56 19,8 C 24,4 C 86 % 1014,4 hPa 0,0 l/m 11,3 km/h (2 Bft) SW 235 0 min 0,000 mm 0,7 UV-I 123 W/m 17,4 C 18,0 C 19,3 km/h (3 Bft) 100,00 %
16.06.2017 07:58 19,8 C 24,4 C 86 % 1014,4 hPa 0,0 l/m 10,8 km/h (2 Bft) SW 231 0 min 0,000 mm 0,7 UV-I 133 W/m 17,4 C 18,2 C 19,3 km/h (3 Bft) 100,00 %
16.06.2017 08:00 19,8 C 24,4 C 85 % 1014,5 hPa 0,0 l/m 11,2 km/h (2 Bft) W-SW 251 0 min 0,076 mm 0,8 UV-I 141 W/m 17,2 C 18,0 C 25,7 km/h (4 Bft) 97,37 %
16.06.2017 08:02 19,8 C 25,0 C 86 % 1014,5 hPa 0,0 l/m 13,4 km/h (3 Bft) W-SW 258 0 min 0,000 mm 0,9 UV-I 183 W/m 17,4 C 17,4 C 20,9 km/h (4 Bft) 96,23 %
16.06.2017 08:04 19,9 C 24,4 C 86 % 1014,6 hPa 0,0 l/m 15,1 km/h (3 Bft) W-SW 238 2 min 0,000 mm 0,9 UV-I 250 W/m 17,5 C 17,1 C 20,9 km/h (4 Bft) 100,00 %
16.06.2017 08:06 20,0 C 24,4 C 86 % 1014,5 hPa 0,0 l/m 11,3 km/h (2 Bft) W-SW 246 2 min 0,000 mm 0,9 UV-I 292 W/m 17,6 C 18,2 C 20,9 km/h (4 Bft) 100,00 %
16.06.2017 08:08 20,2 C 24,4 C 85 % 1014,6 hPa 0,2 l/m 13,9 km/h (3 Bft) W-SW 250 2 min 0,000 mm 1,0 UV-I 353 W/m 17,6 C 17,8 C 19,3 km/h (3 Bft) 100,00 %
16.06.2017 08:10 20,3 C 24,4 C 84 % 1014,5 hPa 0,0 l/m 13,2 km/h (3 Bft) W-SW 242 2 min 0,000 mm 0,9 UV-I 316 W/m 17,5 C 18,1 C 20,9 km/h (4 Bft) 98,04 %
16.06.2017 08:12 20,5 C 24,4 C 83 % 1014,6 hPa 0,0 l/m 14,8 km/h (3 Bft) W 265 2 min 0,000 mm 0,9 UV-I 330 W/m 17,5 C 17,9 C 22,5 km/h (4 Bft) 100,00 %
16.06.2017 08:14 20,6 C 24,4 C 83 % 1014,6 hPa 0,0 l/m 16,8 km/h (3 Bft) W-SW 252 2 min 0,000 mm 0,9 UV-I 277 W/m 17,6 C 17,6 C 27,4 km/h (4 Bft) 100,00 %
16.06.2017 08:16 20,7 C 24,4 C 82 % 1014,7 hPa 0,0 l/m 18,8 km/h (3 Bft) W-SW 245 0 min 0,000 mm 0,8 UV-I 212 W/m 17,5 C 17,3 C 29,0 km/h (5 Bft) 100,00 %
16.06.2017 08:18 20,7 C 24,4 C 82 % 1014,7 hPa 0,0 l/m 12,6 km/h (3 Bft) W-SW 237 0 min 0,000 mm 0,8 UV-I 205 W/m 17,5 C 18,7 C 19,3 km/h (3 Bft) 100,00 %
16.06.2017 08:20 20,7 C 24,4 C 82 % 1014,7 hPa 0,0 l/m 13,0 km/h (3 Bft) W 260 0 min 0,000 mm 0,8 UV-I 205 W/m 17,5 C 18,6 C 20,9 km/h (4 Bft) 94,64 %
16.06.2017 08:22 20,7 C 24,4 C 82 % 1014,7 hPa 0,0 l/m 12,2 km/h (2 Bft) W-SW 238 0 min 0,000 mm 0,9 UV-I 221 W/m 17,5 C 18,8 C 19,3 km/h (3 Bft) 97,87 %
16.06.2017 08:24 20,7 C 25,0 C 82 % 1014,7 hPa 0,0 l/m 16,1 km/h (3 Bft) W 259 0 min 0,000 mm 0,9 UV-I 232 W/m 17,5 C 17,9 C 22,5 km/h (4 Bft) 98,00 %
16.06.2017 08:26 20,7 C 24,4 C 82 % 1014,8 hPa 0,0 l/m 18,1 km/h (3 Bft) W-SW 244 0 min 0,000 mm 0,9 UV-I 229 W/m 17,5 C 17,5 C 27,4 km/h (4 Bft) 94,74 %
16.06.2017 08:28 20,7 C 24,4 C 81 % 1014,7 hPa 0,0 l/m 20,8 km/h (4 Bft) W 259 0 min 0,000 mm 1,0 UV-I 208 W/m 17,3 C 17,0 C 25,7 km/h (4 Bft) 97,73 %
16.06.2017 08:31 20,7 C 24,4 C 81 % 1014,7 hPa 0,0 l/m 14,4 km/h (3 Bft) W-SW 238 0 min 0,000 mm 1,1 UV-I 207 W/m 17,3 C 18,2 C 27,4 km/h (4 Bft) 97,59 %
16.06.2017 08:32 20,7 C 24,4 C 81 % 1014,7 hPa 0,0 l/m 19,1 km/h (3 Bft) W-SW 254 0 min 0,000 mm 1,3 UV-I 279 W/m 17,3 C 17,3 C 24,1 km/h (4 Bft) 95,65 %
16.06.2017 08:34 20,8 C 25,0 C 81 % 1014,7 hPa 0,0 l/m 14,5 km/h (3 Bft) W 263 2 min 0,000 mm 1,4 UV-I 371 W/m 17,4 C 18,3 C 19,3 km/h (3 Bft) 95,45 %
16.06.2017 08:36 20,8 C 24,4 C 81 % 1014,7 hPa 0,0 l/m 11,1 km/h (2 Bft) SW 234 0 min 0,000 mm 1,3 UV-I 269 W/m 17,4 C 19,2 C 19,3 km/h (3 Bft) 97,73 %
16.06.2017 08:38 20,9 C 25,0 C 81 % 1014,8 hPa 0,0 l/m 13,8 km/h (3 Bft) W 266 2 min 0,000 mm 1,4 UV-I 296 W/m 17,5 C 18,6 C 22,5 km/h (4 Bft) 92,68 %
16.06.2017 08:40 21,0 C 25,0 C 81 % 1014,8 hPa 0,0 l/m 12,6 km/h (3 Bft) W-SW 258 2 min 0,000 mm 1,5 UV-I 343 W/m 17,6 C 19,0 C 20,9 km/h (4 Bft) 93,22 %
16.06.2017 08:42 21,1 C 25,0 C 80 % 1014,8 hPa 0,0 l/m 11,5 km/h (2 Bft) SW 236 2 min 0,000 mm 1,7 UV-I 525 W/m 17,5 C 19,4 C 19,3 km/h (3 Bft) 93,18 %
16.06.2017 08:44 21,3 C 25,0 C 80 % 1014,8 hPa 0,0 l/m 17,4 km/h (3 Bft) SW 235 2 min 0,000 mm 1,6 UV-I 618 W/m 17,7 C 18,3 C 25,7 km/h (4 Bft) 93,33 %
16.06.2017 08:46 21,4 C 25,0 C 80 % 1014,7 hPa 0,0 l/m 13,1 km/h (3 Bft) W-SW 240 2 min 0,000 mm 1,8 UV-I 562 W/m 17,8 C 19,4 C 19,3 km/h (3 Bft) 95,12 %
16.06.2017 08:48 21,6 C 25,0 C 79 % 1014,9 hPa 0,0 l/m 14,0 km/h (3 Bft) W 263 2 min 0,000 mm 1,8 UV-I 564 W/m 17,8 C 19,4 C 22,5 km/h (4 Bft) 94,64 %
16.06.2017 08:50 21,7 C 25,0 C 79 % 1014,8 hPa 0,0 l/m 13,0 km/h (3 Bft) W-SW 241 2 min 0,000 mm 1,7 UV-I 542 W/m 17,9 C 19,7 C 20,9 km/h (4 Bft) 95,65 %
16.06.2017 08:52 21,8 C 25,0 C 78 % 1014,8 hPa 0,0 l/m 14,0 km/h (3 Bft) SW 229 2 min 0,000 mm 1,7 UV-I 481 W/m 17,8 C 19,6 C 30,6 km/h (5 Bft) 96,92 %
16.06.2017 08:54 21,7 C 25,0 C 77 % 1014,8 hPa 0,0 l/m 20,8 km/h (4 Bft) W 263 2 min 0,000 mm 1,5 UV-I 355 W/m 17,5 C 18,3 C 32,2 km/h (5 Bft) 96,23 %
16.06.2017 08:56 21,7 C 24,4 C 78 % 1014,8 hPa 0,0 l/m 13,5 km/h (3 Bft) W-SW 254 0 min 0,000 mm 1,2 UV-I 298 W/m 17,7 C 19,6 C 17,7 km/h (3 Bft) 91,43 %
16.06.2017 08:58 21,6 C 24,4 C 77 % 1014,8 hPa 0,0 l/m 13,3 km/h (3 Bft) W 259 0 min 0,000 mm 1,1 UV-I 246 W/m 17,4 C 19,6 C 19,3 km/h (3 Bft) 100,00 %
16.06.2017 09:00 21,5 C 24,4 C 78 % 1014,9 hPa 0,0 l/m 11,1 km/h (2 Bft) W-SW 257 0 min 0,229 mm 1,1 UV-I 246 W/m 17,5 C 20,0 C 17,7 km/h (3 Bft) 98,00 %
16.06.2017 09:02 21,5 C 24,4 C 78 % 1014,9 hPa 0,0 l/m 10,6 km/h (2 Bft) W 259 0 min 0,000 mm 1,0 UV-I 222 W/m 17,5 C 20,1 C 16,1 km/h (3 Bft) 95,12 %
16.06.2017 09:04 21,5 C 24,4 C 78 % 1014,9 hPa 0,0 l/m 16,7 km/h (3 Bft) W-SW 248 0 min 0,000 mm 1,1 UV-I 225 W/m 17,5 C 18,7 C 30,6 km/h (5 Bft) 94,00 %
16.06.2017 09:06 21,4 C 24,4 C 77 % 1014,8 hPa 0,0 l/m 23,0 km/h (4 Bft) W-SW 257 0 min 0,000 mm 1,1 UV-I 239 W/m 17,2 C 17,6 C 32,2 km/h (5 Bft) 97,87 %
16.06.2017 09:08 21,3 C 24,4 C 77 % 1014,8 hPa 0,0 l/m 21,1 km/h (4 Bft) W-SW 252 0 min 0,000 mm 1,2 UV-I 249 W/m 17,1 C 17,7 C 29,0 km/h (5 Bft) 100,00 %
16.06.2017 09:10 21,3 C 24,4 C 78 % 1014,8 hPa 0,0 l/m 15,0 km/h (3 Bft) SW 236 0 min 0,000 mm 1,4 UV-I 285 W/m 17,3 C 18,8 C 24,1 km/h (4 Bft) 97,56 %
16.06.2017 09:12 21,3 C 24,4 C 78 % 1014,8 hPa 0,0 l/m 14,6 km/h (3 Bft) W 269 0 min 0,000 mm 1,4 UV-I 286 W/m 17,3 C 18,9 C 22,5 km/h (4 Bft) 96,00 %
16.06.2017 09:14 21,3 C 24,4 C 79 % 1014,8 hPa 0,0 l/m 17,3 km/h (3 Bft) SW 231 0 min 0,000 mm 1,3 UV-I 280 W/m 17,5 C 18,4 C 25,7 km/h (4 Bft) 100,00 %
16.06.2017 09:16 21,3 C 25,0 C 78 % 1014,8 hPa 0,0 l/m 18,6 km/h (3 Bft) W 275 0 min 0,000 mm 1,3 UV-I 283 W/m 17,3 C 18,1 C 30,6 km/h (5 Bft) 100,00 %
16.06.2017 09:18 21,3 C 24,4 C 78 % 1014,9 hPa 0,0 l/m 15,6 km/h (3 Bft) W 274 0 min 0,000 mm 1,4 UV-I 299 W/m 17,3 C 18,7 C 25,7 km/h (4 Bft) 94,87 %
16.06.2017 09:20 21,4 C 24,4 C 78 % 1014,8 hPa 0,0 l/m 16,0 km/h (3 Bft) W-SW 242 0 min 0,000 mm 1,4 UV-I 292 W/m 17,4 C 18,7 C 25,7 km/h (4 Bft) 96,15 %
16.06.2017 09:22 21,4 C 24,4 C 78 % 1014,8 hPa 0,0 l/m 11,8 km/h (2 Bft) W 271 0 min 0,000 mm 1,3 UV-I 274 W/m 17,4 C 19,7 C 17,7 km/h (3 Bft) 97,44 %
16.06.2017 09:24 21,4 C 24,4 C 78 % 1014,8 hPa 0,0 l/m 11,6 km/h (2 Bft) W 268 0 min 0,000 mm 1,3 UV-I 260 W/m 17,4 C 19,7 C 20,9 km/h (4 Bft) 100,00 %
16.06.2017 09:26 21,4 C 25,0 C 77 % 1014,8 hPa 0,0 l/m 15,8 km/h (3 Bft) W-SW 256 0 min 0,000 mm 1,2 UV-I 253 W/m 17,2 C 18,8 C 32,2 km/h (5 Bft) 97,73 %
16.06.2017 09:28 21,4 C 24,4 C 78 % 1014,8 hPa 0,0 l/m 14,9 km/h (3 Bft) W-SW 254 0 min 0,000 mm 1,2 UV-I 248 W/m 17,4 C 19,0 C 20,9 km/h (4 Bft) 95,12 %
16.06.2017 09:30 21,4 C 24,4 C 78 % 1014,8 hPa 0,0 l/m 14,6 km/h (3 Bft) W-SW 242 0 min 0,000 mm 1,2 UV-I 241 W/m 17,4 C 19,0 C 20,9 km/h (4 Bft) 94,34 %
16.06.2017 09:32 21,4 C 24,4 C 78 % 1014,9 hPa 0,0 l/m 15,5 km/h (3 Bft) W-SW 251 0 min 0,000 mm 1,1 UV-I 227 W/m 17,4 C 18,8 C 22,5 km/h (4 Bft) 94,64 %
16.06.2017 09:34 21,3 C 24,4 C 78 % 1014,9 hPa 0,0 l/m 14,2 km/h (3 Bft) W-SW 252 0 min 0,000 mm 1,1 UV-I 214 W/m 17,3 C 19,0 C 17,7 km/h (3 Bft) 97,73 %
16.06.2017 09:36 21,3 C 24,4 C 77 % 1014,9 hPa 0,0 l/m 15,3 km/h (3 Bft) W-SW 250 0 min 0,000 mm 1,0 UV-I 203 W/m 17,1 C 18,8 C 24,1 km/h (4 Bft) 95,12 %
16.06.2017 09:38 21,3 C 24,4 C 78 % 1014,9 hPa 0,0 l/m 14,2 km/h (3 Bft) W 269 0 min 0,000 mm 1,0 UV-I 203 W/m 17,3 C 19,0 C 19,3 km/h (3 Bft) 96,00 %
16.06.2017 09:40 21,3 C 24,4 C 78 % 1014,9 hPa 0,0 l/m 13,8 km/h (3 Bft) W 276 0 min 0,000 mm 1,0 UV-I 205 W/m 17,3 C 19,1 C 20,9 km/h (4 Bft) 93,62 %
16.06.2017 09:42 21,3 C 24,4 C 78 % 1014,9 hPa 0,0 l/m 14,0 km/h (3 Bft) W-SW 244 0 min 0,000 mm 1,1 UV-I 207 W/m 17,3 C 19,0 C 20,9 km/h (4 Bft) 94,34 %
16.06.2017 09:44 21,3 C 24,4 C 78 % 1014,9 hPa 0,0 l/m 10,8 km/h (2 Bft) W-SW 241 0 min 0,000 mm 1,1 UV-I 213 W/m 17,3 C 19,8 C 17,7 km/h (3 Bft) 98,00 %
16.06.2017 09:46 21,3 C 24,4 C 78 % 1015,0 hPa 0,0 l/m 15,2 km/h (3 Bft) W 259 0 min 0,000 mm 1,1 UV-I 217 W/m 17,3 C 18,8 C 24,1 km/h (4 Bft) 92,11 %
16.06.2017 09:48 21,3 C 24,4 C 78 % 1014,9 hPa 0,0 l/m 11,1 km/h (2 Bft) W 262 0 min 0,000 mm 1,2 UV-I 220 W/m 17,3 C 19,8 C 20,9 km/h (4 Bft) 94,00 %
16.06.2017 09:50 21,3 C 24,4 C 78 % 1015,0 hPa 0,0 l/m 12,3 km/h (3 Bft) W 264 0 min 0,000 mm 1,2 UV-I 220 W/m 17,3 C 19,5 C 17,7 km/h (3 Bft) 100,00 %
16.06.2017 09:52 21,3 C 24,4 C 78 % 1014,9 hPa 0,0 l/m 9,3 km/h (2 Bft) W 259 0 min 0,000 mm 1,2 UV-I 224 W/m 17,3 C 20,3 C 19,3 km/h (3 Bft) 95,74 %
16.06.2017 09:54 21,3 C 24,4 C 78 % 1015,0 hPa 0,0 l/m 10,0 km/h (2 Bft) W-SW 244 0 min 0,000 mm 1,3 UV-I 235 W/m 17,3 C 20,1 C 17,7 km/h (3 Bft) 100,00 %
16.06.2017 09:56 21,4 C 24,4 C 78 % 1015,0 hPa 0,0 l/m 10,2 km/h (2 Bft) W 259 0 min 0,000 mm 1,4 UV-I 247 W/m 17,4 C 20,1 C 14,5 km/h (3 Bft) 98,00 %
16.06.2017 09:58 21,4 C 24,4 C 78 % 1015,0 hPa 0,0 l/m 8,6 km/h (2 Bft) W 267 0 min 0,000 mm 1,4 UV-I 256 W/m 17,4 C 20,6 C 16,1 km/h (3 Bft) 98,00 %
16.06.2017 10:00 21,5 C 24,4 C 78 % 1015,0 hPa 0,0 l/m 6,7 km/h (2 Bft) W-SW 239 0 min 0,177 mm 1,4 UV-I 260 W/m 17,5 C 21,4 C 12,9 km/h (3 Bft) 97,62 %
16.06.2017 10:02 21,5 C 24,4 C 78 % 1015,0 hPa 0,0 l/m 7,0 km/h (2 Bft) W-SW 246 0 min 0,000 mm 1,5 UV-I 265 W/m 17,5 C 21,3 C 12,9 km/h (3 Bft) 93,18 %
16.06.2017 10:04 21,6 C 24,4 C 78 % 1015,0 hPa 0,0 l/m 6,7 km/h (2 Bft) W-SW 252 0 min 0,000 mm 1,5 UV-I 276 W/m 17,6 C 21,5 C 12,9 km/h (3 Bft) 92,86 %
16.06.2017 10:06 21,7 C 24,4 C 78 % 1015,0 hPa 0,0 l/m 6,3 km/h (2 Bft) W-SW 254 0 min 0,000 mm 1,6 UV-I 286 W/m 17,7 C 21,7 C 11,3 km/h (2 Bft) 92,11 %
16.06.2017 10:08 21,7 C 24,4 C 78 % 1014,9 hPa 0,0 l/m 3,1 km/h (1 Bft) SW 232 0 min 0,000 mm 1,6 UV-I 288 W/m 17,7 C 21,7 C 6,4 km/h (2 Bft) 94,00 %
16.06.2017 10:10 21,8 C 24,4 C 77 % 1014,9 hPa 0,0 l/m 9,1 km/h (2 Bft) W 265 0 min 0,000 mm 1,6 UV-I 286 W/m 17,6 C 20,9 C 16,1 km/h (3 Bft) 96,23 %
16.06.2017 10:12 21,8 C 24,4 C 78 % 1014,9 hPa 0,0 l/m 7,0 km/h (2 Bft) W 263 0 min 0,000 mm 1,6 UV-I 285 W/m 17,8 C 21,6 C 14,5 km/h (3 Bft) 90,91 %
16.06.2017 10:14 21,9 C 24,4 C 79 % 1014,9 hPa 0,0 l/m 8,7 km/h (2 Bft) W-SW 246 0 min 0,000 mm 1,6 UV-I 287 W/m 18,1 C 21,1 C 14,5 km/h (3 Bft) 95,45 %
16.06.2017 10:16 22,0 C 24,4 C 77 % 1014,9 hPa 0,0 l/m 9,6 km/h (2 Bft) SW 221 0 min 0,000 mm 1,5 UV-I 280 W/m 17,8 C 21,0 C 16,1 km/h (3 Bft) 95,12 %
16.06.2017 10:18 22,0 C 24,4 C 77 % 1015,0 hPa 0,0 l/m 14,4 km/h (3 Bft) S 185 0 min 0,000 mm 1,5 UV-I 265 W/m 17,8 C 19,8 C 22,5 km/h (4 Bft) 92,86 %
16.06.2017 10:20 22,0 C 24,4 C 75 % 1015,0 hPa 0,0 l/m 17,6 km/h (3 Bft) W-SW 248 0 min 0,000 mm 1,5 UV-I 259 W/m 17,4 C 19,2 C 30,6 km/h (5 Bft) 89,47 %
16.06.2017 10:22 22,1 C 24,4 C 74 % 1015,0 hPa 0,0 l/m 14,8 km/h (3 Bft) W-SW 254 0 min 0,000 mm 1,5 UV-I 266 W/m 17,2 C 19,8 C 19,3 km/h (3 Bft) 92,86 %
16.06.2017 10:24 22,1 C 24,4 C 74 % 1015,1 hPa 0,0 l/m 12,6 km/h (3 Bft) W-SW 244 0 min 0,000 mm 1,6 UV-I 270 W/m 17,2 C 20,3 C 20,9 km/h (4 Bft) 92,11 %
16.06.2017 10:26 22,1 C 24,4 C 73 % 1015,1 hPa 0,0 l/m 14,6 km/h (3 Bft) SW 229 0 min 0,000 mm 1,6 UV-I 276 W/m 17,0 C 19,9 C 24,1 km/h (4 Bft) 94,34 %
16.06.2017 10:28 22,1 C 24,4 C 70 % 1015,1 hPa 0,0 l/m 21,4 km/h (4 Bft) W-SW 243 0 min 0,000 mm 1,6 UV-I 267 W/m 16,4 C 18,7 C 29,0 km/h (5 Bft) 92,68 %
16.06.2017 10:30 22,1 C 24,4 C 69 % 1015,1 hPa 0,0 l/m 17,2 km/h (3 Bft) W-SW 240 0 min 0,000 mm 1,6 UV-I 259 W/m 16,1 C 19,4 C 24,1 km/h (4 Bft) 94,64 %
16.06.2017 10:32 22,1 C 24,4 C 69 % 1015,1 hPa 0,0 l/m 14,8 km/h (3 Bft) W 263 0 min 0,000 mm 1,7 UV-I 268 W/m 16,1 C 19,8 C 22,5 km/h (4 Bft) 92,11 %
16.06.2017 10:34 22,1 C 24,4 C 69 % 1015,2 hPa 0,0 l/m 18,5 km/h (3 Bft) W-SW 245 0 min 0,000 mm 1,8 UV-I 277 W/m 16,1 C 19,2 C 24,1 km/h (4 Bft) 96,00 %
16.06.2017 10:36 22,1 C 24,4 C 69 % 1015,2 hPa 0,0 l/m 12,6 km/h (3 Bft) S-SW 201 0 min 0,000 mm 2,0 UV-I 289 W/m 16,1 C 20,3 C 20,9 km/h (4 Bft) 89,58 %
16.06.2017 10:38 22,2 C 24,4 C 66 % 1015,2 hPa 0,0 l/m 16,5 km/h (3 Bft) W-SW 258 0 min 0,000 mm 2,1 UV-I 313 W/m 15,5 C 19,6 C 30,6 km/h (5 Bft) 90,38 %
16.06.2017 10:40 22,2 C 24,4 C 64 % 1015,1 hPa 0,0 l/m 17,5 km/h (3 Bft) W-SW 257 0 min 0,000 mm 2,2 UV-I 328 W/m 15,1 C 19,5 C 24,1 km/h (4 Bft) 89,74 %
16.06.2017 10:42 22,2 C 24,4 C 65 % 1015,3 hPa 0,0 l/m 13,4 km/h (3 Bft) W-SW 244 0 min 0,000 mm 2,2 UV-I 331 W/m 15,3 C 20,2 C 19,3 km/h (3 Bft) 94,34 %
16.06.2017 10:44 22,3 C 24,4 C 64 % 1015,3 hPa 0,0 l/m 11,4 km/h (2 Bft) W 262 0 min 0,000 mm 2,2 UV-I 341 W/m 15,2 C 20,8 C 17,7 km/h (3 Bft) 95,45 %
16.06.2017 10:46 22,3 C 24,4 C 64 % 1015,2 hPa 0,0 l/m 13,0 km/h (3 Bft) W-SW 252 0 min 0,000 mm 2,2 UV-I 350 W/m 15,2 C 20,5 C 24,1 km/h (4 Bft) 98,11 %
16.06.2017 10:48 22,3 C 24,4 C 64 % 1015,2 hPa 0,0 l/m 13,6 km/h (3 Bft) S-SW 192 0 min 0,000 mm 2,5 UV-I 405 W/m 15,2 C 20,3 C 22,5 km/h (4 Bft) 93,62 %
16.06.2017 10:50 22,4 C 24,4 C 64 % 1015,1 hPa 0,0 l/m 10,9 km/h (2 Bft) W-SW 246 0 min 0,000 mm 2,5 UV-I 415 W/m 15,2 C 21,1 C 16,1 km/h (3 Bft) 97,37 %
16.06.2017 10:52 22,4 C 24,4 C 64 % 1015,3 hPa 0,0 l/m 14,3 km/h (3 Bft) W-SW 240 0 min 0,000 mm 2,4 UV-I 378 W/m 15,2 C 20,3 C 24,1 km/h (4 Bft) 97,73 %
16.06.2017 10:54 22,5 C 24,4 C 64 % 1015,2 hPa 0,0 l/m 16,6 km/h (3 Bft) SW 227 0 min 0,000 mm 2,4 UV-I 374 W/m 15,3 C 20,0 C 24,1 km/h (4 Bft) 97,87 %
16.06.2017 10:56 22,6 C 24,4 C 61 % 1015,2 hPa 0,0 l/m 21,0 km/h (4 Bft) W 267 0 min 0,000 mm 2,4 UV-I 369 W/m 14,7 C 19,4 C 30,6 km/h (5 Bft) 100,00 %
16.06.2017 10:58 22,6 C 24,4 C 60 % 1015,2 hPa 0,0 l/m 21,3 km/h (4 Bft) W-SW 241 0 min 0,000 mm 2,4 UV-I 365 W/m 14,4 C 19,4 C 33,8 km/h (5 Bft) 95,35 %
16.06.2017 11:00 22,5 C 24,4 C 60 % 1015,3 hPa 0,0 l/m 16,8 km/h (3 Bft) W-SW 246 0 min 0,254 mm 2,4 UV-I 360 W/m 14,3 C 19,9 C 25,7 km/h (4 Bft) 94,00 %
16.06.2017 11:03 22,5 C 24,4 C 59 % 1015,1 hPa 0,0 l/m 13,8 km/h (3 Bft) W-SW 238 0 min 0,000 mm 2,5 UV-I 362 W/m 14,1 C 20,5 C 25,7 km/h (4 Bft) 100,00 %
16.06.2017 11:04 22,5 C 24,4 C 60 % 1015,1 hPa 0,0 l/m 12,5 km/h (3 Bft) W-SW 251 0 min 0,000 mm 2,6 UV-I 368 W/m 14,3 C 20,8 C 20,9 km/h (4 Bft) 95,65 %
16.06.2017 11:06 22,5 C 24,4 C 61 % 1015,2 hPa 0,0 l/m 15,1 km/h (3 Bft) W-SW 242 0 min 0,000 mm 2,8 UV-I 396 W/m 14,6 C 20,3 C 20,9 km/h (4 Bft) 98,00 %
16.06.2017 11:08 22,5 C 24,4 C 61 % 1015,1 hPa 0,0 l/m 12,2 km/h (2 Bft) SW 217 0 min 0,000 mm 2,9 UV-I 405 W/m 14,6 C 20,9 C 20,9 km/h (4 Bft) 97,87 %
16.06.2017 11:10 22,6 C 24,4 C 60 % 1015,2 hPa 0,0 l/m 9,3 km/h (2 Bft) W-SW 237 0 min 0,000 mm 3,1 UV-I 412 W/m 14,4 C 21,7 C 20,9 km/h (4 Bft) 97,56 %
16.06.2017 11:12 22,7 C 24,4 C 58 % 1015,3 hPa 0,0 l/m 16,5 km/h (3 Bft) W 267 2 min 0,000 mm 4,1 UV-I 607 W/m 14,0 C 20,2 C 27,4 km/h (4 Bft) 98,00 %
16.06.2017 11:14 22,8 C 24,4 C 56 % 1015,1 hPa 0,0 l/m 21,8 km/h (4 Bft) W 259 2 min 0,000 mm 4,3 UV-I 689 W/m 13,6 C 19,6 C 32,2 km/h (5 Bft) 96,00 %
16.06.2017 11:16 22,9 C 24,4 C 56 % 1015,0 hPa 0,0 l/m 18,8 km/h (3 Bft) W 259 2 min 0,000 mm 3,8 UV-I 604 W/m 13,6 C 20,1 C 30,6 km/h (5 Bft) 94,44 %
16.06.2017 11:18 23,0 C 24,4 C 56 % 1015,1 hPa 0,0 l/m 23,3 km/h (4 Bft) W-SW 256 2 min 0,000 mm 4,3 UV-I 627 W/m 13,7 C 19,6 C 41,8 km/h (6 Bft) 96,00 %
16.06.2017 11:20 23,1 C 24,4 C 56 % 1015,2 hPa 0,0 l/m 15,8 km/h (3 Bft) W 270 2 min 0,000 mm 4,0 UV-I 528 W/m 13,8 C 20,9 C 22,5 km/h (4 Bft) 95,74 %
16.06.2017 11:22 23,1 C 24,4 C 56 % 1015,0 hPa 0,0 l/m 17,2 km/h (3 Bft) W-SW 251 0 min 0,000 mm 3,3 UV-I 429 W/m 13,8 C 20,6 C 29,0 km/h (5 Bft) 93,62 %
16.06.2017 11:24 23,1 C 24,4 C 54 % 1015,0 hPa 0,0 l/m 16,7 km/h (3 Bft) W 273 0 min 0,000 mm 3,1 UV-I 421 W/m 13,3 C 20,7 C 32,2 km/h (5 Bft) 98,04 %
16.06.2017 11:26 23,0 C 24,4 C 55 % 1015,0 hPa 0,0 l/m 19,8 km/h (3 Bft) W-NW 298 0 min 0,000 mm 3,7 UV-I 448 W/m 13,5 C 20,1 C 32,2 km/h (5 Bft) 100,00 %
16.06.2017 11:28 22,9 C 24,4 C 55 % 1015,0 hPa 0,0 l/m 13,2 km/h (3 Bft) W-SW 247 0 min 0,000 mm 3,6 UV-I 448 W/m 13,4 C 21,1 C 24,1 km/h (4 Bft) 96,23 %
16.06.2017 11:30 23,0 C 24,4 C 57 % 1015,0 hPa 0,0 l/m 16,5 km/h (3 Bft) W 259 2 min 0,000 mm 3,8 UV-I 479 W/m 14,0 C 20,6 C 25,7 km/h (4 Bft) 94,34 %
16.06.2017 11:32 23,2 C 24,4 C 57 % 1015,0 hPa 0,0 l/m 13,5 km/h (3 Bft) SW 234 2 min 0,000 mm 5,0 UV-I 757 W/m 14,2 C 21,4 C 22,5 km/h (4 Bft) 100,00 %
16.06.2017 11:34 23,3 C 24,4 C 56 % 1015,0 hPa 0,0 l/m 17,9 km/h (3 Bft) W 266 2 min 0,000 mm 5,6 UV-I 890 W/m 14,0 C 20,8 C 25,7 km/h (4 Bft) 100,00 %
16.06.2017 11:36 23,7 C 24,4 C 56 % 1014,9 hPa 0,0 l/m 15,1 km/h (3 Bft) SW 236 2 min 0,000 mm 6,2 UV-I 1059 W/m 14,4 C 21,7 C 33,8 km/h (5 Bft) 94,00 %
16.06.2017 11:38 23,9 C 25,0 C 55 % 1015,2 hPa 0,0 l/m 18,0 km/h (3 Bft) W-SW 256 2 min 0,000 mm 5,7 UV-I 1120 W/m 14,3 C 21,5 C 35,4 km/h (5 Bft) 93,62 %
16.06.2017 11:40 24,0 C 24,4 C 53 % 1015,0 hPa 0,0 l/m 18,5 km/h (3 Bft) W-SW 256 2 min 0,000 mm 4,0 UV-I 764 W/m 13,8 C 21,6 C 33,8 km/h (5 Bft) 100,00 %
16.06.2017 11:42 23,9 C 24,4 C 54 % 1015,0 hPa 0,0 l/m 17,7 km/h (3 Bft) W 262 2 min 0,000 mm 3,3 UV-I 479 W/m 14,0 C 21,6 C 27,4 km/h (4 Bft) 98,21 %
16.06.2017 11:44 23,8 C 24,4 C 53 % 1015,1 hPa 0,0 l/m 19,6 km/h (3 Bft) W-SW 255 0 min 0,000 mm 3,2 UV-I 454 W/m 13,6 C 21,2 C 40,2 km/h (6 Bft) 95,12 %
16.06.2017 11:46 23,7 C 24,4 C 55 % 1015,0 hPa 0,0 l/m 17,2 km/h (3 Bft) W-SW 249 0 min 0,000 mm 3,0 UV-I 413 W/m 14,1 C 21,4 C 25,7 km/h (4 Bft) 96,23 %
16.06.2017 11:48 23,6 C 24,4 C 55 % 1014,9 hPa 0,0 l/m 10,8 km/h (2 Bft) W-SW 251 0 min 0,000 mm 2,8 UV-I 380 W/m 14,0 C 22,4 C 17,7 km/h (3 Bft) 95,45 %
16.06.2017 11:50 23,6 C 24,4 C 56 % 1014,9 hPa 0,0 l/m 11,2 km/h (2 Bft) SW 236 0 min 0,000 mm 2,9 UV-I 440 W/m 14,3 C 22,3 C 16,1 km/h (3 Bft) 100,00 %
16.06.2017 11:52 23,5 C 24,4 C 53 % 1014,9 hPa 0,0 l/m 16,4 km/h (3 Bft) W-SW 257 0 min 0,000 mm 2,6 UV-I 337 W/m 13,4 C 21,3 C 27,4 km/h (4 Bft) 95,45 %
16.06.2017 11:54 23,4 C 24,4 C 54 % 1014,9 hPa 0,0 l/m 18,0 km/h (3 Bft) W 270 0 min 0,000 mm 3,2 UV-I 362 W/m 13,6 C 20,9 C 32,2 km/h (5 Bft) 98,00 %
16.06.2017 11:56 23,4 C 24,4 C 54 % 1014,9 hPa 0,0 l/m 18,2 km/h (3 Bft) W-SW 242 0 min 0,000 mm 3,6 UV-I 473 W/m 13,6 C 20,9 C 32,2 km/h (5 Bft) 100,00 %
16.06.2017 11:58 23,4 C 25,0 C 52 % 1014,9 hPa 0,0 l/m 27,4 km/h (4 Bft) W-SW 251 2 min 0,000 mm 5,0 UV-I 623 W/m 13,0 C 19,7 C 45,1 km/h (6 Bft) 98,11 %
16.06.2017 12:00 23,6 C 25,0 C 52 % 1014,9 hPa 0,0 l/m 20,4 km/h (4 Bft) W-SW 246 2 min 0,458 mm 5,7 UV-I 805 W/m 13,2 C 20,8 C 37,0 km/h (5 Bft) 94,74 %
16.06.2017 12:02 23,9 C 25,0 C 52 % 1014,8 hPa 0,0 l/m 16,1 km/h (3 Bft) W-SW 257 2 min 0,000 mm 5,7 UV-I 913 W/m 13,4 C 21,8 C 22,5 km/h (4 Bft) 97,56 %
16.06.2017 12:04 24,1 C 24,4 C 51 % 1014,8 hPa 0,0 l/m 17,5 km/h (3 Bft) NW 306 2 min 0,000 mm 6,2 UV-I 922 W/m 13,3 C 21,8 C 24,1 km/h (4 Bft) 100,00 %
16.06.2017 12:06 24,3 C 24,4 C 49 % 1014,8 hPa 0,0 l/m 18,9 km/h (3 Bft) W 261 2 min 0,000 mm 5,8 UV-I 970 W/m 12,9 C 21,9 C 38,6 km/h (5 Bft) 96,00 %
16.06.2017 12:08 24,4 C 24,4 C 49 % 1014,8 hPa 0,0 l/m 14,4 km/h (3 Bft) W-NW 288 2 min 0,000 mm 6,2 UV-I 974 W/m 13,0 C 22,7 C 20,9 km/h (4 Bft) 90,57 %
16.06.2017 12:10 24,6 C 24,4 C 49 % 1014,8 hPa 0,0 l/m 19,8 km/h (3 Bft) SW 215 2 min 0,000 mm 6,5 UV-I 972 W/m 13,2 C 22,2 C 32,2 km/h (5 Bft) 92,68 %
16.06.2017 12:12 24,7 C 25,0 C 48 % 1014,8 hPa 0,0 l/m 20,6 km/h (4 Bft) SW 219 2 min 0,000 mm 5,6 UV-I 962 W/m 12,9 C 22,2 C 33,8 km/h (5 Bft) 96,23 %
16.06.2017 12:14 24,7 C 25,0 C 48 % 1014,9 hPa 0,0 l/m 18,7 km/h (3 Bft) W 263 2 min 0,000 mm 6,3 UV-I 953 W/m 12,9 C 22,4 C 40,2 km/h (6 Bft) 95,45 %
16.06.2017 12:16 24,8 C 25,0 C 48 % 1014,9 hPa 0,0 l/m 19,6 km/h (3 Bft) SW 232 2 min 0,000 mm 6,6 UV-I 1046 W/m 13,0 C 22,5 C 32,2 km/h (5 Bft) 96,00 %
16.06.2017 12:18 24,8 C 25,0 C 48 % 1014,9 hPa 0,0 l/m 19,4 km/h (3 Bft) W-SW 246 2 min 0,000 mm 6,7 UV-I 1135 W/m 13,0 C 22,5 C 29,0 km/h (5 Bft) 97,14 %
16.06.2017 12:20 24,8 C 25,0 C 49 % 1014,9 hPa 0,0 l/m 18,5 km/h (3 Bft) W-SW 244 2 min 0,000 mm 3,9 UV-I 1039 W/m 13,3 C 22,6 C 27,4 km/h (4 Bft) 91,07 %
16.06.2017 12:22 24,7 C 25,0 C 49 % 1014,9 hPa 0,0 l/m 19,7 km/h (3 Bft) W-SW 246 0 min 0,000 mm 4,5 UV-I 409 W/m 13,3 C 22,3 C 32,2 km/h (5 Bft) 97,87 %
16.06.2017 12:24 24,7 C 25,0 C 50 % 1014,8 hPa 0,0 l/m 16,3 km/h (3 Bft) W-SW 250 0 min 0,000 mm 5,1 UV-I 424 W/m 13,6 C 22,8 C 24,1 km/h (4 Bft) 97,73 %
16.06.2017 12:26 24,6 C 25,0 C 49 % 1014,8 hPa 0,0 l/m 16,8 km/h (3 Bft) W-SW 249 2 min 0,000 mm 4,1 UV-I 550 W/m 13,2 C 22,6 C 25,7 km/h (4 Bft) 97,56 %
16.06.2017 12:28 24,5 C 25,0 C 49 % 1014,9 hPa 0,0 l/m 19,4 km/h (3 Bft) W-SW 244 2 min 0,000 mm 3,9 UV-I 505 W/m 13,1 C 22,1 C 29,0 km/h (5 Bft) 96,00 %
16.06.2017 12:30 24,4 C 25,0 C 51 % 1014,7 hPa 0,0 l/m 13,9 km/h (3 Bft) W 261 0 min 0,000 mm 4,0 UV-I 488 W/m 13,6 C 22,8 C 25,7 km/h (4 Bft) 88,68 %
16.06.2017 12:32 24,3 C 25,0 C 52 % 1014,9 hPa 0,0 l/m 9,9 km/h (2 Bft) W 271 0 min 0,000 mm 3,3 UV-I 326 W/m 13,8 C 23,4 C 24,1 km/h (4 Bft) 97,44 %
16.06.2017 12:34 24,2 C 25,0 C 50 % 1014,7 hPa 0,0 l/m 13,0 km/h (3 Bft) W 266 0 min 0,000 mm 5,8 UV-I 329 W/m 13,1 C 22,7 C 24,1 km/h (4 Bft) 98,00 %
16.06.2017 12:36 24,3 C 25,0 C 51 % 1014,7 hPa 0,0 l/m 11,7 km/h (2 Bft) W-NW 282 2 min 0,000 mm 6,1 UV-I 903 W/m 13,5 C 23,0 C 24,1 km/h (4 Bft) 90,24 %
16.06.2017 12:38 24,4 C 25,0 C 51 % 1014,7 hPa 0,0 l/m 15,2 km/h (3 Bft) W-SW 252 2 min 0,000 mm 6,4 UV-I 1112 W/m 13,6 C 22,5 C 24,1 km/h (4 Bft) 91,07 %
16.06.2017 12:40 24,8 C 25,0 C 50 % 1014,6 hPa 0,0 l/m 15,2 km/h (3 Bft) W 279 2 min 0,000 mm 6,2 UV-I 1050 W/m 13,7 C 23,0 C 27,4 km/h (4 Bft) 100,00 %
16.06.2017 12:42 24,9 C 25,0 C 49 % 1014,6 hPa 0,0 l/m 16,6 km/h (3 Bft) SW 218 2 min 0,000 mm 6,0 UV-I 1011 W/m 13,4 C 23,0 C 35,4 km/h (5 Bft) 100,00 %
16.06.2017 12:44 25,0 C 25,0 C 48 % 1014,5 hPa 0,0 l/m 17,6 km/h (3 Bft) W-SW 254 0 min 0,000 mm 3,6 UV-I 451 W/m 13,2 C 23,0 C 27,4 km/h (4 Bft) 97,56 %
16.06.2017 12:46 25,0 C 25,0 C 49 % 1014,6 hPa 0,0 l/m 15,6 km/h (3 Bft) SW 227 0 min 0,000 mm 6,5 UV-I 262 W/m 13,5 C 23,2 C 24,1 km/h (4 Bft) 93,62 %
16.06.2017 12:48 25,1 C 25,0 C 50 % 1014,5 hPa 0,0 l/m 11,6 km/h (2 Bft) N-NW 335 0 min 0,000 mm 6,4 UV-I 262 W/m 13,9 C 24,0 C 30,6 km/h (5 Bft) 97,87 %
16.06.2017 12:50 24,8 C 25,0 C 50 % 1014,4 hPa 0,0 l/m 13,7 km/h (3 Bft) SW 220 0 min 0,000 mm 3,6 UV-I 262 W/m 13,7 C 23,3 C 20,9 km/h (4 Bft) 100,00 %
16.06.2017 12:52 24,6 C 25,0 C 49 % 1014,3 hPa 0,0 l/m 15,5 km/h (3 Bft) W-SW 250 0 min 0,000 mm 5,2 UV-I 302 W/m 13,2 C 22,7 C 25,7 km/h (4 Bft) 100,00 %
16.06.2017 12:54 24,5 C 25,0 C 51 % 1014,5 hPa 0,0 l/m 15,4 km/h (3 Bft) W 262 0 min 0,000 mm 5,9 UV-I 425 W/m 13,7 C 22,6 C 24,1 km/h (4 Bft) 90,24 %
16.06.2017 12:56 24,4 C 25,0 C 52 % 1014,3 hPa 0,0 l/m 9,3 km/h (2 Bft) W-NW 292 0 min 0,000 mm 4,5 UV-I 341 W/m 13,9 C 23,7 C 19,3 km/h (3 Bft) 96,43 %
16.06.2017 12:58 24,3 C 25,0 C 51 % 1014,3 hPa 0,0 l/m 15,2 km/h (3 Bft) NW 312 0 min 0,000 mm 5,1 UV-I 291 W/m 13,5 C 22,4 C 27,4 km/h (4 Bft) 95,12 %
16.06.2017 13:00 24,3 C 25,0 C 50 % 1014,4 hPa 0,0 l/m 19,0 km/h (3 Bft) W-SW 240 0 min 0,000 mm 5,3 UV-I 259 W/m 13,2 C 21,9 C 37,0 km/h (5 Bft) 100,00 %
16.06.2017 13:02 24,5 C 25,0 C 48 % 1014,6 hPa 0,0 l/m 18,0 km/h (3 Bft) W 279 2 min 0,584 mm 6,4 UV-I 985 W/m 12,8 C 22,3 C 38,6 km/h (5 Bft) 100,00 %
16.06.2017 13:04 24,8 C 25,0 C 50 % 1014,4 hPa 0,0 l/m 18,7 km/h (3 Bft) W-SW 248 2 min 0,000 mm 6,7 UV-I 1059 W/m 13,7 C 22,6 C 32,2 km/h (5 Bft) 100,00 %
16.06.2017 13:06 25,1 C 25,0 C 46 % 1014,4 hPa 0,0 l/m 20,9 km/h (4 Bft) W-NW 286 2 min 0,000 mm 4,1 UV-I 978 W/m 12,7 C 22,7 C 29,0 km/h (5 Bft) 97,56 %
16.06.2017 13:08 25,1 C 25,0 C 46 % 1014,3 hPa 0,0 l/m 19,5 km/h (3 Bft) SW 214 0 min 0,000 mm 3,7 UV-I 267 W/m 12,7 C 22,9 C 30,6 km/h (5 Bft) 98,21 %
16.06.2017 13:10 25,1 C 25,0 C 46 % 1014,2 hPa 0,0 l/m 14,6 km/h (3 Bft) W 271 0 min 0,000 mm 5,9 UV-I 267 W/m 12,7 C 23,5 C 27,4 km/h (4 Bft) 100,00 %
16.06.2017 13:12 25,3 C 25,0 C 45 % 1014,2 hPa 0,0 l/m 16,4 km/h (3 Bft) SW 236 2 min 0,000 mm 6,8 UV-I 1089 W/m 12,5 C 23,5 C 27,4 km/h (4 Bft) 98,21 %
16.06.2017 13:14 25,5 C 25,0 C 45 % 1014,3 hPa 0,0 l/m 28,6 km/h (4 Bft) W 261 2 min 0,000 mm 6,2 UV-I 1136 W/m 12,7 C 22,6 C 48,3 km/h (6 Bft) 100,00 %
16.06.2017 13:16 25,6 C 25,0 C 43 % 1014,2 hPa 0,0 l/m 24,6 km/h (4 Bft) W-SW 237 2 min 0,000 mm 6,3 UV-I 1136 W/m 12,1 C 23,0 C 40,2 km/h (6 Bft) 95,74 %
16.06.2017 13:18 25,6 C 25,0 C 43 % 1014,2 hPa 0,0 l/m 28,1 km/h (4 Bft) W-SW 250 2 min 0,000 mm 6,7 UV-I 1079 W/m 12,1 C 22,7 C 48,3 km/h (6 Bft) 100,00 %
16.06.2017 13:20 25,7 C 25,0 C 43 % 1014,5 hPa 0,0 l/m 28,8 km/h (4 Bft) W 271 2 min 0,000 mm 5,3 UV-I 1065 W/m 12,2 C 22,8 C 46,7 km/h (6 Bft) 98,00 %
16.06.2017 13:22 25,7 C 25,0 C 44 % 1014,3 hPa 0,0 l/m 26,1 km/h (4 Bft) W 265 2 min 0,000 mm 6,6 UV-I 1068 W/m 12,5 C 23,0 C 43,5 km/h (6 Bft) 100,00 %
16.06.2017 13:24 25,8 C 25,0 C 44 % 1014,1 hPa 0,0 l/m 25,7 km/h (4 Bft) W-SW 237 2 min 0,000 mm 6,5 UV-I 1054 W/m 12,6 C 23,2 C 41,8 km/h (6 Bft) 98,00 %
16.06.2017 13:26 25,8 C 25,0 C 43 % 1014,1 hPa 0,0 l/m 24,3 km/h (4 Bft) S-SO 166 2 min 0,000 mm 6,5 UV-I 1052 W/m 12,3 C 23,3 C 43,5 km/h (6 Bft) 98,11 %
16.06.2017 13:28 25,6 C 25,0 C 43 % 1014,3 hPa 0,0 l/m 18,9 km/h (3 Bft) W 271 2 min 0,000 mm 3,8 UV-I 638 W/m 12,1 C 23,6 C 30,6 km/h (5 Bft) 95,12 %
16.06.2017 13:30 25,3 C 25,0 C 44 % 1014,2 hPa 0,0 l/m 21,6 km/h (4 Bft) W-SW 250 0 min 0,000 mm 4,2 UV-I 220 W/m 12,2 C 22,9 C 33,8 km/h (5 Bft) 100,00 %
16.06.2017 13:32 25,3 C 25,0 C 44 % 1014,1 hPa 0,0 l/m 23,3 km/h (4 Bft) W-SW 256 2 min 0,000 mm 6,7 UV-I 802 W/m 12,2 C 22,7 C 41,8 km/h (6 Bft) 96,00 %
16.06.2017 13:34 25,4 C 25,0 C 46 % 1014,1 hPa 0,0 l/m 18,3 km/h (3 Bft) S-SW 200 2 min 0,000 mm 6,6 UV-I 1069 W/m 12,9 C 23,4 C 33,8 km/h (5 Bft) 100,00 %
16.06.2017 13:36 25,6 C 25,0 C 45 % 1014,1 hPa 0,0 l/m 16,4 km/h (3 Bft) W 271 2 min 0,000 mm 4,8 UV-I 986 W/m 12,8 C 23,9 C 25,7 km/h (4 Bft) 96,61 %
16.06.2017 13:38 25,5 C 25,0 C 43 % 1014,0 hPa 0,0 l/m 15,1 km/h (3 Bft) W-SW 239 0 min 0,000 mm 5,1 UV-I 437 W/m 12,0 C 23,9 C 24,1 km/h (4 Bft) 100,00 %
16.06.2017 13:40 25,7 C 25,0 C 43 % 1014,0 hPa 0,0 l/m 17,4 km/h (3 Bft) W-SW 253 2 min 0,000 mm 6,3 UV-I 1085 W/m 12,2 C 23,9 C 33,8 km/h (5 Bft) 95,45 %
16.06.2017 13:42 26,1 C 25,0 C 43 % 1014,0 hPa 0,0 l/m 21,8 km/h (4 Bft) W 273 2 min 0,000 mm 6,3 UV-I 1095 W/m 12,5 C 23,9 C 38,6 km/h (5 Bft) 100,00 %
16.06.2017 13:44 26,2 C 25,0 C 42 % 1013,9 hPa 0,0 l/m 17,7 km/h (3 Bft) NW 316 2 min 0,000 mm 5,6 UV-I 1090 W/m 12,3 C 24,4 C 30,6 km/h (5 Bft) 93,62 %
16.06.2017 13:46 26,3 C 25,0 C 40 % 1014,1 hPa 0,0 l/m 25,9 km/h (4 Bft) SW 221 2 min 0,000 mm 6,3 UV-I 1062 W/m 11,6 C 23,9 C 53,1 km/h (7 Bft) 98,00 %
16.06.2017 13:48 26,3 C 25,0 C 40 % 1014,1 hPa 0,0 l/m 28,4 km/h (4 Bft) W 275 2 min 0,000 mm 6,5 UV-I 1058 W/m 11,6 C 23,7 C 48,3 km/h (6 Bft) 97,56 %
16.06.2017 13:50 26,3 C 25,0 C 39 % 1013,9 hPa 0,0 l/m 20,1 km/h (4 Bft) W-SW 257 2 min 0,000 mm 5,7 UV-I 769 W/m 11,2 C 24,3 C 33,8 km/h (5 Bft) 100,00 %
16.06.2017 13:52 26,2 C 25,0 C 39 % 1014,1 hPa 0,0 l/m 26,9 km/h (4 Bft) W 264 2 min 0,000 mm 5,6 UV-I 928 W/m 11,1 C 23,6 C 48,3 km/h (6 Bft) 95,71 %
16.06.2017 13:54 26,1 C 25,0 C 38 % 1014,1 hPa 0,0 l/m 29,2 km/h (5 Bft) W 270 2 min 0,000 mm 6,6 UV-I 1037 W/m 10,7 C 23,3 C 41,8 km/h (6 Bft) 97,87 %
16.06.2017 13:56 26,1 C 25,0 C 37 % 1014,1 hPa 0,0 l/m 26,6 km/h (4 Bft) W-SW 248 2 min 0,000 mm 6,5 UV-I 1029 W/m 10,3 C 23,5 C 49,9 km/h (6 Bft) 94,87 %
16.06.2017 13:58 26,2 C 25,0 C 36 % 1014,0 hPa 0,0 l/m 20,2 km/h (4 Bft) W 274 2 min 0,000 mm 6,3 UV-I 986 W/m 9,9 C 24,2 C 35,4 km/h (5 Bft) 98,21 %
16.06.2017 14:00 26,2 C 25,0 C 35 % 1013,9 hPa 0,0 l/m 31,2 km/h (5 Bft) W 264 2 min 0,762 mm 6,3 UV-I 982 W/m 9,5 C 23,4 C 57,9 km/h (7 Bft) 94,74 %
16.06.2017 14:02 26,1 C 25,0 C 37 % 1014,1 hPa 0,0 l/m 29,8 km/h (5 Bft) W-SW 244 2 min 0,000 mm 6,2 UV-I 989 W/m 10,3 C 23,3 C 43,5 km/h (6 Bft) 92,00 %
16.06.2017 14:04 26,1 C 25,0 C 36 % 1013,8 hPa 0,0 l/m 22,0 km/h (4 Bft) W-SW 241 2 min 0,000 mm 6,2 UV-I 959 W/m 9,8 C 23,9 C 32,2 km/h (5 Bft) 92,68 %
16.06.2017 14:06 26,2 C 25,0 C 33 % 1014,0 hPa 0,0 l/m 29,8 km/h (5 Bft) W-NW 290 2 min 0,000 mm 6,1 UV-I 931 W/m 8,6 C 23,5 C 43,5 km/h (6 Bft) 96,23 %
16.06.2017 14:08 26,2 C 25,0 C 36 % 1013,9 hPa 0,0 l/m 12,6 km/h (3 Bft) W 275 2 min 0,000 mm 6,0 UV-I 923 W/m 9,9 C 25,1 C 22,5 km/h (4 Bft) 92,68 %
16.06.2017 14:10 26,4 C 25,0 C 35 % 1014,0 hPa 0,0 l/m 22,2 km/h (4 Bft) SW 235 2 min 0,000 mm 6,0 UV-I 914 W/m 9,7 C 24,3 C 37,0 km/h (5 Bft) 89,47 %
16.06.2017 14:12 26,4 C 25,0 C 34 % 1014,0 hPa 0,0 l/m 20,0 km/h (4 Bft) W 261 2 min 0,000 mm 6,0 UV-I 914 W/m 9,3 C 24,5 C 30,6 km/h (5 Bft) 93,85 %
16.06.2017 14:14 26,3 C 25,0 C 34 % 1014,0 hPa 0,0 l/m 16,2 km/h (3 Bft) W-SW 248 2 min 0,000 mm 5,9 UV-I 911 W/m 9,2 C 24,7 C 32,2 km/h (5 Bft) 92,31 %
16.06.2017 14:16 26,2 C 25,0 C 35 % 1013,8 hPa 0,0 l/m 15,2 km/h (3 Bft) W 267 2 min 0,000 mm 5,9 UV-I 910 W/m 9,5 C 24,7 C 32,2 km/h (5 Bft) 91,18 %
16.06.2017 14:18 26,3 C 25,0 C 35 % 1013,9 hPa 0,0 l/m 18,4 km/h (3 Bft) W-NW 292 2 min 0,000 mm 5,9 UV-I 914 W/m 9,6 C 24,5 C 33,8 km/h (5 Bft) 89,36 %
16.06.2017 14:20 26,2 C 25,0 C 36 % 1013,8 hPa 0,0 l/m 18,8 km/h (3 Bft) W-SW 257 2 min 0,000 mm 5,9 UV-I 918 W/m 9,9 C 24,3 C 29,0 km/h (5 Bft) 90,24 %
16.06.2017 14:22 26,2 C 25,0 C 36 % 1013,7 hPa 0,0 l/m 18,2 km/h (3 Bft) W-NW 298 2 min 0,000 mm 5,9 UV-I 932 W/m 9,9 C 24,4 C 27,4 km/h (4 Bft) 95,45 %
16.06.2017 14:24 26,2 C 25,0 C 36 % 1013,9 hPa 0,0 l/m 17,4 km/h (3 Bft) W-SW 238 2 min 0,000 mm 5,9 UV-I 930 W/m 9,9 C 24,5 C 25,7 km/h (4 Bft) 94,34 %
16.06.2017 14:26 26,3 C 25,0 C 36 % 1013,8 hPa 0,0 l/m 16,7 km/h (3 Bft) S-SW 203 2 min 0,000 mm 5,7 UV-I 911 W/m 10,0 C 24,7 C 38,6 km/h (5 Bft) 94,00 %
16.06.2017 14:28 26,5 C 25,0 C 35 % 1013,7 hPa 0,0 l/m 15,3 km/h (3 Bft) W 265 2 min 0,000 mm 5,7 UV-I 906 W/m 9,8 C 25,1 C 24,1 km/h (4 Bft) 91,67 %
16.06.2017 14:30 26,4 C 25,0 C 34 % 1013,6 hPa 0,0 l/m 16,9 km/h (3 Bft) N-NW 334 2 min 0,000 mm 5,6 UV-I 915 W/m 9,3 C 24,8 C 27,4 km/h (4 Bft) 89,06 %
16.06.2017 14:32 26,3 C 25,0 C 35 % 1013,7 hPa 0,0 l/m 14,4 km/h (3 Bft) SW 231 2 min 0,000 mm 4,1 UV-I 967 W/m 9,6 C 25,0 C 27,4 km/h (4 Bft) 94,44 %
16.06.2017 14:34 26,2 C 25,0 C 37 % 1013,8 hPa 0,0 l/m 16,8 km/h (3 Bft) W 273 2 min 0,000 mm 5,5 UV-I 971 W/m 10,3 C 24,5 C 30,6 km/h (5 Bft) 96,43 %
16.06.2017 14:36 26,1 C 25,0 C 37 % 1013,8 hPa 0,0 l/m 17,6 km/h (3 Bft) W 263 2 min 0,000 mm 5,3 UV-I 953 W/m 10,3 C 24,3 C 29,0 km/h (5 Bft) 97,73 %
16.06.2017 14:38 26,0 C 25,0 C 37 % 1013,9 hPa 0,0 l/m 22,4 km/h (4 Bft) W 262 2 min 0,000 mm 4,1 UV-I 942 W/m 10,2 C 23,7 C 35,4 km/h (5 Bft) 95,12 %
16.06.2017 14:40 25,9 C 25,0 C 38 % 1013,8 hPa 0,0 l/m 23,1 km/h (4 Bft) NW 304 2 min 0,000 mm 5,4 UV-I 918 W/m 10,5 C 23,5 C 37,0 km/h (5 Bft) 94,64 %
16.06.2017 14:42 25,8 C 25,6 C 37 % 1013,9 hPa 0,0 l/m 14,7 km/h (3 Bft) W 271 2 min 0,000 mm 5,3 UV-I 554 W/m 10,0 C 24,3 C 33,8 km/h (5 Bft) 98,00 %
16.06.2017 14:44 25,8 C 25,0 C 37 % 1014,0 hPa 0,0 l/m 19,2 km/h (3 Bft) W-NW 287 2 min 0,000 mm 5,4 UV-I 836 W/m 10,0 C 23,8 C 35,4 km/h (5 Bft) 95,12 %
16.06.2017 14:46 25,9 C 25,6 C 36 % 1013,8 hPa 0,0 l/m 19,4 km/h (3 Bft) W-SW 254 2 min 0,000 mm 5,3 UV-I 903 W/m 9,7 C 23,9 C 33,8 km/h (5 Bft) 98,00 %
16.06.2017 14:48 26,0 C 25,6 C 36 % 1013,6 hPa 0,0 l/m 18,9 km/h (3 Bft) W-NW 286 2 min 0,000 mm 5,2 UV-I 893 W/m 9,8 C 24,1 C 35,4 km/h (5 Bft) 92,00 %
16.06.2017 14:50 26,2 C 25,6 C 37 % 1013,7 hPa 0,0 l/m 9,0 km/h (2 Bft) W-SW 246 2 min 0,000 mm 4,8 UV-I 906 W/m 10,3 C 25,7 C 19,3 km/h (3 Bft) 97,73 %
16.06.2017 14:52 26,3 C 25,6 C 36 % 1013,7 hPa 0,0 l/m 17,7 km/h (3 Bft) W-NW 287 2 min 0,000 mm 5,1 UV-I 906 W/m 10,0 C 24,6 C 27,4 km/h (4 Bft) 98,11 %
16.06.2017 14:54 26,3 C 25,6 C 37 % 1013,9 hPa 0,0 l/m 17,9 km/h (3 Bft) W 279 2 min 0,000 mm 5,1 UV-I 867 W/m 10,4 C 24,6 C 29,0 km/h (5 Bft) 96,55 %
16.06.2017 14:56 26,2 C 25,6 C 37 % 1013,7 hPa 0,0 l/m 17,4 km/h (3 Bft) SW 222 2 min 0,000 mm 4,6 UV-I 873 W/m 10,3 C 24,5 C 32,2 km/h (5 Bft) 87,93 %
16.06.2017 14:58 26,2 C 25,6 C 36 % 1013,7 hPa 0,0 l/m 19,7 km/h (3 Bft) W 275 2 min 0,000 mm 4,7 UV-I 900 W/m 9,9 C 24,2 C 38,6 km/h (5 Bft) 98,00 %
16.06.2017 15:00 26,1 C 25,6 C 37 % 1013,7 hPa 0,0 l/m 14,5 km/h (3 Bft) W 271 2 min 0,736 mm 5,1 UV-I 922 W/m 10,3 C 24,7 C 30,6 km/h (5 Bft) 96,00 %
16.06.2017 15:02 26,1 C 25,6 C 38 % 1013,7 hPa 0,0 l/m 16,7 km/h (3 Bft) W 263 2 min 0,000 mm 4,0 UV-I 887 W/m 10,7 C 24,4 C 43,5 km/h (6 Bft) 100,00 %
16.06.2017 15:04 25,8 C 25,6 C 36 % 1013,9 hPa 0,0 l/m 20,8 km/h (4 Bft) W-SW 247 0 min 0,000 mm 3,7 UV-I 235 W/m 9,6 C 23,6 C 35,4 km/h (5 Bft) 95,74 %
16.06.2017 15:06 25,8 C 25,6 C 38 % 1013,8 hPa 0,0 l/m 18,1 km/h (3 Bft) W-SW 257 2 min 0,000 mm 4,9 UV-I 868 W/m 10,4 C 23,9 C 29,0 km/h (5 Bft) 97,78 %
16.06.2017 15:08 25,9 C 25,6 C 38 % 1013,8 hPa 0,0 l/m 21,7 km/h (4 Bft) W-SW 245 2 min 0,000 mm 4,9 UV-I 842 W/m 10,5 C 23,7 C 35,4 km/h (5 Bft) 100,00 %
16.06.2017 15:10 26,1 C 25,6 C 37 % 1013,7 hPa 0,0 l/m 14,4 km/h (3 Bft) SW 228 2 min 0,000 mm 4,8 UV-I 848 W/m 10,3 C 24,7 C 24,1 km/h (4 Bft) 97,62 %
16.06.2017 15:12 26,2 C 25,6 C 36 % 1013,8 hPa 0,0 l/m 19,6 km/h (3 Bft) W-SW 258 2 min 0,000 mm 4,7 UV-I 843 W/m 9,9 C 24,3 C 41,8 km/h (6 Bft) 96,00 %
16.06.2017 15:14 26,2 C 25,6 C 36 % 1013,7 hPa 0,0 l/m 20,9 km/h (4 Bft) SW 234 2 min 0,000 mm 4,7 UV-I 866 W/m 9,9 C 24,1 C 32,2 km/h (5 Bft) 97,56 %
16.06.2017 15:16 26,2 C 25,6 C 37 % 1013,7 hPa 0,0 l/m 19,6 km/h (3 Bft) W-SW 257 2 min 0,000 mm 4,7 UV-I 857 W/m 10,3 C 24,3 C 33,8 km/h (5 Bft) 98,31 %
16.06.2017 15:18 26,1 C 25,6 C 36 % 1013,6 hPa 0,0 l/m 15,7 km/h (3 Bft) W 278 2 min 0,000 mm 4,7 UV-I 826 W/m 9,8 C 24,6 C 27,4 km/h (4 Bft) 95,12 %
16.06.2017 15:20 26,2 C 25,6 C 37 % 1013,6 hPa 0,0 l/m 17,9 km/h (3 Bft) W-SW 255 2 min 0,000 mm 4,6 UV-I 811 W/m 10,3 C 24,4 C 27,4 km/h (4 Bft) 100,00 %
16.06.2017 15:22 26,3 C 25,6 C 35 % 1013,6 hPa 0,0 l/m 22,1 km/h (4 Bft) SW 223 2 min 0,000 mm 4,6 UV-I 808 W/m 9,6 C 24,2 C 33,8 km/h (5 Bft) 92,11 %
16.06.2017 15:24 26,3 C 25,6 C 33 % 1013,6 hPa 0,0 l/m 29,1 km/h (5 Bft) SW 215 2 min 0,000 mm 4,5 UV-I 799 W/m 8,7 C 23,6 C 43,5 km/h (6 Bft) 100,00 %
16.06.2017 15:26 26,2 C 25,6 C 35 % 1013,6 hPa 0,0 l/m 27,5 km/h (4 Bft) SW 236 2 min 0,000 mm 4,3 UV-I 805 W/m 9,5 C 23,6 C 45,1 km/h (6 Bft) 98,00 %
16.06.2017 15:28 26,2 C 25,6 C 36 % 1013,6 hPa 0,0 l/m 20,1 km/h (4 Bft) SW 229 2 min 0,000 mm 4,4 UV-I 790 W/m 9,9 C 24,2 C 30,6 km/h (5 Bft) 93,62 %
16.06.2017 15:30 26,3 C 25,6 C 36 % 1013,6 hPa 0,0 l/m 16,6 km/h (3 Bft) W 268 2 min 0,000 mm 4,3 UV-I 787 W/m 10,0 C 24,7 C 27,4 km/h (4 Bft) 100,00 %
16.06.2017 15:32 26,2 C 25,6 C 37 % 1013,6 hPa 0,0 l/m 17,7 km/h (3 Bft) W 269 2 min 0,000 mm 4,4 UV-I 788 W/m 10,3 C 24,4 C 30,6 km/h (5 Bft) 100,00 %
16.06.2017 15:34 26,2 C 25,6 C 38 % 1013,6 hPa 0,0 l/m 11,3 km/h (2 Bft) W-SW 240 2 min 0,000 mm 4,2 UV-I 774 W/m 10,7 C 25,3 C 17,7 km/h (3 Bft) 98,11 %
16.06.2017 15:36 26,3 C 25,6 C 38 % 1013,5 hPa 0,0 l/m 9,9 km/h (2 Bft) O-SO 106 2 min 0,000 mm 4,2 UV-I 770 W/m 10,8 C 25,6 C 19,3 km/h (3 Bft) 97,56 %
16.06.2017 15:38 26,4 C 25,6 C 37 % 1013,6 hPa 0,0 l/m 16,0 km/h (3 Bft) W-SW 242 2 min 0,000 mm 4,2 UV-I 772 W/m 10,5 C 24,9 C 32,2 km/h (5 Bft) 100,00 %
16.06.2017 15:40 26,2 C 25,6 C 35 % 1013,5 hPa 0,0 l/m 15,3 km/h (3 Bft) W-NW 294 2 min 0,000 mm 4,1 UV-I 734 W/m 9,5 C 24,7 C 30,6 km/h (5 Bft) 98,00 %
16.06.2017 15:42 26,2 C 25,6 C 37 % 1013,4 hPa 0,0 l/m 12,6 km/h (3 Bft) NW 315 2 min 0,000 mm 4,1 UV-I 762 W/m 10,3 C 25,1 C 19,3 km/h (3 Bft) 100,00 %
16.06.2017 15:44 26,1 C 25,6 C 37 % 1013,5 hPa 0,0 l/m 13,2 km/h (3 Bft) W-NW 295 2 min 0,000 mm 4,1 UV-I 760 W/m 10,3 C 24,9 C 27,4 km/h (4 Bft) 95,74 %
16.06.2017 15:46 26,1 C 25,6 C 37 % 1013,5 hPa 0,0 l/m 12,6 km/h (3 Bft) W 270 2 min 0,000 mm 3,8 UV-I 755 W/m 10,3 C 25,0 C 25,7 km/h (4 Bft) 96,43 %
16.06.2017 15:48 25,9 C 25,6 C 38 % 1013,5 hPa 0,0 l/m 14,4 km/h (3 Bft) W-SW 251 2 min 0,000 mm 2,9 UV-I 758 W/m 10,5 C 24,5 C 27,4 km/h (4 Bft) 97,56 %
16.06.2017 15:50 25,9 C 25,6 C 39 % 1013,4 hPa 0,0 l/m 13,9 km/h (3 Bft) SW 224 2 min 0,000 mm 3,9 UV-I 753 W/m 10,9 C 24,5 C 22,5 km/h (4 Bft) 98,11 %
16.06.2017 15:52 26,1 C 25,6 C 38 % 1013,6 hPa 0,0 l/m 18,5 km/h (3 Bft) W 272 2 min 0,000 mm 3,8 UV-I 756 W/m 10,7 C 24,2 C 43,5 km/h (6 Bft) 97,62 %
16.06.2017 15:54 26,1 C 25,6 C 38 % 1013,6 hPa 0,0 l/m 17,7 km/h (3 Bft) W-SW 250 2 min 0,000 mm 3,8 UV-I 741 W/m 10,7 C 24,3 C 32,2 km/h (5 Bft) 100,00 %
16.06.2017 15:56 26,1 C 25,6 C 38 % 1013,5 hPa 0,0 l/m 20,3 km/h (4 Bft) W 261 2 min 0,000 mm 3,8 UV-I 740 W/m 10,7 C 24,1 C 30,6 km/h (5 Bft) 91,49 %
16.06.2017 15:58 26,1 C 25,6 C 37 % 1013,4 hPa 0,0 l/m 16,1 km/h (3 Bft) W-SW 257 2 min 0,000 mm 3,7 UV-I 729 W/m 10,3 C 24,5 C 25,7 km/h (4 Bft) 96,23 %
16.06.2017 16:00 26,2 C 25,6 C 38 % 1013,5 hPa 0,0 l/m 12,9 km/h (3 Bft) W-SW 240 2 min 0,000 mm 3,7 UV-I 742 W/m 10,7 C 25,0 C 25,7 km/h (4 Bft) 97,37 %
16.06.2017 16:02 26,4 C 25,6 C 37 % 1013,4 hPa 0,0 l/m 16,2 km/h (3 Bft) W-NW 294 2 min 0,661 mm 3,7 UV-I 689 W/m 10,5 C 24,9 C 32,2 km/h (5 Bft) 97,73 %
16.06.2017 16:04 26,3 C 25,6 C 35 % 1013,5 hPa 0,0 l/m 16,9 km/h (3 Bft) W 271 2 min 0,000 mm 3,6 UV-I 703 W/m 9,6 C 24,7 C 29,0 km/h (5 Bft) 90,57 %
16.06.2017 16:06 26,3 C 25,6 C 36 % 1013,6 hPa 0,0 l/m 19,5 km/h (3 Bft) W-SW 255 2 min 0,000 mm 3,6 UV-I 715 W/m 10,0 C 24,4 C 27,4 km/h (4 Bft) 98,00 %
16.06.2017 16:08 26,5 C 25,6 C 34 % 1013,6 hPa 0,0 l/m 18,7 km/h (3 Bft) W-SW 244 2 min 0,000 mm 3,5 UV-I 711 W/m 9,3 C 24,7 C 27,4 km/h (4 Bft) 97,73 %
16.06.2017 16:10 26,5 C 25,6 C 33 % 1013,6 hPa 0,0 l/m 19,9 km/h (4 Bft) W-SW 253 2 min 0,000 mm 3,5 UV-I 708 W/m 8,9 C 24,6 C 35,4 km/h (5 Bft) 97,37 %
16.06.2017 16:12 26,5 C 25,6 C 32 % 1013,4 hPa 0,0 l/m 12,2 km/h (2 Bft) W 267 2 min 0,000 mm 3,5 UV-I 709 W/m 8,4 C 25,5 C 27,4 km/h (4 Bft) 92,45 %
16.06.2017 16:14 26,6 C 25,6 C 34 % 1013,5 hPa 0,0 l/m 16,8 km/h (3 Bft) SW 217 2 min 0,000 mm 3,3 UV-I 694 W/m 9,4 C 25,0 C 32,2 km/h (5 Bft) 93,18 %
16.06.2017 16:16 26,4 C 25,6 C 33 % 1013,4 hPa 0,0 l/m 14,4 km/h (3 Bft) W-SW 254 2 min 0,000 mm 2,9 UV-I 640 W/m 8,8 C 25,1 C 25,7 km/h (4 Bft) 88,64 %
16.06.2017 16:18 26,4 C 25,6 C 33 % 1013,4 hPa 0,0 l/m 12,2 km/h (2 Bft) W-SW 253 2 min 0,000 mm 3,2 UV-I 576 W/m 8,8 C 25,4 C 24,1 km/h (4 Bft) 93,22 %
16.06.2017 16:20 26,4 C 25,6 C 32 % 1013,4 hPa 0,0 l/m 11,4 km/h (2 Bft) W-SW 244 2 min 0,000 mm 3,2 UV-I 660 W/m 8,4 C 25,5 C 20,9 km/h (4 Bft) 95,74 %
16.06.2017 16:23 26,3 C 25,6 C 29 % 1013,4 hPa 0,0 l/m 22,5 km/h (4 Bft) W-SW 248 3 min 0,000 mm 3,2 UV-I 609 W/m 6,8 C 24,1 C 40,2 km/h (6 Bft) 94,12 %
16.06.2017 16:24 26,3 C 25,6 C 29 % 1013,4 hPa 0,0 l/m 19,7 km/h (3 Bft) W-SW 251 1 min 0,000 mm 3,2 UV-I 685 W/m 6,8 C 24,4 C 32,2 km/h (5 Bft) 96,15 %
16.06.2017 16:26 26,2 C 25,6 C 30 % 1013,4 hPa 0,0 l/m 16,1 km/h (3 Bft) W-SW 252 2 min 0,000 mm 3,2 UV-I 694 W/m 7,2 C 24,6 C 29,0 km/h (5 Bft) 92,59 %
16.06.2017 16:28 26,3 C 25,6 C 31 % 1013,4 hPa 0,0 l/m 10,6 km/h (2 Bft) W-SW 258 2 min 0,000 mm 3,1 UV-I 686 W/m 7,8 C 25,5 C 19,3 km/h (3 Bft) 96,88 %
16.06.2017 16:30 26,3 C 25,6 C 30 % 1013,4 hPa 0,0 l/m 17,1 km/h (3 Bft) W 271 2 min 0,000 mm 3,0 UV-I 671 W/m 7,3 C 24,6 C 29,0 km/h (5 Bft) 100,00 %
16.06.2017 16:32 26,4 C 25,6 C 30 % 1013,5 hPa 0,0 l/m 19,5 km/h (3 Bft) N 355 2 min 0,000 mm 2,8 UV-I 613 W/m 7,4 C 24,5 C 30,6 km/h (5 Bft) 92,31 %
16.06.2017 16:34 26,3 C 25,6 C 31 % 1013,6 hPa 0,0 l/m 18,3 km/h (3 Bft) W 270 2 min 0,000 mm 3,0 UV-I 656 W/m 7,8 C 24,5 C 32,2 km/h (5 Bft) 100,00 %
16.06.2017 16:36 26,1 C 25,6 C 31 % 1013,8 hPa 0,0 l/m 25,5 km/h (4 Bft) W-SW 258 2 min 0,000 mm 2,8 UV-I 667 W/m 7,6 C 23,6 C 41,8 km/h (6 Bft) 100,00 %
16.06.2017 16:38 26,0 C 25,6 C 32 % 1013,4 hPa 0,0 l/m 17,9 km/h (3 Bft) W 259 2 min 0,000 mm 2,7 UV-I 650 W/m 8,0 C 24,2 C 40,2 km/h (6 Bft) 98,00 %
16.06.2017 16:40 25,9 C 25,6 C 32 % 1013,5 hPa 0,0 l/m 15,0 km/h (3 Bft) SW 217 2 min 0,000 mm 2,6 UV-I 559 W/m 7,9 C 24,4 C 22,5 km/h (4 Bft) 97,87 %
16.06.2017 16:42 25,9 C 25,6 C 32 % 1013,4 hPa 0,0 l/m 16,9 km/h (3 Bft) W-SW 245 2 min 0,000 mm 2,7 UV-I 567 W/m 7,9 C 24,2 C 35,4 km/h (5 Bft) 96,00 %
16.06.2017 16:44 25,9 C 25,6 C 33 % 1013,4 hPa 0,0 l/m 14,7 km/h (3 Bft) W 267 2 min 0,000 mm 2,5 UV-I 686 W/m 8,4 C 24,4 C 24,1 km/h (4 Bft) 100,00 %
16.06.2017 16:46 25,9 C 25,6 C 34 % 1013,4 hPa 0,0 l/m 13,4 km/h (3 Bft) W-SW 245 2 min 0,000 mm 2,1 UV-I 504 W/m 8,8 C 24,6 C 25,7 km/h (4 Bft) 100,00 %
16.06.2017 16:48 25,9 C 25,6 C 33 % 1013,4 hPa 0,0 l/m 16,0 km/h (3 Bft) W-NW 296 2 min 0,000 mm 1,8 UV-I 362 W/m 8,4 C 24,3 C 32,2 km/h (5 Bft) 97,37 %
16.06.2017 16:50 25,7 C 25,6 C 34 % 1013,4 hPa 0,0 l/m 13,0 km/h (3 Bft) W-SW 240 2 min 0,000 mm 1,9 UV-I 398 W/m 8,6 C 24,4 C 25,7 km/h (4 Bft) 94,92 %
16.06.2017 16:52 25,6 C 25,6 C 33 % 1013,5 hPa 0,0 l/m 18,5 km/h (3 Bft) W-SW 244 2 min 0,000 mm 2,0 UV-I 462 W/m 8,1 C 23,6 C 25,7 km/h (4 Bft) 97,37 %
16.06.2017 16:54 25,5 C 25,6 C 33 % 1013,5 hPa 0,0 l/m 15,8 km/h (3 Bft) W-SW 255 2 min 0,000 mm 2,1 UV-I 496 W/m 8,0 C 23,8 C 25,7 km/h (4 Bft) 98,00 %
16.06.2017 16:56 25,6 C 25,6 C 34 % 1013,5 hPa 0,0 l/m 18,8 km/h (3 Bft) W-SW 251 2 min 0,000 mm 2,3 UV-I 556 W/m 8,6 C 23,6 C 30,6 km/h (5 Bft) 97,73 %
16.06.2017 16:58 25,6 C 25,6 C 33 % 1013,4 hPa 0,0 l/m 18,7 km/h (3 Bft) W-NW 289 2 min 0,000 mm 2,1 UV-I 652 W/m 8,1 C 23,6 C 35,4 km/h (5 Bft) 100,00 %
16.06.2017 17:00 25,4 C 25,6 C 33 % 1013,6 hPa 0,0 l/m 18,4 km/h (3 Bft) W 267 2 min 0,559 mm 1,7 UV-I 348 W/m 7,9 C 23,4 C 35,4 km/h (5 Bft) 97,56 %
16.06.2017 17:02 25,2 C 25,6 C 33 % 1013,4 hPa 0,0 l/m 17,8 km/h (3 Bft) W-SW 238 2 min 0,000 mm 1,8 UV-I 352 W/m 7,8 C 23,2 C 30,6 km/h (5 Bft) 100,00 %
16.06.2017 17:04 25,1 C 25,6 C 32 % 1013,6 hPa 0,0 l/m 15,2 km/h (3 Bft) W-SW 242 2 min 0,000 mm 1,9 UV-I 416 W/m 7,2 C 23,4 C 24,1 km/h (4 Bft) 97,62 %
16.06.2017 17:06 25,1 C 25,6 C 33 % 1013,7 hPa 0,0 l/m 11,1 km/h (2 Bft) W 262 2 min 0,000 mm 2,1 UV-I 547 W/m 7,7 C 24,1 C 22,5 km/h (4 Bft) 100,00 %
16.06.2017 17:08 25,1 C 25,6 C 33 % 1013,5 hPa 0,0 l/m 12,4 km/h (3 Bft) W-NW 303 2 min 0,000 mm 2,0 UV-I 485 W/m 7,7 C 23,8 C 22,5 km/h (4 Bft) 95,74 %
16.06.2017 17:10 25,2 C 25,6 C 32 % 1013,5 hPa 0,0 l/m 8,3 km/h (2 Bft) O-SO 117 2 min 0,000 mm 1,8 UV-I 438 W/m 7,3 C 24,7 C 17,7 km/h (3 Bft) 100,00 %
16.06.2017 17:12 25,2 C 25,6 C 30 % 1013,6 hPa 0,0 l/m 13,3 km/h (3 Bft) W-SW 252 2 min 0,000 mm 1,8 UV-I 400 W/m 6,4 C 23,8 C 22,5 km/h (4 Bft) 97,14 %
16.06.2017 17:14 25,1 C 25,6 C 30 % 1013,6 hPa 0,0 l/m 12,5 km/h (3 Bft) N 355 2 min 0,000 mm 2,0 UV-I 471 W/m 6,3 C 23,8 C 22,5 km/h (4 Bft) 100,00 %
16.06.2017 17:16 25,1 C 25,6 C 31 % 1013,6 hPa 0,0 l/m 10,5 km/h (2 Bft) W-SW 254 2 min 0,000 mm 2,2 UV-I 638 W/m 6,8 C 24,2 C 24,1 km/h (4 Bft) 96,23 %
16.06.2017 17:18 25,3 C 25,6 C 29 % 1013,5 hPa 0,0 l/m 8,4 km/h (2 Bft) W-SW 248 2 min 0,000 mm 2,0 UV-I 539 W/m 6,0 C 24,8 C 14,5 km/h (3 Bft) 97,56 %
16.06.2017 17:20 25,3 C 25,6 C 29 % 1013,7 hPa 0,0 l/m 13,3 km/h (3 Bft) W 279 2 min 0,000 mm 1,9 UV-I 492 W/m 6,0 C 23,9 C 20,9 km/h (4 Bft) 98,21 %
16.06.2017 17:22 25,3 C 25,6 C 29 % 1013,7 hPa 0,0 l/m 17,1 km/h (3 Bft) W-NW 286 2 min 0,000 mm 1,9 UV-I 516 W/m 6,0 C 23,4 C 25,7 km/h (4 Bft) 100,00 %
16.06.2017 17:24 25,3 C 25,6 C 28 % 1013,7 hPa 0,0 l/m 14,7 km/h (3 Bft) W 275 2 min 0,000 mm 1,9 UV-I 519 W/m 5,5 C 23,7 C 25,7 km/h (4 Bft) 97,56 %
16.06.2017 17:26 25,4 C 25,6 C 29 % 1013,6 hPa 0,0 l/m 17,9 km/h (3 Bft) W-NW 293 2 min 0,000 mm 1,7 UV-I 448 W/m 6,1 C 23,4 C 25,7 km/h (4 Bft) 96,55 %
16.06.2017 17:28 25,3 C 25,6 C 28 % 1013,7 hPa 0,0 l/m 12,5 km/h (3 Bft) W-SW 254 2 min 0,000 mm 1,7 UV-I 477 W/m 5,5 C 24,0 C 25,7 km/h (4 Bft) 97,18 %
16.06.2017 17:30 25,3 C 25,6 C 27 % 1013,7 hPa 0,0 l/m 14,0 km/h (3 Bft) W 265 2 min 0,000 mm 1,7 UV-I 475 W/m 4,9 C 23,8 C 30,6 km/h (5 Bft) 100,00 %
16.06.2017 17:32 25,3 C 25,6 C 28 % 1013,7 hPa 0,0 l/m 13,2 km/h (3 Bft) W 268 2 min 0,000 mm 1,6 UV-I 462 W/m 5,5 C 23,9 C 22,5 km/h (4 Bft) 96,23 %
16.06.2017 17:34 25,3 C 25,6 C 28 % 1014,0 hPa 0,0 l/m 18,6 km/h (3 Bft) W-NW 284 2 min 0,000 mm 1,6 UV-I 453 W/m 5,5 C 23,2 C 32,2 km/h (5 Bft) 97,37 %
16.06.2017 17:36 25,2 C 25,6 C 28 % 1013,6 hPa 0,0 l/m 14,4 km/h (3 Bft) W 278 2 min 0,000 mm 1,6 UV-I 478 W/m 5,4 C 23,6 C 25,7 km/h (4 Bft) 97,87 %
16.06.2017 17:38 25,2 C 25,6 C 28 % 1013,7 hPa 0,0 l/m 13,2 km/h (3 Bft) SW 234 2 min 0,000 mm 1,6 UV-I 454 W/m 5,4 C 23,8 C 29,0 km/h (5 Bft) 98,00 %
16.06.2017 17:40 25,2 C 25,6 C 28 % 1013,8 hPa 0,0 l/m 13,8 km/h (3 Bft) W-SW 256 2 min 0,000 mm 1,5 UV-I 427 W/m 5,4 C 23,7 C 27,4 km/h (4 Bft) 91,49 %
16.06.2017 17:42 25,3 C 25,6 C 30 % 1013,9 hPa 0,0 l/m 14,2 km/h (3 Bft) W-SW 240 2 min 0,000 mm 1,5 UV-I 486 W/m 6,5 C 23,8 C 27,4 km/h (4 Bft) 96,00 %
16.06.2017 17:44 25,4 C 25,6 C 27 % 1013,8 hPa 0,0 l/m 12,6 km/h (3 Bft) W-NW 302 2 min 0,000 mm 1,5 UV-I 495 W/m 5,0 C 24,2 C 25,7 km/h (4 Bft) 92,31 %
16.06.2017 17:46 25,4 C 25,6 C 27 % 1013,9 hPa 0,0 l/m 15,5 km/h (3 Bft) W-SW 248 2 min 0,000 mm 1,4 UV-I 435 W/m 5,0 C 23,7 C 33,8 km/h (5 Bft) 98,00 %
16.06.2017 17:48 25,3 C 25,6 C 28 % 1013,8 hPa 0,0 l/m 12,5 km/h (3 Bft) N-NW 329 2 min 0,000 mm 1,3 UV-I 427 W/m 5,5 C 24,0 C 24,1 km/h (4 Bft) 95,12 %
16.06.2017 17:50 25,2 C 25,6 C 28 % 1013,7 hPa 0,0 l/m 13,2 km/h (3 Bft) NW 305 2 min 0,000 mm 1,4 UV-I 447 W/m 5,4 C 23,8 C 22,5 km/h (4 Bft) 92,31 %
16.06.2017 17:52 25,0 C 25,6 C 27 % 1013,7 hPa 0,0 l/m 13,2 km/h (3 Bft) W-NW 299 2 min 0,000 mm 1,1 UV-I 342 W/m 4,7 C 23,6 C 33,8 km/h (5 Bft) 93,62 %
16.06.2017 17:54 24,8 C 25,6 C 28 % 1013,7 hPa 0,0 l/m 14,5 km/h (3 Bft) W 266 0 min 0,000 mm 1,0 UV-I 220 W/m 5,0 C 23,1 C 29,0 km/h (5 Bft) 94,34 %
16.06.2017 17:56 24,7 C 25,6 C 28 % 1013,9 hPa 0,0 l/m 14,5 km/h (3 Bft) NW 305 0 min 0,000 mm 1,0 UV-I 229 W/m 5,0 C 23,0 C 29,0 km/h (5 Bft) 95,45 %
16.06.2017 17:58 24,4 C 25,6 C 29 % 1013,9 hPa 0,0 l/m 23,3 km/h (4 Bft) W-SW 248 0 min 0,000 mm 0,9 UV-I 173 W/m 5,2 C 21,5 C 45,1 km/h (6 Bft) 92,31 %
16.06.2017 18:00 24,3 C 25,6 C 29 % 1014,0 hPa 0,0 l/m 19,3 km/h (3 Bft) W-SW 252 0 min 0,431 mm 0,9 UV-I 206 W/m 5,1 C 21,8 C 35,4 km/h (5 Bft) 97,14 %
16.06.2017 18:02 24,3 C 25,6 C 28 % 1013,9 hPa 0,0 l/m 17,9 km/h (3 Bft) W 265 2 min 0,000 mm 1,0 UV-I 343 W/m 4,6 C 22,0 C 32,2 km/h (5 Bft) 92,11 %
16.06.2017 18:04 24,3 C 25,6 C 29 % 1013,9 hPa 0,0 l/m 14,2 km/h (3 Bft) W-SW 241 2 min 0,000 mm 1,1 UV-I 352 W/m 5,1 C 22,6 C 22,5 km/h (4 Bft) 89,29 %
16.06.2017 18:06 24,4 C 25,6 C 29 % 1014,1 hPa 0,0 l/m 20,0 km/h (4 Bft) W 260 2 min 0,000 mm 1,1 UV-I 372 W/m 5,2 C 21,9 C 43,5 km/h (6 Bft) 92,11 %
16.06.2017 18:08 24,5 C 25,6 C 29 % 1013,9 hPa 0,0 l/m 18,2 km/h (3 Bft) W 259 2 min 0,000 mm 1,2 UV-I 466 W/m 5,3 C 22,2 C 43,5 km/h (6 Bft) 96,00 %
16.06.2017 18:10 24,6 C 25,6 C 29 % 1013,9 hPa 0,0 l/m 19,9 km/h (4 Bft) W 279 2 min 0,000 mm 1,2 UV-I 462 W/m 5,4 C 22,2 C 33,8 km/h (5 Bft) 94,34 %
16.06.2017 18:12 24,7 C 25,6 C 29 % 1013,9 hPa 0,0 l/m 21,0 km/h (4 Bft) W-SW 244 2 min 0,000 mm 1,2 UV-I 448 W/m 5,5 C 22,2 C 48,3 km/h (6 Bft) 92,11 %
16.06.2017 18:14 24,7 C 25,6 C 29 % 1014,1 hPa 0,0 l/m 17,3 km/h (3 Bft) W-SW 248 2 min 0,000 mm 1,1 UV-I 410 W/m 5,5 C 22,6 C 30,6 km/h (5 Bft) 90,91 %
16.06.2017 18:16 24,7 C 25,6 C 30 % 1014,0 hPa 0,0 l/m 13,7 km/h (3 Bft) W 278 2 min 0,000 mm 1,0 UV-I 374 W/m 6,0 C 23,1 C 22,5 km/h (4 Bft) 90,00 %
16.06.2017 18:18 24,7 C 25,6 C 30 % 1014,1 hPa 0,0 l/m 14,2 km/h (3 Bft) SW 234 2 min 0,000 mm 1,0 UV-I 380 W/m 6,0 C 23,1 C 32,2 km/h (5 Bft) 92,00 %
16.06.2017 18:20 24,7 C 25,6 C 32 % 1014,0 hPa 0,0 l/m 12,8 km/h (3 Bft) W-NW 286 2 min 0,000 mm 1,0 UV-I 351 W/m 6,9 C 23,3 C 19,3 km/h (3 Bft) 94,34 %
16.06.2017 18:22 24,6 C 25,6 C 32 % 1013,9 hPa 0,0 l/m 16,1 km/h (3 Bft) W-NW 292 2 min 0,000 mm 0,9 UV-I 346 W/m 6,8 C 22,7 C 30,6 km/h (5 Bft) 97,87 %
16.06.2017 18:24 24,6 C 25,6 C 33 % 1014,0 hPa 0,0 l/m 16,3 km/h (3 Bft) W-SW 238 2 min 0,000 mm 0,9 UV-I 351 W/m 7,2 C 22,6 C 40,2 km/h (6 Bft) 95,24 %
16.06.2017 18:26 24,5 C 25,6 C 33 % 1014,0 hPa 0,0 l/m 16,2 km/h (3 Bft) S-SW 211 2 min 0,000 mm 0,9 UV-I 349 W/m 7,2 C 22,5 C 29,0 km/h (5 Bft) 92,11 %
16.06.2017 18:28 24,5 C 25,6 C 32 % 1014,0 hPa 0,0 l/m 17,3 km/h (3 Bft) NW 317 2 min 0,000 mm 0,9 UV-I 346 W/m 6,7 C 22,4 C 40,2 km/h (6 Bft) 89,83 %
16.06.2017 18:30 24,4 C 25,6 C 33 % 1014,0 hPa 0,0 l/m 13,6 km/h (3 Bft) N 355 2 min 0,000 mm 0,8 UV-I 335 W/m 7,1 C 22,8 C 20,9 km/h (4 Bft) 95,12 %
16.06.2017 18:32 24,4 C 25,6 C 34 % 1014,0 hPa 0,0 l/m 11,5 km/h (2 Bft) SW 217 2 min 0,000 mm 0,8 UV-I 330 W/m 7,5 C 23,2 C 27,4 km/h (4 Bft) 98,11 %
16.06.2017 18:34 24,4 C 25,6 C 34 % 1014,2 hPa 0,0 l/m 11,0 km/h (2 Bft) W-NW 290 2 min 0,000 mm 0,8 UV-I 302 W/m 7,5 C 23,3 C 17,7 km/h (3 Bft) 95,12 %
16.06.2017 18:36 24,5 C 25,6 C 35 % 1014,1 hPa 0,0 l/m 9,2 km/h (2 Bft) W 272 2 min 0,000 mm 0,8 UV-I 297 W/m 8,0 C 23,8 C 19,3 km/h (3 Bft) 94,34 %
16.06.2017 18:38 24,4 C 25,6 C 34 % 1014,2 hPa 0,0 l/m 14,8 km/h (3 Bft) W-SW 246 2 min 0,000 mm 0,7 UV-I 300 W/m 7,5 C 22,6 C 27,4 km/h (4 Bft) 87,23 %
16.06.2017 18:40 24,5 C 25,6 C 34 % 1014,2 hPa 0,0 l/m 7,1 km/h (2 Bft) N-NW 348 2 min 0,000 mm 0,7 UV-I 294 W/m 7,6 C 24,3 C 14,5 km/h (3 Bft) 95,12 %
16.06.2017 18:43 24,4 C 25,6 C 37 % 1014,2 hPa 0,0 l/m 9,5 km/h (2 Bft) W 272 3 min 0,000 mm 0,7 UV-I 242 W/m 8,8 C 23,6 C 20,9 km/h (4 Bft) 93,85 %
16.06.2017 18:44 24,3 C 25,6 C 37 % 1014,2 hPa 0,0 l/m 10,5 km/h (2 Bft) N-NW 330 1 min 0,000 mm 0,6 UV-I 242 W/m 8,7 C 23,3 C 17,7 km/h (3 Bft) 96,15 %
16.06.2017 18:46 24,2 C 25,6 C 37 % 1014,3 hPa 0,0 l/m 6,2 km/h (2 Bft) W-SW 247 2 min 0,000 mm 0,6 UV-I 203 W/m 8,6 C 24,2 C 14,5 km/h (3 Bft) 92,68 %
16.06.2017 18:48 23,9 C 25,6 C 37 % 1014,3 hPa 0,0 l/m 9,6 km/h (2 Bft) W-SW 252 0 min 0,000 mm 0,5 UV-I 151 W/m 8,3 C 23,0 C 19,3 km/h (3 Bft) 100,00 %
16.06.2017 18:50 23,8 C 25,6 C 38 % 1014,3 hPa 0,0 l/m 5,8 km/h (2 Bft) W 273 0 min 0,000 mm 0,5 UV-I 119 W/m 8,6 C 23,8 C 17,7 km/h (3 Bft) 95,74 %
16.06.2017 18:52 23,7 C 25,6 C 39 % 1014,3 hPa 0,0 l/m 8,0 km/h (2 Bft) W 273 2 min 0,000 mm 0,5 UV-I 185 W/m 8,9 C 23,2 C 14,5 km/h (3 Bft) 92,11 %
16.06.2017 18:54 23,6 C 25,6 C 39 % 1014,4 hPa 0,0 l/m 10,2 km/h (2 Bft) W-NW 298 2 min 0,000 mm 0,5 UV-I 222 W/m 8,8 C 22,6 C 30,6 km/h (5 Bft) 94,34 %
16.06.2017 18:56 23,7 C 25,6 C 39 % 1014,3 hPa 0,0 l/m 6,6 km/h (2 Bft) SO 125 2 min 0,000 mm 0,5 UV-I 248 W/m 8,9 C 23,6 C 14,5 km/h (3 Bft) 97,37 %
16.06.2017 18:58 23,7 C 25,6 C 39 % 1014,3 hPa 0,0 l/m 7,9 km/h (2 Bft) W-NW 288 2 min 0,000 mm 0,5 UV-I 240 W/m 8,9 C 23,3 C 16,1 km/h (3 Bft) 98,11 %
16.06.2017 19:00 23,8 C 25,6 C 39 % 1014,3 hPa 0,0 l/m 7,8 km/h (2 Bft) W-NW 296 2 min 0,331 mm 0,5 UV-I 234 W/m 9,0 C 23,4 C 19,3 km/h (3 Bft) 96,00 %
16.06.2017 19:02 23,9 C 25,6 C 38 % 1014,4 hPa 0,0 l/m 6,2 km/h (2 Bft) W-NW 292 2 min 0,000 mm 0,5 UV-I 224 W/m 8,7 C 23,9 C 14,5 km/h (3 Bft) 97,62 %
16.06.2017 19:04 23,8 C 25,6 C 38 % 1014,4 hPa 0,0 l/m 10,7 km/h (2 Bft) N-NW 329 2 min 0,000 mm 0,3 UV-I 209 W/m 8,6 C 22,7 C 16,1 km/h (3 Bft) 100,00 %
16.06.2017 19:06 23,9 C 25,6 C 38 % 1014,4 hPa 0,0 l/m 7,4 km/h (2 Bft) W 275 2 min 0,000 mm 0,0 UV-I 193 W/m 8,7 C 23,6 C 11,3 km/h (2 Bft) 97,22 %
16.06.2017 19:08 23,8 C 25,6 C 38 % 1014,5 hPa 0,0 l/m 8,4 km/h (2 Bft) W 271 2 min 0,000 mm 0,0 UV-I 183 W/m 8,6 C 23,2 C 17,7 km/h (3 Bft) 94,34 %
16.06.2017 19:10 23,7 C 25,6 C 38 % 1014,5 hPa 0,0 l/m 10,3 km/h (2 Bft) W-SW 252 2 min 0,000 mm 0,0 UV-I 177 W/m 8,5 C 22,7 C 20,9 km/h (4 Bft) 98,00 %
16.06.2017 19:12 23,7 C 25,6 C 39 % 1014,6 hPa 0,0 l/m 9,7 km/h (2 Bft) W 271 2 min 0,000 mm 0,0 UV-I 175 W/m 8,9 C 22,8 C 19,3 km/h (3 Bft) 91,49 %
16.06.2017 19:14 23,6 C 25,6 C 40 % 1014,5 hPa 0,0 l/m 7,1 km/h (2 Bft) W 271 2 min 0,000 mm 0,0 UV-I 151 W/m 9,2 C 23,4 C 12,9 km/h (3 Bft) 95,12 %
16.06.2017 19:16 23,5 C 25,6 C 40 % 1014,6 hPa 0,0 l/m 4,5 km/h (1 Bft) SW 231 2 min 0,000 mm 0,0 UV-I 181 W/m 9,1 C 23,5 C 16,1 km/h (3 Bft) 97,87 %
16.06.2017 19:18 23,4 C 25,6 C 39 % 1014,5 hPa 0,0 l/m 10,8 km/h (2 Bft) SW 217 2 min 0,000 mm 0,0 UV-I 177 W/m 8,6 C 22,2 C 27,4 km/h (4 Bft) 97,87 %
16.06.2017 19:20 23,4 C 25,6 C 40 % 1014,6 hPa 0,0 l/m 9,2 km/h (2 Bft) W-NW 303 2 min 0,000 mm 0,0 UV-I 165 W/m 9,0 C 22,6 C 16,1 km/h (3 Bft) 97,73 %
16.06.2017 19:22 23,3 C 25,6 C 38 % 1014,6 hPa 0,0 l/m 14,6 km/h (3 Bft) NW 306 2 min 0,000 mm 0,0 UV-I 153 W/m 8,2 C 21,3 C 29,0 km/h (5 Bft) 98,00 %
16.06.2017 19:24 23,3 C 25,6 C 39 % 1014,8 hPa 0,0 l/m 12,8 km/h (3 Bft) W-SW 248 2 min 0,000 mm 0,0 UV-I 164 W/m 8,6 C 21,7 C 24,1 km/h (4 Bft) 96,23 %
16.06.2017 19:26 23,2 C 25,6 C 38 % 1014,7 hPa 0,0 l/m 11,7 km/h (2 Bft) SW 214 2 min 0,000 mm 0,0 UV-I 162 W/m 8,1 C 21,8 C 24,1 km/h (4 Bft) 97,37 %
16.06.2017 19:28 23,2 C 25,6 C 38 % 1014,7 hPa 0,0 l/m 13,8 km/h (3 Bft) W-SW 249 2 min 0,000 mm 0,0 UV-I 158 W/m 8,1 C 21,3 C 24,1 km/h (4 Bft) 96,23 %
16.06.2017 19:30 23,2 C 25,6 C 39 % 1014,6 hPa 0,0 l/m 14,5 km/h (3 Bft) W 261 2 min 0,000 mm 0,0 UV-I 155 W/m 8,5 C 21,2 C 25,7 km/h (4 Bft) 100,00 %
16.06.2017 19:32 23,1 C 25,6 C 39 % 1014,8 hPa 0,0 l/m 10,2 km/h (2 Bft) S-SW 213 0 min 0,000 mm 0,0 UV-I 111 W/m 8,4 C 22,0 C 20,9 km/h (4 Bft) 100,00 %
16.06.2017 19:34 23,0 C 25,6 C 39 % 1014,8 hPa 0,0 l/m 6,8 km/h (2 Bft) W 265 0 min 0,000 mm 0,0 UV-I 64 W/m 8,3 C 22,9 C 14,5 km/h (3 Bft) 100,00 %
16.06.2017 19:36 22,8 C 25,6 C 40 % 1014,8 hPa 0,0 l/m 4,0 km/h (1 Bft) NW 323 0 min 0,000 mm 0,0 UV-I 71 W/m 8,5 C 22,8 C 12,9 km/h (3 Bft) 98,11 %
16.06.2017 19:38 22,7 C 25,6 C 40 % 1014,8 hPa 0,0 l/m 9,1 km/h (2 Bft) W 261 0 min 0,000 mm 0,0 UV-I 111 W/m 8,4 C 21,9 C 16,1 km/h (3 Bft) 97,73 %
16.06.2017 19:40 22,7 C 25,6 C 40 % 1014,9 hPa 0,0 l/m 8,9 km/h (2 Bft) NW 323 0 min 0,000 mm 0,0 UV-I 106 W/m 8,4 C 21,9 C 25,7 km/h (4 Bft) 98,11 %
16.06.2017 19:43 22,6 C 25,6 C 41 % 1014,9 hPa 0,0 l/m 8,2 km/h (2 Bft) SW 228 3 min 0,000 mm 0,0 UV-I 121 W/m 8,7 C 22,0 C 16,1 km/h (3 Bft) 98,59 %
16.06.2017 19:44 22,6 C 25,6 C 41 % 1014,9 hPa 0,0 l/m 7,4 km/h (2 Bft) N 355 1 min 0,000 mm 0,0 UV-I 128 W/m 8,7 C 22,3 C 14,5 km/h (3 Bft) 100,00 %
16.06.2017 19:46 22,6 C 25,6 C 40 % 1014,9 hPa 0,0 l/m 11,6 km/h (2 Bft) S-SW 213 2 min 0,000 mm 0,0 UV-I 121 W/m 8,3 C 21,1 C 25,7 km/h (4 Bft) 96,00 %
16.06.2017 19:48 22,6 C 25,6 C 40 % 1015,0 hPa 0,0 l/m 13,4 km/h (3 Bft) W-NW 301 2 min 0,000 mm 0,0 UV-I 118 W/m 8,3 C 20,7 C 27,4 km/h (4 Bft) 95,74 %
16.06.2017 19:50 22,6 C 25,6 C 40 % 1015,0 hPa 0,0 l/m 6,2 km/h (2 Bft) W 260 2 min 0,000 mm 0,0 UV-I 121 W/m 8,3 C 22,6 C 12,9 km/h (3 Bft) 95,74 %
16.06.2017 19:52 22,6 C 25,6 C 40 % 1015,1 hPa 0,0 l/m 14,0 km/h (3 Bft) W 278 2 min 0,000 mm 0,0 UV-I 119 W/m 8,3 C 20,6 C 38,6 km/h (5 Bft) 95,74 %
16.06.2017 19:54 22,6 C 25,6 C 40 % 1015,0 hPa 0,0 l/m 9,5 km/h (2 Bft) W-NW 286 2 min 0,000 mm 0,0 UV-I 116 W/m 8,3 C 21,6 C 24,1 km/h (4 Bft) 97,73 %
16.06.2017 19:56 22,6 C 25,6 C 39 % 1015,1 hPa 0,0 l/m 12,7 km/h (3 Bft) SW 230 2 min 0,000 mm 0,0 UV-I 107 W/m 7,9 C 20,9 C 27,4 km/h (4 Bft) 98,11 %
16.06.2017 19:58 22,5 C 25,6 C 39 % 1015,2 hPa 0,0 l/m 13,7 km/h (3 Bft) W 259 0 min 0,000 mm 0,0 UV-I 81 W/m 7,8 C 20,5 C 19,3 km/h (3 Bft) 97,37 %
16.06.2017 20:00 22,4 C 25,6 C 39 % 1015,2 hPa 0,0 l/m 14,0 km/h (3 Bft) S-SW 209 0 min 0,177 mm 0,0 UV-I 68 W/m 7,8 C 20,4 C 29,0 km/h (5 Bft) 98,11 %
16.06.2017 20:02 22,4 C 25,6 C 40 % 1015,2 hPa 0,0 l/m 10,5 km/h (2 Bft) W-SW 251 0 min 0,000 mm 0,0 UV-I 67 W/m 8,1 C 21,2 C 22,5 km/h (4 Bft) 95,74 %
16.06.2017 20:04 22,3 C 25,6 C 40 % 1015,2 hPa 0,0 l/m 11,2 km/h (2 Bft) W-SW 252 0 min 0,000 mm 0,0 UV-I 53 W/m 8,0 C 20,9 C 22,5 km/h (4 Bft) 96,00 %
16.06.2017 20:06 22,3 C 25,6 C 40 % 1015,2 hPa 0,0 l/m 7,5 km/h (2 Bft) W 259 0 min 0,000 mm 0,0 UV-I 45 W/m 8,0 C 21,9 C 17,7 km/h (3 Bft) 97,56 %
16.06.2017 20:08 22,2 C 25,6 C 40 % 1015,3 hPa 0,0 l/m 9,1 km/h (2 Bft) W-SW 248 0 min 0,000 mm 0,0 UV-I 61 W/m 8,0 C 21,3 C 17,7 km/h (3 Bft) 92,45 %
16.06.2017 20:10 22,1 C 25,6 C 41 % 1015,3 hPa 0,0 l/m 8,3 km/h (2 Bft) W 275 0 min 0,000 mm 0,0 UV-I 65 W/m 8,2 C 21,5 C 14,5 km/h (3 Bft) 96,00 %
16.06.2017 20:12 22,0 C 25,6 C 41 % 1015,3 hPa 0,0 l/m 7,8 km/h (2 Bft) W-SW 250 0 min 0,000 mm 0,0 UV-I 49 W/m 8,1 C 21,5 C 17,7 km/h (3 Bft) 95,12 %
16.06.2017 20:14 21,9 C 25,0 C 41 % 1015,3 hPa 0,0 l/m 5,4 km/h (1 Bft) W-SW 246 0 min 0,000 mm 0,0 UV-I 48 W/m 8,0 C 21,9 C 9,7 km/h (2 Bft) 96,23 %
16.06.2017 20:16 21,8 C 25,0 C 42 % 1015,3 hPa 0,0 l/m 4,9 km/h (1 Bft) W 267 0 min 0,000 mm 0,0 UV-I 55 W/m 8,3 C 21,8 C 11,3 km/h (2 Bft) 100,00 %
16.06.2017 20:18 21,8 C 25,0 C 42 % 1015,3 hPa 0,0 l/m 4,8 km/h (1 Bft) W 271 2 min 0,000 mm 0,0 UV-I 65 W/m 8,3 C 21,8 C 11,3 km/h (2 Bft) 95,74 %
16.06.2017 20:20 21,7 C 25,0 C 42 % 1015,3 hPa 0,0 l/m 5,4 km/h (1 Bft) W 265 2 min 0,000 mm 0,0 UV-I 65 W/m 8,2 C 21,7 C 12,9 km/h (3 Bft) 95,56 %
16.06.2017 20:22 21,7 C 25,0 C 43 % 1015,3 hPa 0,0 l/m 5,6 km/h (1 Bft) W 269 2 min 0,000 mm 0,0 UV-I 57 W/m 8,6 C 21,7 C 11,3 km/h (2 Bft) 98,00 %
16.06.2017 20:24 21,6 C 25,0 C 44 % 1015,4 hPa 0,0 l/m 7,4 km/h (2 Bft) W 260 2 min 0,000 mm 0,0 UV-I 50 W/m 8,8 C 21,2 C 11,3 km/h (2 Bft) 90,91 %
16.06.2017 20:26 21,4 C 25,0 C 44 % 1015,3 hPa 0,0 l/m 8,9 km/h (2 Bft) W 277 2 min 0,000 mm 0,0 UV-I 45 W/m 8,6 C 20,5 C 22,5 km/h (4 Bft) 100,00 %
16.06.2017 20:28 21,4 C 25,0 C 44 % 1015,3 hPa 0,0 l/m 9,2 km/h (2 Bft) W-SW 246 2 min 0,000 mm 0,0 UV-I 42 W/m 8,6 C 20,4 C 20,9 km/h (4 Bft) 96,00 %
16.06.2017 20:30 21,4 C 25,0 C 44 % 1015,4 hPa 0,0 l/m 7,7 km/h (2 Bft) W-SW 239 2 min 0,000 mm 0,0 UV-I 40 W/m 8,6 C 20,9 C 16,1 km/h (3 Bft) 100,00 %
16.06.2017 20:32 21,3 C 25,0 C 45 % 1015,4 hPa 0,0 l/m 10,0 km/h (2 Bft) NW 310 2 min 0,000 mm 0,0 UV-I 39 W/m 8,9 C 20,1 C 19,3 km/h (3 Bft) 100,00 %
16.06.2017 20:34 21,3 C 25,0 C 45 % 1015,4 hPa 0,0 l/m 8,0 km/h (2 Bft) NW 305 2 min 0,000 mm 0,0 UV-I 38 W/m 8,9 C 20,7 C 14,5 km/h (3 Bft) 98,00 %
16.06.2017 20:36 21,3 C 25,0 C 45 % 1015,4 hPa 0,0 l/m 8,9 km/h (2 Bft) W 261 2 min 0,000 mm 0,0 UV-I 37 W/m 8,9 C 20,4 C 14,5 km/h (3 Bft) 98,00 %
16.06.2017 20:38 21,2 C 25,0 C 46 % 1015,5 hPa 0,0 l/m 11,0 km/h (2 Bft) W-SW 251 2 min 0,000 mm 0,0 UV-I 33 W/m 9,1 C 19,7 C 20,9 km/h (4 Bft) 97,73 %
16.06.2017 20:40 21,2 C 25,0 C 46 % 1015,5 hPa 0,0 l/m 7,2 km/h (2 Bft) SW 225 2 min 0,000 mm 0,0 UV-I 31 W/m 9,1 C 20,9 C 16,1 km/h (3 Bft) 97,73 %
16.06.2017 20:42 21,1 C 25,0 C 46 % 1015,5 hPa 0,0 l/m 10,7 km/h (2 Bft) W 275 2 min 0,000 mm 0,0 UV-I 27 W/m 9,0 C 19,7 C 19,3 km/h (3 Bft) 100,00 %
16.06.2017 20:44 21,1 C 25,0 C 46 % 1015,5 hPa 0,0 l/m 8,9 km/h (2 Bft) W-NW 290 2 min 0,000 mm 0,0 UV-I 25 W/m 9,0 C 20,2 C 14,5 km/h (3 Bft) 96,43 %
16.06.2017 20:46 21,1 C 25,0 C 47 % 1015,6 hPa 0,0 l/m 9,6 km/h (2 Bft) W-SW 247 2 min 0,000 mm 0,0 UV-I 22 W/m 9,3 C 20,0 C 16,1 km/h (3 Bft) 95,74 %
16.06.2017 20:48 21,0 C 25,0 C 47 % 1015,7 hPa 0,0 l/m 10,9 km/h (2 Bft) NW 312 2 min 0,000 mm 0,0 UV-I 20 W/m 9,3 C 19,5 C 19,3 km/h (3 Bft) 100,00 %
16.06.2017 20:50 20,9 C 25,0 C 47 % 1015,6 hPa 0,0 l/m 13,1 km/h (3 Bft) NW 324 2 min 0,000 mm 0,0 UV-I 18 W/m 9,2 C 18,8 C 27,4 km/h (4 Bft) 97,87 %
16.06.2017 20:52 20,9 C 25,0 C 48 % 1015,7 hPa 0,0 l/m 12,9 km/h (3 Bft) W-SW 239 2 min 0,000 mm 0,0 UV-I 17 W/m 9,5 C 18,8 C 22,5 km/h (4 Bft) 97,37 %
16.06.2017 20:54 20,9 C 25,0 C 48 % 1015,7 hPa 0,0 l/m 12,2 km/h (2 Bft) SW 236 0 min 0,000 mm 0,0 UV-I 14 W/m 9,5 C 19,0 C 20,9 km/h (4 Bft) 98,11 %
16.06.2017 20:56 20,8 C 25,0 C 48 % 1015,7 hPa 0,0 l/m 10,3 km/h (2 Bft) W-SW 243 0 min 0,000 mm 0,0 UV-I 13 W/m 9,4 C 19,4 C 22,5 km/h (4 Bft) 100,00 %
16.06.2017 20:58 20,8 C 25,0 C 49 % 1015,8 hPa 0,0 l/m 9,6 km/h (2 Bft) NW 304 0 min 0,000 mm 0,0 UV-I 11 W/m 9,7 C 19,6 C 30,6 km/h (5 Bft) 98,28 %
16.06.2017 21:00 20,7 C 25,0 C 49 % 1015,8 hPa 0,0 l/m 4,4 km/h (1 Bft) W-SW 244 0 min 0,000 mm 0,0 UV-I 10 W/m 9,6 C 20,7 C 12,9 km/h (3 Bft) 100,00 %
16.06.2017 21:02 20,7 C 25,0 C 49 % 1015,8 hPa 0,0 l/m 10,1 km/h (2 Bft) W-SW 252 0 min 0,102 mm 0,0 UV-I 8 W/m 9,6 C 19,4 C 20,9 km/h (4 Bft) 100,00 %
16.06.2017 21:04 20,6 C 25,0 C 49 % 1015,9 hPa 0,0 l/m 11,0 km/h (2 Bft) S 189 0 min 0,000 mm 0,0 UV-I 7 W/m 9,5 C 19,0 C 22,5 km/h (4 Bft) 100,00 %
16.06.2017 21:06 20,6 C 25,0 C 50 % 1015,9 hPa 0,0 l/m 9,7 km/h (2 Bft) SW 227 0 min 0,000 mm 0,0 UV-I 7 W/m 9,8 C 19,4 C 14,5 km/h (3 Bft) 95,12 %
16.06.2017 21:08 20,5 C 25,0 C 50 % 1016,0 hPa 0,0 l/m 10,2 km/h (2 Bft) NW 324 0 min 0,000 mm 0,0 UV-I 5 W/m 9,7 C 19,1 C 14,5 km/h (3 Bft) 100,00 %
16.06.2017 21:10 20,4 C 25,0 C 50 % 1016,0 hPa 0,0 l/m 7,1 km/h (2 Bft) W-SW 257 0 min 0,000 mm 0,0 UV-I 5 W/m 9,6 C 20,1 C 14,5 km/h (3 Bft) 98,11 %
16.06.2017 21:12 20,4 C 25,0 C 50 % 1015,9 hPa 0,0 l/m 11,3 km/h (2 Bft) SW 232 0 min 0,000 mm 0,0 UV-I 5 W/m 9,6 C 18,7 C 19,3 km/h (3 Bft) 94,74 %
16.06.2017 21:14 20,4 C 25,0 C 50 % 1016,1 hPa 0,0 l/m 9,8 km/h (2 Bft) W-SW 250 0 min 0,000 mm 0,0 UV-I 5 W/m 9,6 C 19,1 C 22,5 km/h (4 Bft) 100,00 %
16.06.2017 21:16 20,3 C 25,0 C 50 % 1016,1 hPa 0,0 l/m 8,5 km/h (2 Bft) SW 234 0 min 0,000 mm 0,0 UV-I 5 W/m 9,5 C 19,5 C 20,9 km/h (4 Bft) 98,00 %
16.06.2017 21:18 20,3 C 25,0 C 50 % 1016,1 hPa 0,0 l/m 12,1 km/h (2 Bft) SW 225 0 min 0,000 mm 0,0 UV-I 2 W/m 9,5 C 18,3 C 24,1 km/h (4 Bft) 97,56 %
16.06.2017 21:20 20,3 C 25,0 C 50 % 1016,1 hPa 0,0 l/m 9,8 km/h (2 Bft) S-SO 165 0 min 0,000 mm 0,0 UV-I 0 W/m 9,5 C 19,0 C 17,7 km/h (3 Bft) 100,00 %
16.06.2017 21:22 20,3 C 25,0 C 50 % 1016,2 hPa 0,0 l/m 6,6 km/h (2 Bft) W-SW 249 0 min 0,000 mm 0,0 UV-I 0 W/m 9,5 C 20,2 C 11,3 km/h (2 Bft) 94,34 %
16.06.2017 21:24 20,3 C 25,0 C 50 % 1016,2 hPa 0,0 l/m 10,3 km/h (2 Bft) W-SW 241 0 min 0,000 mm 0,0 UV-I 0 W/m 9,5 C 18,9 C 20,9 km/h (4 Bft) 97,56 %
16.06.2017 21:26 20,3 C 25,0 C 50 % 1016,2 hPa 0,0 l/m 13,4 km/h (3 Bft) W-SW 254 0 min 0,000 mm 0,0 UV-I 0 W/m 9,5 C 18,0 C 22,5 km/h (4 Bft) 98,21 %
16.06.2017 21:28 20,3 C 25,0 C 50 % 1016,3 hPa 0,0 l/m 10,1 km/h (2 Bft) W 273 0 min 0,000 mm 0,0 UV-I 0 W/m 9,5 C 18,9 C 16,1 km/h (3 Bft) 100,00 %
16.06.2017 21:30 20,3 C 25,0 C 50 % 1016,3 hPa 0,0 l/m 11,7 km/h (2 Bft) W-SW 245 0 min 0,000 mm 0,0 UV-I 0 W/m 9,5 C 18,5 C 19,3 km/h (3 Bft) 97,87 %
16.06.2017 21:32 20,3 C 25,0 C 50 % 1016,3 hPa 0,0 l/m 9,0 km/h (2 Bft) W-SW 244 0 min 0,000 mm 0,0 UV-I 0 W/m 9,5 C 19,3 C 16,1 km/h (3 Bft) 100,00 %
16.06.2017 21:34 20,3 C 25,0 C 50 % 1016,4 hPa 0,0 l/m 11,0 km/h (2 Bft) W-SW 249 0 min 0,000 mm 0,0 UV-I 0 W/m 9,5 C 18,7 C 24,1 km/h (4 Bft) 97,37 %
16.06.2017 21:36 20,3 C 25,0 C 50 % 1016,5 hPa 0,0 l/m 12,0 km/h (2 Bft) NW 319 0 min 0,000 mm 0,0 UV-I 0 W/m 9,5 C 18,4 C 17,7 km/h (3 Bft) 98,00 %
16.06.2017 21:38 20,2 C 25,0 C 50 % 1016,5 hPa 0,0 l/m 11,6 km/h (2 Bft) W-SW 252 0 min 0,000 mm 0,0 UV-I 0 W/m 9,4 C 18,4 C 20,9 km/h (4 Bft) 88,00 %
16.06.2017 21:40 20,2 C 25,0 C 50 % 1016,6 hPa 0,0 l/m 10,6 km/h (2 Bft) W 274 0 min 0,000 mm 0,0 UV-I 0 W/m 9,4 C 18,7 C 19,3 km/h (3 Bft) 92,86 %
16.06.2017 21:42 20,2 C 25,0 C 50 % 1016,6 hPa 0,0 l/m 11,6 km/h (2 Bft) W 273 0 min 0,000 mm 0,0 UV-I 0 W/m 9,4 C 18,4 C 27,4 km/h (4 Bft) 90,00 %
16.06.2017 21:44 20,2 C 25,0 C 49 % 1016,6 hPa 0,0 l/m 12,2 km/h (2 Bft) W-SW 245 0 min 0,000 mm 0,0 UV-I 0 W/m 9,1 C 18,2 C 22,5 km/h (4 Bft) 96,23 %
16.06.2017 21:46 20,2 C 25,0 C 50 % 1016,6 hPa 0,0 l/m 12,6 km/h (3 Bft) W 262 0 min 0,000 mm 0,0 UV-I 0 W/m 9,4 C 18,1 C 24,1 km/h (4 Bft) 92,11 %
16.06.2017 21:48 20,2 C 25,0 C 50 % 1016,6 hPa 0,0 l/m 10,6 km/h (2 Bft) W-SW 252 0 min 0,000 mm 0,0 UV-I 0 W/m 9,4 C 18,7 C 17,7 km/h (3 Bft) 96,00 %
16.06.2017 21:50 20,2 C 25,0 C 50 % 1016,7 hPa 0,0 l/m 11,2 km/h (2 Bft) W 273 0 min 0,000 mm 0,0 UV-I 0 W/m 9,4 C 18,5 C 24,1 km/h (4 Bft) 90,24 %
16.06.2017 21:52 20,2 C 25,0 C 50 % 1016,6 hPa 0,0 l/m 11,1 km/h (2 Bft) W 266 0 min 0,000 mm 0,0 UV-I 0 W/m 9,4 C 18,5 C 19,3 km/h (3 Bft) 90,57 %
16.06.2017 21:54 20,1 C 25,0 C 50 % 1016,6 hPa 0,0 l/m 10,6 km/h (2 Bft) W 262 0 min 0,000 mm 0,0 UV-I 0 W/m 9,3 C 18,6 C 19,3 km/h (3 Bft) 95,12 %
16.06.2017 21:56 20,1 C 25,0 C 50 % 1016,7 hPa 0,0 l/m 10,0 km/h (2 Bft) SW 233 0 min 0,000 mm 0,0 UV-I 0 W/m 9,3 C 18,8 C 14,5 km/h (3 Bft) 95,45 %
16.06.2017 21:58 20,1 C 25,0 C 50 % 1016,7 hPa 0,0 l/m 9,5 km/h (2 Bft) W 263 0 min 0,000 mm 0,0 UV-I 0 W/m 9,3 C 18,9 C 14,5 km/h (3 Bft) 96,88 %
16.06.2017 22:00 20,0 C 25,0 C 49 % 1016,7 hPa 0,0 l/m 8,8 km/h (2 Bft) W 264 0 min 0,076 mm 0,0 UV-I 0 W/m 9,0 C 19,1 C 24,1 km/h (4 Bft) 93,85 %
16.06.2017 22:02 20,0 C 25,0 C 49 % 1016,8 hPa 0,0 l/m 13,9 km/h (3 Bft) W-SW 256 0 min 0,000 mm 0,0 UV-I 0 W/m 9,0 C 17,5 C 22,5 km/h (4 Bft) 94,00 %
16.06.2017 22:04 20,0 C 25,0 C 50 % 1016,8 hPa 0,0 l/m 15,0 km/h (3 Bft) W-SW 254 0 min 0,000 mm 0,0 UV-I 0 W/m 9,3 C 17,2 C 24,1 km/h (4 Bft) 94,34 %
16.06.2017 22:06 20,0 C 25,0 C 49 % 1016,8 hPa 0,0 l/m 11,2 km/h (2 Bft) W-SW 244 0 min 0,000 mm 0,0 UV-I 0 W/m 9,0 C 18,3 C 24,1 km/h (4 Bft) 94,74 %
16.06.2017 22:08 20,0 C 25,0 C 49 % 1016,8 hPa 0,0 l/m 11,0 km/h (2 Bft) W-SW 244 0 min 0,000 mm 0,0 UV-I 0 W/m 9,0 C 18,3 C 16,1 km/h (3 Bft) 92,00 %
16.06.2017 22:10 20,0 C 25,0 C 49 % 1016,8 hPa 0,0 l/m 12,0 km/h (2 Bft) SW 236 0 min 0,000 mm 0,0 UV-I 0 W/m 9,0 C 18,0 C 22,5 km/h (4 Bft) 96,00 %
16.06.2017 22:12 20,0 C 25,0 C 50 % 1016,9 hPa 0,0 l/m 14,1 km/h (3 Bft) SW 235 0 min 0,000 mm 0,0 UV-I 0 W/m 9,3 C 17,5 C 22,5 km/h (4 Bft) 91,49 %
16.06.2017 22:14 20,0 C 25,0 C 49 % 1016,9 hPa 0,0 l/m 16,1 km/h (3 Bft) W 265 0 min 0,000 mm 0,0 UV-I 0 W/m 9,0 C 17,0 C 30,6 km/h (5 Bft) 95,74 %
16.06.2017 22:16 20,0 C 25,0 C 50 % 1016,9 hPa 0,0 l/m 11,8 km/h (2 Bft) W 263 0 min 0,000 mm 0,0 UV-I 0 W/m 9,3 C 18,1 C 16,1 km/h (3 Bft) 95,74 %
16.06.2017 22:18 19,9 C 25,0 C 50 % 1016,9 hPa 0,0 l/m 12,2 km/h (2 Bft) W 265 0 min 0,000 mm 0,0 UV-I 0 W/m 9,2 C 17,9 C 17,7 km/h (3 Bft) 94,87 %
16.06.2017 22:20 19,9 C 25,0 C 50 % 1016,9 hPa 0,0 l/m 12,2 km/h (2 Bft) W 268 0 min 0,000 mm 0,0 UV-I 0 W/m 9,2 C 17,9 C 19,3 km/h (3 Bft) 96,00 %
16.06.2017 22:22 19,9 C 25,0 C 51 % 1016,9 hPa 0,0 l/m 10,4 km/h (2 Bft) W 259 0 min 0,000 mm 0,0 UV-I 0 W/m 9,5 C 18,4 C 12,9 km/h (3 Bft) 94,34 %
16.06.2017 22:24 19,9 C 25,0 C 51 % 1016,9 hPa 0,0 l/m 15,2 km/h (3 Bft) W-SW 244 0 min 0,000 mm 0,0 UV-I 0 W/m 9,5 C 17,1 C 27,4 km/h (4 Bft) 94,74 %
16.06.2017 22:26 19,8 C 25,0 C 51 % 1016,9 hPa 0,0 l/m 14,1 km/h (3 Bft) W 276 0 min 0,000 mm 0,0 UV-I 0 W/m 9,4 C 17,2 C 20,9 km/h (4 Bft) 96,43 %
16.06.2017 22:28 19,8 C 25,0 C 51 % 1017,0 hPa 0,0 l/m 13,8 km/h (3 Bft) SW 236 0 min 0,000 mm 0,0 UV-I 0 W/m 9,4 C 17,3 C 20,9 km/h (4 Bft) 97,37 %
16.06.2017 22:30 19,8 C 25,0 C 51 % 1017,0 hPa 0,0 l/m 17,0 km/h (3 Bft) W-SW 247 0 min 0,000 mm 0,0 UV-I 0 W/m 9,4 C 16,6 C 29,0 km/h (5 Bft) 96,23 %
16.06.2017 22:32 19,8 C 25,0 C 51 % 1017,0 hPa 0,0 l/m 17,1 km/h (3 Bft) W 275 0 min 0,000 mm 0,0 UV-I 0 W/m 9,4 C 16,5 C 25,7 km/h (4 Bft) 97,37 %
16.06.2017 22:34 19,8 C 25,0 C 51 % 1017,0 hPa 0,0 l/m 14,8 km/h (3 Bft) W-NW 286 0 min 0,000 mm 0,0 UV-I 0 W/m 9,4 C 17,1 C 22,5 km/h (4 Bft) 96,23 %
16.06.2017 22:36 19,7 C 25,0 C 51 % 1017,0 hPa 0,0 l/m 12,2 km/h (2 Bft) W-SW 244 0 min 0,000 mm 0,0 UV-I 0 W/m 9,3 C 17,6 C 20,9 km/h (4 Bft) 96,23 %
16.06.2017 22:38 19,7 C 25,0 C 51 % 1017,0 hPa 0,0 l/m 12,3 km/h (3 Bft) W 272 0 min 0,000 mm 0,0 UV-I 0 W/m 9,3 C 17,6 C 17,7 km/h (3 Bft) 92,68 %
16.06.2017 22:40 19,7 C 25,0 C 51 % 1017,0 hPa 0,0 l/m 13,7 km/h (3 Bft) W 261 0 min 0,000 mm 0,0 UV-I 0 W/m 9,3 C 17,2 C 19,3 km/h (3 Bft) 97,56 %
16.06.2017 22:42 19,7 C 25,0 C 52 % 1017,0 hPa 0,0 l/m 13,4 km/h (3 Bft) W-SW 254 0 min 0,000 mm 0,0 UV-I 0 W/m 9,6 C 17,3 C 17,7 km/h (3 Bft) 95,74 %
16.06.2017 22:44 19,6 C 25,0 C 52 % 1017,1 hPa 0,0 l/m 15,0 km/h (3 Bft) SW 236 0 min 0,000 mm 0,0 UV-I 0 W/m 9,5 C 16,8 C 24,1 km/h (4 Bft) 100,00 %
16.06.2017 22:46 19,6 C 25,0 C 52 % 1017,0 hPa 0,0 l/m 11,6 km/h (2 Bft) W 278 0 min 0,000 mm 0,0 UV-I 0 W/m 9,5 C 17,7 C 20,9 km/h (4 Bft) 96,30 %
16.06.2017 22:48 19,5 C 25,0 C 52 % 1017,1 hPa 0,0 l/m 10,8 km/h (2 Bft) SW 228 0 min 0,000 mm 0,0 UV-I 0 W/m 9,4 C 17,8 C 17,7 km/h (3 Bft) 100,00 %
16.06.2017 22:50 19,5 C 25,0 C 53 % 1017,1 hPa 0,0 l/m 13,7 km/h (3 Bft) W 270 0 min 0,000 mm 0,0 UV-I 0 W/m 9,7 C 17,0 C 19,3 km/h (3 Bft) 100,00 %
16.06.2017 22:52 19,4 C 25,0 C 53 % 1017,1 hPa 0,0 l/m 15,4 km/h (3 Bft) W-SW 250 0 min 0,000 mm 0,0 UV-I 0 W/m 9,6 C 16,4 C 22,5 km/h (4 Bft) 97,62 %
16.06.2017 22:54 19,4 C 25,0 C 52 % 1017,2 hPa 0,0 l/m 13,0 km/h (3 Bft) W 261 0 min 0,000 mm 0,0 UV-I 0 W/m 9,3 C 17,1 C 20,9 km/h (4 Bft) 98,18 %
16.06.2017 22:56 19,4 C 25,0 C 52 % 1017,3 hPa 0,0 l/m 17,1 km/h (3 Bft) W-SW 240 0 min 0,000 mm 0,0 UV-I 0 W/m 9,3 C 16,0 C 33,8 km/h (5 Bft) 100,00 %
16.06.2017 22:58 19,4 C 25,0 C 52 % 1017,3 hPa 0,0 l/m 11,4 km/h (2 Bft) W 279 0 min 0,000 mm 0,0 UV-I 0 W/m 9,3 C 17,5 C 22,5 km/h (4 Bft) 94,55 %
16.06.2017 23:00 19,4 C 25,0 C 52 % 1017,3 hPa 0,0 l/m 10,3 km/h (2 Bft) W 269 0 min 0,000 mm 0,0 UV-I 0 W/m 9,3 C 17,9 C 19,3 km/h (3 Bft) 98,00 %
16.06.2017 23:02 19,4 C 24,4 C 52 % 1017,3 hPa 0,0 l/m 12,7 km/h (3 Bft) S-SW 209 0 min 0,102 mm 0,0 UV-I 0 W/m 9,3 C 17,1 C 20,9 km/h (4 Bft) 100,00 %
16.06.2017 23:04 19,4 C 24,4 C 52 % 1017,4 hPa 0,0 l/m 13,0 km/h (3 Bft) W-SW 250 0 min 0,000 mm 0,0 UV-I 0 W/m 9,3 C 17,1 C 19,3 km/h (3 Bft) 92,11 %
16.06.2017 23:06 19,4 C 24,4 C 52 % 1017,5 hPa 0,0 l/m 13,1 km/h (3 Bft) W-SW 254 0 min 0,000 mm 0,0 UV-I 0 W/m 9,3 C 17,0 C 20,9 km/h (4 Bft) 98,21 %
16.06.2017 23:09 19,4 C 25,0 C 52 % 1017,5 hPa 0,0 l/m 13,0 km/h (3 Bft) SW 236 0 min 0,000 mm 0,0 UV-I 0 W/m 9,3 C 17,1 C 25,7 km/h (4 Bft) 97,01 %
16.06.2017 23:10 19,3 C 25,0 C 52 % 1017,5 hPa 0,0 l/m 17,2 km/h (3 Bft) W-SW 248 0 min 0,000 mm 0,0 UV-I 0 W/m 9,2 C 15,9 C 24,1 km/h (4 Bft) 100,00 %
16.06.2017 23:12 19,3 C 24,4 C 52 % 1017,5 hPa 0,0 l/m 17,2 km/h (3 Bft) W 277 0 min 0,000 mm 0,0 UV-I 0 W/m 9,2 C 15,9 C 29,0 km/h (5 Bft) 100,00 %
16.06.2017 23:14 19,3 C 24,4 C 52 % 1017,5 hPa 0,0 l/m 12,7 km/h (3 Bft) S-SW 211 0 min 0,000 mm 0,0 UV-I 0 W/m 9,2 C 17,0 C 22,5 km/h (4 Bft) 98,00 %
16.06.2017 23:16 19,3 C 24,4 C 52 % 1017,5 hPa 0,0 l/m 15,6 km/h (3 Bft) W-SW 247 0 min 0,000 mm 0,0 UV-I 0 W/m 9,2 C 16,3 C 22,5 km/h (4 Bft) 97,56 %
16.06.2017 23:18 19,3 C 24,4 C 52 % 1017,5 hPa 0,0 l/m 14,2 km/h (3 Bft) W-SW 243 0 min 0,000 mm 0,0 UV-I 0 W/m 9,2 C 16,6 C 20,9 km/h (4 Bft) 98,11 %
16.06.2017 23:20 19,3 C 24,4 C 52 % 1017,6 hPa 0,0 l/m 11,5 km/h (2 Bft) W 271 0 min 0,000 mm 0,0 UV-I 0 W/m 9,2 C 17,4 C 17,7 km/h (3 Bft) 97,37 %
16.06.2017 23:22 19,3 C 24,4 C 52 % 1017,6 hPa 0,0 l/m 12,2 km/h (2 Bft) W-NW 289 0 min 0,000 mm 0,0 UV-I 0 W/m 9,2 C 17,2 C 19,3 km/h (3 Bft) 97,87 %
16.06.2017 23:24 19,3 C 24,4 C 52 % 1017,6 hPa 0,0 l/m 12,6 km/h (3 Bft) W 266 0 min 0,000 mm 0,0 UV-I 0 W/m 9,2 C 17,0 C 25,7 km/h (4 Bft) 100,00 %
16.06.2017 23:26 19,2 C 24,4 C 52 % 1017,6 hPa 0,0 l/m 12,2 km/h (2 Bft) W-NW 286 0 min 0,000 mm 0,0 UV-I 0 W/m 9,1 C 17,0 C 24,1 km/h (4 Bft) 98,11 %
16.06.2017 23:28 19,2 C 24,4 C 52 % 1017,7 hPa 0,0 l/m 14,0 km/h (3 Bft) W-SW 247 0 min 0,000 mm 0,0 UV-I 0 W/m 9,1 C 16,5 C 20,9 km/h (4 Bft) 100,00 %
16.06.2017 23:30 19,2 C 24,4 C 52 % 1017,7 hPa 0,0 l/m 14,5 km/h (3 Bft) SW 227 0 min 0,000 mm 0,0 UV-I 0 W/m 9,1 C 16,4 C 22,5 km/h (4 Bft) 100,00 %
16.06.2017 23:32 19,2 C 24,4 C 52 % 1017,7 hPa 0,0 l/m 18,9 km/h (3 Bft) W-SW 255 0 min 0,000 mm 0,0 UV-I 0 W/m 9,1 C 15,4 C 27,4 km/h (4 Bft) 98,21 %
16.06.2017 23:34 19,2 C 24,4 C 52 % 1017,7 hPa 0,0 l/m 15,3 km/h (3 Bft) SW 236 0 min 0,000 mm 0,0 UV-I 0 W/m 9,1 C 16,2 C 22,5 km/h (4 Bft) 100,00 %
16.06.2017 23:36 19,2 C 24,4 C 52 % 1017,7 hPa 0,0 l/m 12,6 km/h (3 Bft) W-NW 284 0 min 0,000 mm 0,0 UV-I 0 W/m 9,1 C 16,9 C 19,3 km/h (3 Bft) 96,23 %
16.06.2017 23:38 19,2 C 24,4 C 52 % 1017,8 hPa 0,0 l/m 16,1 km/h (3 Bft) W-SW 237 0 min 0,000 mm 0,0 UV-I 0 W/m 9,1 C 16,0 C 27,4 km/h (4 Bft) 97,62 %
16.06.2017 23:40 19,2 C 24,4 C 52 % 1017,8 hPa 0,0 l/m 14,9 km/h (3 Bft) SW 235 0 min 0,000 mm 0,0 UV-I 0 W/m 9,1 C 16,3 C 22,5 km/h (4 Bft) 95,74 %
16.06.2017 23:42 19,2 C 24,4 C 52 % 1017,8 hPa 0,0 l/m 13,7 km/h (3 Bft) SW 236 0 min 0,000 mm 0,0 UV-I 0 W/m 9,1 C 16,6 C 22,5 km/h (4 Bft) 97,73 %
16.06.2017 23:44 19,2 C 24,4 C 52 % 1017,8 hPa 0,0 l/m 16,1 km/h (3 Bft) W-NW 292 0 min 0,000 mm 0,0 UV-I 0 W/m 9,1 C 16,0 C 27,4 km/h (4 Bft) 96,43 %
16.06.2017 23:46 19,2 C 24,4 C 51 % 1017,8 hPa 0,0 l/m 13,7 km/h (3 Bft) W 278 0 min 0,000 mm 0,0 UV-I 0 W/m 8,8 C 16,6 C 22,5 km/h (4 Bft) 97,37 %
16.06.2017 23:48 19,2 C 24,4 C 52 % 1017,8 hPa 0,0 l/m 13,6 km/h (3 Bft) W 275 0 min 0,000 mm 0,0 UV-I 0 W/m 9,1 C 16,6 C 17,7 km/h (3 Bft) 96,23 %
16.06.2017 23:50 19,2 C 24,4 C 52 % 1017,9 hPa 0,0 l/m 12,9 km/h (3 Bft) SW 228 0 min 0,000 mm 0,0 UV-I 0 W/m 9,1 C 16,8 C 24,1 km/h (4 Bft) 97,56 %
16.06.2017 23:52 19,2 C 24,4 C 52 % 1017,9 hPa 0,0 l/m 13,5 km/h (3 Bft) SW 227 0 min 0,000 mm 0,0 UV-I 0 W/m 9,1 C 16,7 C 22,5 km/h (4 Bft) 94,34 %
16.06.2017 23:54 19,2 C 24,4 C 52 % 1017,9 hPa 0,0 l/m 16,3 km/h (3 Bft) W-SW 241 0 min 0,000 mm 0,0 UV-I 0 W/m 9,1 C 16,0 C 27,4 km/h (4 Bft) 96,00 %
16.06.2017 23:56 19,1 C 24,4 C 52 % 1017,9 hPa 0,0 l/m 12,9 km/h (3 Bft) W-SW 254 0 min 0,000 mm 0,0 UV-I 0 W/m 9,0 C 16,7 C 19,3 km/h (3 Bft) 97,56 %
16.06.2017 23:58 19,1 C 24,4 C 52 % 1017,9 hPa 0,0 l/m 13,6 km/h (3 Bft) W-SW 255 0 min 0,000 mm 0,0 UV-I 0 W/m 9,0 C 16,5 C 20,9 km/h (4 Bft) 95,12 %
_ Min-Zeit 05:36 07:14 17:30 02:00 - 02:10 - - - - - - 18:02 02:46 03:22 18:38
Minimum _ 17,7 C 24,4 C 27 % 1011,5 hPa - 0,0 km/h (0 Bft) - - - - - - 4,6 C 14,2 C 0,0 km/h (0 Bft) 87,23 %
_ Max-Zeit 16:14 00:00 05:50 23:50 03:24 14:00 - - 16:23 14:00 13:12 13:14 10:14 14:50 14:00 00:00
Maximum _ 26,6 C 25,6 C 93 % 1017,9 hPa 0,2 l/m 31,2 km/h
W (5 Bft)
- - 3 min 0,762 mm 6,8 UV-I 1136 W/m 18,1 C 25,7 C 57,9 km/h
W-SW (7 Bft)
100,00 %
Durchschnitt _ 21,7 C 25,0 C 59 % 1014,3 hPa #0,6 l/m 11,0 km/h (2 Bft) W-SW - #8:46 h #5,893 mm 3,1 UV-I 389 W/m 12,5 C 20,4 C 19,3 km/h (3 Bft) 96,63 %